[[{"header":{"parameterUnit":"m.s-1","parameterCategory":1,"la1":30.6,"la2":29.2853,"lo1":-89.7004,"lo2":-87.6739,"dy":0.0162,"dx":0.0183,"nx":112,"ny":82,"refTime":"2023-03-09T06:00:00:Z","depth":0,"parameterNumber":2,"parameterNumberName":"U-component_of_WINDS"},"data":[0.0,0.0,0.0,0.0,0.0,0.0,0.0,0.0,0.0,0.0,0.0,0.0,0.0,0.0,0.0,0.0,0.0,0.0,0.0,0.0,0.0,0.0,0.0,0.0,0.0,0.0,0.0,0.0,0.0,0.0,0.0,0.0,0.0,0.0,0.0,0.0,0.0,0.0,0.0,0.0,0.0,0.0,0.0,0.0,0.0,0.0,0.0,0.0,0.0,0.0,0.0,0.0,0.0,0.0,0.0,0.0,0.0,0.0,0.0,0.0,0.0,0.0,0.0,0.0,0.0,0.0,0.0,0.0,0.0,0.0,0.0,0.0,0.0,0.0,0.0,0.0,0.0,0.0,0.0,0.0,0.0,0.0,0.0,0.0,0.0,0.0,0.0,0.0,0.0,0.0,-1.8594,-1.8187,-1.9756,-2.1102,-2.1807,-2.1982,-2.1969,-2.1773,0.0,0.0,0.0,0.0,0.0,0.0,0.0,0.0,0.0,0.0,0.0,0.0,0.0,0.0,0.0,0.0,0.0,0.0,0.0,0.0,0.0,0.0,0.0,0.0,0.0,0.0,0.0,0.0,0.0,0.0,0.0,0.0,0.0,0.0,0.0,0.0,0.0,0.0,0.0,0.0,0.0,0.0,0.0,0.0,0.0,0.0,0.0,0.0,0.0,0.0,0.0,0.0,0.0,0.0,0.0,0.0,0.0,0.0,0.0,0.0,0.0,0.0,0.0,0.0,0.0,0.0,0.0,0.0,0.0,0.0,0.0,0.0,0.0,0.0,0.0,0.0,0.0,0.0,0.0,0.0,0.0,0.0,0.0,0.0,0.0,0.0,0.0,0.0,0.0,0.0,0.0,0.0,0.0,0.0,0.0,0.0,0.0,0.0,0.0,0.0,0.0,0.0,0.0,0.0,-1.871,-1.9133,-1.9961,-2.0683,-2.1197,-2.1613,-2.1496,-2.0685,0.0,0.0,0.0,0.0,0.0,0.0,0.0,0.0,0.0,0.0,0.0,0.0,0.0,0.0,0.0,0.0,0.0,0.0,0.0,0.0,0.0,0.0,0.0,0.0,0.0,0.0,0.0,0.0,0.0,0.0,0.0,0.0,0.0,0.0,0.0,0.0,0.0,0.0,0.0,0.0,0.0,0.0,0.0,0.0,0.0,0.0,0.0,0.0,0.0,0.0,0.0,0.0,0.0,0.0,0.0,0.0,0.0,0.0,0.0,0.0,0.0,0.0,0.0,0.0,0.0,0.0,0.0,0.0,0.0,0.0,0.0,0.0,0.0,0.0,0.0,0.0,0.0,0.0,0.0,0.0,0.0,0.0,0.0,0.0,0.0,0.0,0.0,0.0,0.0,0.0,0.0,0.0,0.0,0.0,0.0,0.0,0.0,0.0,0.0,0.0,0.0,0.0,0.0,-1.7754,-1.8248,-1.9039,-1.9702,-2.0299,-2.0846,-2.1212,-2.1089,-2.0294,-2.228,0.0,0.0,0.0,0.0,0.0,0.0,0.0,0.0,0.0,0.0,0.0,0.0,0.0,0.0,0.0,0.0,0.0,0.0,0.0,0.0,0.0,0.0,0.0,0.0,0.0,0.0,0.0,0.0,0.0,0.0,0.0,0.0,0.0,0.0,0.0,0.0,0.0,0.0,0.0,0.0,0.0,0.0,0.0,0.0,0.0,0.0,0.0,0.0,0.0,0.0,0.0,0.0,0.0,0.0,0.0,0.0,0.0,0.0,0.0,0.0,0.0,0.0,0.0,0.0,0.0,0.0,0.0,0.0,0.0,0.0,0.0,0.0,0.0,0.0,0.0,0.0,0.0,0.0,0.0,0.0,0.0,0.0,0.0,0.0,0.0,0.0,0.0,0.0,0.0,0.0,0.0,0.0,0.0,0.0,0.0,0.0,0.0,0.0,0.0,0.0,0.0,0.0,-1.7661,-1.7913,-1.8803,-1.9314,-1.9879,-2.0567,-2.0813,-2.0674,-2.0044,-2.1951,0.0,0.0,0.0,0.0,0.0,0.0,0.0,0.0,0.0,0.0,0.0,0.0,0.0,0.0,0.0,0.0,0.0,0.0,0.0,0.0,0.0,0.0,0.0,0.0,0.0,0.0,0.0,0.0,0.0,0.0,0.0,0.0,0.0,0.0,0.0,0.0,0.0,0.0,0.0,0.0,0.0,0.0,0.0,0.0,0.0,0.0,0.0,0.0,0.0,0.0,0.0,0.0,0.0,0.0,0.0,0.0,0.0,0.0,0.0,0.0,0.0,0.0,0.0,0.0,0.0,0.0,0.0,0.0,0.0,0.0,0.0,0.0,0.0,0.0,0.0,0.0,0.0,0.0,0.0,0.0,0.0,0.0,0.0,0.0,0.0,0.0,0.0,0.0,0.0,0.0,0.0,0.0,0.0,0.0,0.0,0.0,0.0,0.0,0.0,0.0,0.0,0.0,-1.7801,-1.8066,-1.8822,-1.8936,-1.9369,-2.0344,-2.0444,-2.0242,-1.9767,-2.1619,0.0,0.0,0.0,0.0,0.0,0.0,0.0,0.0,0.0,0.0,0.0,0.0,0.0,0.0,0.0,0.0,0.0,0.0,0.0,0.0,0.0,0.0,0.0,0.0,0.0,0.0,0.0,0.0,0.0,0.0,0.0,0.0,0.0,0.0,0.0,0.0,0.0,0.0,0.0,0.0,0.0,0.0,0.0,0.0,0.0,0.0,0.0,0.0,0.0,0.0,0.0,0.0,0.0,0.0,0.0,0.0,0.0,0.0,0.0,0.0,0.0,0.0,0.0,0.0,0.0,0.0,0.0,0.0,0.0,0.0,0.0,0.0,0.0,0.0,0.0,0.0,0.0,0.0,0.0,0.0,0.0,0.0,0.0,0.0,0.0,0.0,0.0,0.0,0.0,0.0,0.0,0.0,0.0,0.0,0.0,0.0,0.0,0.0,0.0,0.0,0.0,0.0,-1.7359,-1.753,-1.8147,-1.8403,-1.8831,-1.9591,-2.012,-2.0223,-1.979,0.0,0.0,0.0,0.0,0.0,0.0,0.0,0.0,0.0,0.0,0.0,0.0,0.0,0.0,0.0,0.0,0.0,0.0,0.0,0.0,0.0,0.0,0.0,0.0,0.0,0.0,0.0,0.0,0.0,0.0,0.0,0.0,0.0,0.0,0.0,0.0,0.0,0.0,0.0,0.0,0.0,0.0,0.0,0.0,0.0,0.0,0.0,0.0,0.0,0.0,0.0,0.0,0.0,0.0,0.0,0.0,0.0,0.0,0.0,0.0,0.0,0.0,0.0,0.0,0.0,0.0,0.0,0.0,0.0,0.0,0.0,0.0,0.0,0.0,0.0,0.0,0.0,0.0,0.0,0.0,0.0,0.0,0.0,0.0,0.0,0.0,0.0,0.0,0.0,0.0,0.0,0.0,0.0,0.0,0.0,0.0,0.0,0.0,0.0,0.0,0.0,0.0,-1.6816,-1.6816,-1.6972,-1.7503,-1.7787,-1.8173,-1.8746,-1.9401,-1.9699,-1.9436,0.0,0.0,0.0,0.0,0.0,0.0,0.0,0.0,0.0,0.0,0.0,0.0,0.0,0.0,0.0,0.0,0.0,0.0,0.0,0.0,0.0,0.0,0.0,0.0,0.0,0.0,0.0,0.0,0.0,0.0,0.0,0.0,0.0,0.0,0.0,0.0,0.0,0.0,0.0,0.0,0.0,0.0,0.0,0.0,0.0,0.0,0.0,0.0,0.0,0.0,0.0,0.0,0.0,0.0,0.0,0.0,0.0,0.0,0.0,0.0,0.0,0.0,0.0,0.0,0.0,0.0,0.0,0.0,0.0,0.0,0.0,0.0,0.0,0.0,0.0,0.0,0.0,0.0,0.0,0.0,0.0,0.0,0.0,0.0,0.0,0.0,0.0,0.0,0.0,0.0,0.0,0.0,0.0,0.0,0.0,0.0,0.0,0.0,0.0,0.0,0.0,0.0,-1.6049,-1.6213,-1.6463,-1.6951,-1.7102,-1.7387,-1.7853,-1.8266,-1.8518,0.0,0.0,0.0,0.0,0.0,0.0,0.0,0.0,0.0,0.0,0.0,0.0,0.0,0.0,0.0,0.0,0.0,0.0,0.0,0.0,0.0,0.0,0.0,0.0,0.0,0.0,0.0,0.0,0.0,0.0,0.0,0.0,0.0,0.0,0.0,0.0,0.0,0.0,0.0,0.0,0.0,0.0,0.0,0.0,0.0,0.0,0.0,0.0,0.0,0.0,0.0,0.0,0.0,0.0,0.0,0.0,0.0,0.0,0.0,0.0,0.0,0.0,0.0,0.0,0.0,0.0,0.0,0.0,0.0,0.0,0.0,0.0,0.0,0.0,0.0,0.0,0.0,0.0,0.0,0.0,0.0,0.0,0.0,0.0,0.0,0.0,0.0,0.0,0.0,0.0,0.0,0.0,0.0,0.0,0.0,0.0,0.0,0.0,0.0,0.0,0.0,0.0,0.0,-1.5623,-1.5724,-1.5932,-1.6441,-1.6637,-1.7005,-1.776,-1.7633,-1.7997,-1.9105,0.0,0.0,0.0,0.0,0.0,0.0,0.0,0.0,0.0,0.0,0.0,0.0,0.0,0.0,0.0,0.0,0.0,0.0,0.0,0.0,0.0,0.0,0.0,0.0,0.0,0.0,0.0,0.0,0.0,0.0,0.0,0.0,0.0,0.0,0.0,0.0,0.0,0.0,0.0,0.0,0.0,0.0,0.0,0.0,0.0,0.0,0.0,0.0,0.0,0.0,0.0,0.0,0.0,0.0,0.0,0.0,0.0,0.0,0.0,0.0,0.0,0.0,0.0,0.0,0.0,0.0,0.0,0.0,0.0,0.0,0.0,0.0,0.0,0.0,0.0,0.0,0.0,0.0,0.0,0.0,0.0,0.0,0.0,0.0,0.0,0.0,0.0,0.0,0.0,0.0,0.0,0.0,0.0,0.0,0.0,0.0,0.0,0.0,0.0,0.0,0.0,0.0,-1.5311,-1.5566,-1.5805,-1.5957,-1.6259,-1.6604,-1.6976,-1.6921,-1.7187,-1.7963,0.0,0.0,0.0,0.0,0.0,0.0,0.0,0.0,0.0,0.0,0.0,0.0,0.0,0.0,0.0,0.0,0.0,0.0,0.0,0.0,0.0,0.0,0.0,0.0,0.0,0.0,0.0,0.0,0.0,0.0,0.0,0.0,0.0,0.0,0.0,0.0,0.0,0.0,0.0,0.0,0.0,0.0,0.0,0.0,0.0,0.0,0.0,0.0,0.0,0.0,0.0,0.0,0.0,0.0,0.0,0.0,0.0,0.0,0.0,0.0,0.0,0.0,0.0,0.0,0.0,0.0,0.0,0.0,0.0,0.0,0.0,0.0,0.0,0.0,0.0,0.0,0.0,0.0,0.0,0.0,0.0,0.0,0.0,0.0,0.0,0.0,0.0,0.0,0.0,0.0,0.0,0.0,0.0,0.0,0.0,0.0,0.0,0.0,0.0,0.0,0.0,0.0,-1.5165,-1.5661,-1.5905,-1.5586,-1.603,-1.6204,-1.5872,-1.6148,-1.6241,-1.5969,0.0,0.0,0.0,0.0,0.0,0.0,0.0,0.0,0.0,0.0,0.0,0.0,0.0,0.0,0.0,0.0,0.0,0.0,0.0,0.0,0.0,0.0,0.0,0.0,0.0,0.0,0.0,0.0,0.0,0.0,0.0,0.0,0.0,0.0,0.0,0.0,0.0,0.0,0.0,0.0,0.0,0.0,0.0,0.0,0.0,0.0,0.0,0.0,0.0,0.0,0.0,0.0,0.0,0.0,0.0,0.0,0.0,0.0,0.0,0.0,-2.7856,-2.7674,0.0,0.0,0.0,0.0,0.0,0.0,0.0,0.0,0.0,0.0,0.0,0.0,0.0,0.0,0.0,0.0,0.0,0.0,0.0,0.0,0.0,0.0,0.0,0.0,0.0,0.0,0.0,0.0,0.0,0.0,0.0,0.0,0.0,0.0,0.0,0.0,0.0,0.0,0.0,0.0,-1.5671,-1.558,-1.5602,-1.5951,-1.5902,-1.5945,-1.6163,-1.5654,-1.562,-1.633,-1.5923,0.0,0.0,0.0,0.0,0.0,0.0,0.0,0.0,0.0,0.0,0.0,0.0,0.0,0.0,0.0,0.0,0.0,0.0,0.0,0.0,0.0,0.0,0.0,0.0,0.0,0.0,0.0,0.0,0.0,0.0,0.0,0.0,0.0,0.0,0.0,0.0,0.0,0.0,0.0,0.0,0.0,0.0,0.0,0.0,0.0,0.0,0.0,0.0,0.0,0.0,0.0,0.0,0.0,0.0,0.0,0.0,0.0,0.0,0.0,-2.8774,-2.8653,0.0,0.0,0.0,0.0,0.0,0.0,0.0,0.0,0.0,0.0,0.0,0.0,0.0,0.0,0.0,0.0,0.0,0.0,0.0,0.0,0.0,0.0,0.0,0.0,0.0,0.0,0.0,0.0,0.0,0.0,0.0,0.0,0.0,0.0,0.0,0.0,0.0,0.0,0.0,0.0,-1.5819,-1.5495,-1.5336,-1.5684,-1.5822,-1.5932,-1.5991,-1.5606,-1.5456,-1.5762,-1.5278,0.0,0.0,0.0,0.0,0.0,0.0,0.0,0.0,0.0,0.0,0.0,0.0,0.0,0.0,0.0,0.0,0.0,0.0,0.0,0.0,0.0,0.0,0.0,0.0,0.0,0.0,0.0,0.0,0.0,0.0,0.0,0.0,0.0,0.0,0.0,0.0,0.0,0.0,0.0,0.0,0.0,0.0,0.0,0.0,0.0,0.0,0.0,0.0,0.0,0.0,0.0,0.0,0.0,-2.9735,-3.0428,-3.1894,-3.0201,-2.9458,-2.9479,-2.9385,-2.9328,-2.9304,-2.9407,0.0,0.0,0.0,0.0,0.0,0.0,0.0,0.0,0.0,0.0,0.0,0.0,0.0,0.0,0.0,0.0,0.0,0.0,0.0,0.0,0.0,0.0,-1.7747,-1.8174,-1.7691,-1.7216,-1.7549,0.0,0.0,0.0,0.0,0.0,0.0,0.0,0.0,0.0,0.0,0.0,-1.5601,-1.5259,-1.5047,-1.5234,-1.5695,-1.5858,-1.5662,-1.5649,-1.5467,-1.5016,-1.4922,-1.4997,0.0,0.0,0.0,0.0,0.0,0.0,0.0,0.0,0.0,0.0,0.0,0.0,0.0,0.0,0.0,0.0,0.0,0.0,0.0,0.0,0.0,0.0,0.0,0.0,0.0,0.0,0.0,0.0,0.0,0.0,0.0,0.0,-3.0926,-3.16,0.0,0.0,0.0,0.0,0.0,0.0,0.0,0.0,0.0,0.0,0.0,0.0,0.0,-2.962,-2.8481,-3.0192,-3.0246,-2.8592,-2.9632,-2.9986,-2.9702,-2.9453,-2.9073,-2.8661,-2.8653,0.0,-2.7415,-2.7877,0.0,0.0,0.0,0.0,0.0,0.0,0.0,0.0,0.0,0.0,0.0,0.0,0.0,0.0,0.0,0.0,0.0,0.0,0.0,0.0,0.0,0.0,-1.7768,-1.7434,-1.7274,-1.7208,-1.7252,-1.6774,-1.6446,-1.6863,-1.6717,-1.6691,0.0,0.0,0.0,0.0,0.0,0.0,-1.4641,-1.4531,-1.4673,-1.5075,-1.529,-1.5382,-1.5369,-1.5458,-1.5345,-1.4943,-1.4899,-1.5183,-1.5769,-1.5812,0.0,0.0,0.0,0.0,0.0,0.0,0.0,0.0,0.0,0.0,0.0,0.0,0.0,0.0,0.0,0.0,0.0,0.0,0.0,0.0,0.0,0.0,0.0,0.0,0.0,0.0,0.0,0.0,0.0,-2.9757,-3.1162,-3.1162,-3.149,-3.1286,0.0,0.0,0.0,0.0,0.0,0.0,0.0,0.0,0.0,-2.9303,-2.9229,-2.9288,-2.9449,-3.0257,-3.0254,-2.9436,-2.9612,-2.9754,-2.9876,-2.8779,-2.8346,-2.8412,-2.8001,-2.7384,-2.6764,-2.7498,-2.7858,-2.7866,0.0,0.0,0.0,0.0,-2.5386,-2.4756,-2.3684,-2.3001,-2.2447,-2.1631,0.0,0.0,0.0,0.0,0.0,0.0,0.0,-1.8219,-1.7745,-1.7342,-1.7016,-1.6804,-1.6552,-1.6366,-1.6367,-1.5818,-1.5572,-1.6256,-1.6216,-1.6223,-1.6751,-1.6142,0.0,0.0,0.0,-1.4376,-1.4711,-1.401,-1.3696,-1.4193,-1.4305,-1.4489,-1.4811,-1.4903,-1.5027,-1.5217,-1.4955,-1.4959,-1.5323,-1.5558,-1.5924,0.0,0.0,0.0,0.0,0.0,0.0,0.0,0.0,0.0,0.0,0.0,0.0,0.0,0.0,0.0,0.0,0.0,0.0,0.0,0.0,0.0,0.0,0.0,0.0,0.0,0.0,0.0,0.0,-3.0385,-3.1454,-3.0983,-3.1605,-3.1471,0.0,0.0,0.0,0.0,0.0,0.0,-2.7889,-2.8671,-2.9077,-2.8783,-2.8945,-2.9376,-3.0159,-3.0306,-3.0236,-2.9949,-2.9462,-2.935,-2.9573,-2.8098,-2.7626,-2.7885,-2.7335,-2.6952,-2.6754,-2.7275,-2.7637,-2.7777,-2.6816,-2.6457,-2.641,-2.5971,-2.5788,-2.5608,-2.4499,-2.3689,-2.2911,-2.1861,-2.0782,-1.9739,-1.8838,0.0,0.0,0.0,0.0,-1.772,-1.727,-1.6835,-1.649,-1.6261,-1.5881,-1.55,-1.5394,-1.4858,-1.4653,-1.5541,-1.5416,-1.5339,-1.5865,-1.5309,0.0,-1.6159,-1.4826,-1.385,-1.4282,-1.3431,-1.2957,-1.3338,-1.3515,-1.3847,-1.4408,-1.4456,-1.4755,-1.5401,-1.5189,-1.5104,-1.5225,-1.5514,-1.5736,-1.5825,0.0,0.0,0.0,0.0,0.0,0.0,0.0,0.0,0.0,0.0,0.0,0.0,0.0,0.0,0.0,0.0,0.0,0.0,0.0,0.0,0.0,0.0,0.0,0.0,0.0,0.0,0.0,0.0,0.0,-3.2449,-3.2178,0.0,0.0,0.0,0.0,-2.83,-2.8387,-2.8644,-2.9079,-2.9166,-2.9477,-3.0099,-3.0667,-3.0637,-3.0009,-3.0592,-3.0221,-2.895,-2.8925,-2.842,-2.746,-2.7362,-2.7037,-2.6606,-2.6571,-2.6813,-2.7228,-2.6744,-2.6286,-2.5798,-2.5227,-2.5022,-2.4992,-2.4962,-2.4926,-2.484,-2.4788,-2.3907,-2.2843,-2.2895,-2.1024,-1.8679,-1.8116,-1.7266,0.0,0.0,-1.7144,-1.6962,-1.6545,-1.6724,-1.6754,-1.5917,-1.543,-1.5,-1.4551,-1.3995,-1.3828,-1.4784,-1.4281,-1.3946,-1.4665,0.0,-1.4332,-1.4003,-1.3987,-1.3628,-1.2676,-1.2682,-1.2812,-1.2837,-1.329,-1.3823,-1.435,-1.4396,-1.4651,-1.5267,-1.5765,-1.6056,-1.6127,-1.615,-1.6174,-1.6162,-1.5794,0.0,0.0,0.0,0.0,0.0,0.0,0.0,0.0,0.0,0.0,0.0,0.0,0.0,0.0,0.0,0.0,0.0,0.0,0.0,0.0,0.0,0.0,0.0,0.0,0.0,0.0,0.0,0.0,-3.1143,-3.2017,0.0,-3.0231,-3.0094,-2.9478,-2.7962,-2.9319,-2.9744,-2.8664,-2.9421,-2.9792,-2.949,-2.9694,-2.9694,-2.9402,-2.9628,-2.9338,-2.851,-2.851,-2.794,-2.6924,-2.6924,-2.6627,-2.6107,-2.6107,-2.6231,-2.6332,-2.5406,-2.549,-2.6087,-2.5111,-2.4511,-2.4137,-2.3693,-2.3532,-2.3447,-2.291,-2.2227,-2.145,-2.0742,-1.9403,-1.8016,-1.7817,-1.731,-1.6736,-1.6558,-1.6518,-1.6427,-1.5888,-1.5534,-1.5253,-1.4935,-1.4334,-1.378,-1.3605,-1.3145,-1.2889,-1.3221,-1.3178,-1.3284,-1.3881,-1.3578,-1.3514,-1.4383,-1.3774,-1.3104,-1.2698,-1.2595,-1.2452,-1.2234,-1.2476,-1.2842,-1.3328,-1.3375,-1.3755,-1.4651,-1.4887,-1.5198,-1.5602,-1.5625,-1.5659,-1.5739,-1.5585,-1.5491,0.0,0.0,0.0,0.0,0.0,0.0,0.0,0.0,0.0,0.0,0.0,0.0,0.0,0.0,0.0,0.0,0.0,0.0,0.0,0.0,0.0,0.0,0.0,0.0,0.0,-3.0192,-3.0697,-3.0336,-3.1289,-3.1306,-2.9545,-3.0025,-2.9767,-2.822,-2.9626,-2.9999,-2.8653,-2.9413,-2.9651,-2.9131,-2.9091,-2.9091,-2.9091,-2.9091,-2.8692,-2.7873,-2.7873,-2.7224,-2.6051,-2.5909,-2.5742,-2.5527,-2.5397,-2.5314,-2.5254,-2.4495,-2.459,-2.5125,-2.3992,-2.3455,-2.3256,-2.2555,-2.2433,-2.248,-2.17,-2.1118,-2.0506,-1.9123,-1.818,-1.7492,-1.7185,-1.6888,-1.6482,-1.5867,-1.5753,-1.5672,-1.5087,-1.4676,-1.4392,-1.4219,-1.3726,-1.3213,-1.293,-1.2518,-1.221,-1.221,-1.2437,-1.2773,-1.3122,-1.2937,-1.309,-1.4118,-1.3496,-1.2923,-1.2923,-1.2582,-1.2244,-1.2027,-1.2009,-1.2206,-1.2691,-1.2764,-1.3184,-1.4069,-1.4314,-1.459,-1.4966,-1.5152,-1.5268,-1.5372,-1.5211,-1.5051,-1.4926,0.0,0.0,0.0,0.0,0.0,0.0,0.0,0.0,0.0,0.0,0.0,0.0,0.0,0.0,0.0,0.0,0.0,0.0,0.0,0.0,0.0,0.0,0.0,-3.0053,-3.0022,-3.0037,-3.0322,-3.0174,-2.9901,-2.9415,-2.9221,-2.9153,-2.9116,-2.9116,-2.9116,-2.9091,-2.9091,-2.9091,-2.9091,-2.9091,-2.9091,-2.9091,-2.9052,-2.8379,-2.7019,-2.698,-2.6219,-2.4787,-2.4408,-2.4441,-2.4754,-2.4363,-2.4189,-2.4189,-2.414,-2.3572,-2.2601,-2.1801,-2.1857,-2.2253,-2.1576,-2.1655,-2.1979,-2.1263,-2.073,-2.0084,-1.8432,-1.7574,-1.704,-1.6166,-1.5895,-1.573,-1.507,-1.4884,-1.4698,-1.4115,-1.4183,-1.4302,-1.3765,-1.3652,-1.3414,-1.2586,-1.2079,-1.1805,-1.1849,-1.2149,-1.2414,-1.2429,-1.276,-1.3026,-1.3026,-1.3142,0.0,-1.3212,-1.2623,-1.2202,-1.2184,-1.201,-1.2082,-1.2521,-1.2691,-1.2991,-1.3515,-1.4049,-1.4337,-1.4372,-1.4795,-1.5064,-1.5064,-1.4602,-1.4176,-1.3802,0.0,0.0,0.0,0.0,0.0,0.0,0.0,0.0,0.0,0.0,0.0,0.0,0.0,0.0,0.0,0.0,0.0,0.0,0.0,0.0,0.0,-2.8583,-2.9607,-3.021,-3.0852,-3.1223,-3.1304,-3.1613,-3.1452,-3.0545,-3.0415,-3.0072,-2.9298,-2.9238,-2.908,-2.8693,-2.8657,-2.8657,-2.8657,-2.8657,-2.8657,-2.8657,-2.8047,-2.7522,-2.7129,-2.6456,-2.5698,-2.4931,-2.485,-2.4635,-2.4355,-2.3924,-2.3744,-2.37,-2.2967,-2.2499,-2.2237,-2.1822,-2.149,-2.1113,-2.0146,-1.9682,-1.9495,-1.9312,-1.9117,-1.889,-1.8145,-1.7574,-1.71,-1.6578,-1.5831,-1.5108,-1.4815,-1.4252,-1.3674,-1.3373,-1.2969,-1.2659,-1.2511,-1.2435,-1.2332,-1.21,-1.2138,-1.2321,-1.2612,-1.2776,-1.283,-1.2829,-1.3125,-1.3365,-1.3365,-1.3395,-1.333,-1.3101,-1.2711,-1.2385,-1.2079,-1.1959,-1.1918,-1.1934,-1.2082,-1.232,-1.2716,-1.2969,-1.3267,-1.3652,-1.3893,-1.4013,-1.4013,-1.3897,-1.3776,0.0,0.0,0.0,0.0,0.0,0.0,0.0,0.0,0.0,0.0,0.0,0.0,0.0,0.0,0.0,0.0,0.0,0.0,0.0,0.0,0.0,0.0,-2.8847,-2.9827,-3.0822,-3.118,-3.138,-3.138,-3.1228,-3.0999,-3.0579,-3.0146,-2.9725,-2.9328,-2.9088,-2.8662,-2.7978,-2.7978,-2.7805,-2.7377,-2.7377,-2.7377,-2.7377,-2.6876,-2.6423,-2.6049,-2.5537,-2.4893,-2.421,-2.4013,-2.3846,-2.3712,-2.3306,-2.3139,-2.3097,-2.2316,-2.1912,-2.1678,0.0,0.0,0.0,0.0,-1.8765,-1.8517,-1.8339,-1.8279,-1.8166,-1.7438,-1.6996,-1.6661,-1.5946,-1.5272,-1.4648,-1.4307,-1.3808,-1.3249,-1.2719,-1.2414,-1.2173,-1.2071,-1.2113,-1.2117,-1.1971,-1.2081,-1.2347,-1.2726,-1.2797,0.0,-1.3147,-1.3374,-1.3511,-1.3511,-1.3511,-1.3382,-1.3052,-1.2722,-1.2362,-1.1964,-1.1806,-1.1703,-1.1628,-1.1753,0.0,0.0,0.0,-1.2457,-1.2967,-1.3064,0.0,0.0,0.0,-1.3074,-1.289,-1.2939,0.0,0.0,-1.391,-1.4098,0.0,0.0,0.0,0.0,0.0,0.0,0.0,0.0,0.0,0.0,0.0,0.0,0.0,0.0,0.0,0.0,-2.9041,-3.013,-3.1119,-3.0937,-3.0775,-3.106,-3.023,-2.9755,-3.0007,-2.9152,-2.8705,-2.8969,-2.8564,-2.7904,-2.7103,-2.7051,0.0,0.0,0.0,-2.5886,-2.5941,-2.5857,-2.5381,-2.4571,-2.4485,-2.3947,-2.3081,-2.2711,-2.274,-2.3071,-2.2652,-2.251,-2.248,-2.2002,-2.1553,-2.1084,-2.0484,-2.0214,-2.0039,-1.9098,-1.8685,-1.8549,-1.8178,0.0,0.0,-1.6563,-1.6157,-1.5884,-1.4818,-1.4444,-1.4271,-1.3668,-1.3435,-1.3165,-1.2291,-1.226,-1.2381,-1.2156,-1.2274,-1.2373,-1.2087,-1.2053,-1.2134,-1.2437,-1.2504,-1.2692,-1.327,-1.345,-1.3511,-1.3511,-1.3511,-1.3382,-1.3052,-1.2666,-1.2252,-1.1831,-1.1627,0.0,-1.1477,-1.1603,-1.1669,-1.1653,-1.1678,-1.1884,-1.2301,-1.2325,-1.2325,-1.2325,-1.2448,-1.2286,-1.1877,-1.2002,-1.2051,-1.2085,-1.3482,-1.3887,0.0,0.0,0.0,0.0,0.0,0.0,0.0,0.0,0.0,0.0,0.0,0.0,0.0,0.0,0.0,-2.7881,-2.8765,-2.9296,-2.8729,-2.9118,-3.0132,-3.1953,-3.201,-3.1288,-2.9782,-2.9364,-2.8634,-2.7236,-2.6975,-2.6668,-2.6102,-2.608,-2.6173,-2.6355,-2.6366,-2.6508,-2.6846,-2.6153,-2.5532,-2.4983,-2.4265,0.0,-2.3091,-2.3013,-2.3023,-2.3071,-2.2652,-2.251,-2.2451,-2.168,-2.1103,-2.0713,-2.0585,-2.0301,-1.993,-1.9727,-1.9192,-1.8588,-1.851,-1.789,-1.7005,-1.6386,-1.5788,-1.5222,-1.4662,-1.4107,0.0,-1.3535,-1.3109,-1.2639,-1.2438,-1.2266,-1.2086,-1.202,-1.2098,-1.2166,-1.2097,-1.2265,-1.241,-1.2471,-1.2509,-1.2525,-1.2681,-1.3147,-1.3511,-1.3511,-1.3511,-1.3382,-1.3052,-1.2666,-1.2252,-1.1831,-1.1627,-1.1452,-1.1352,-1.1452,-1.1494,-1.1377,-1.1477,-1.1619,-1.1843,-1.1834,-1.1834,-1.1834,-1.1859,-1.1819,-1.1753,-1.1753,-1.1778,-1.1803,-1.2324,-1.2435,0.0,0.0,0.0,0.0,0.0,0.0,0.0,0.0,0.0,0.0,0.0,-2.7656,-2.8154,0.0,-2.8318,-2.8444,-2.8677,-2.8637,-2.7974,-2.8372,-2.9099,-3.0238,-3.0308,-2.9897,-2.9173,-2.8556,-2.7955,-2.7316,-2.6988,-2.6498,-2.5827,-2.5816,-2.5704,-2.5458,-2.5458,-2.5571,-2.5743,-2.531,-2.4872,-2.443,-2.4004,-2.3555,-2.3091,-2.3091,-2.3091,-2.3081,-2.2877,-2.2779,-2.273,-2.2097,-2.1231,-2.0235,-2.0235,-2.0264,-2.0215,-2.0,-1.9253,-1.8351,-1.8142,-1.7281,-1.6201,-1.5584,-1.5142,-1.4735,-1.4156,-1.377,-1.3484,-1.3484,-1.3247,-1.2972,-1.2777,-1.2643,-1.2448,-1.2288,-1.2158,-1.2056,-1.2056,-1.2047,-1.2089,-1.2274,-1.2305,-1.2336,-1.2482,-1.2789,-1.2995,-1.2995,-1.2877,-1.2784,-1.2764,-1.2402,-1.2052,-1.1831,-1.155,-1.1368,-1.1301,-1.1352,-1.1368,-1.1301,-1.1352,-1.1427,-1.1502,-1.1502,-1.1502,-1.1502,-1.1578,-1.1603,-1.1603,-1.1678,-1.1703,-1.1703,-1.1852,-1.1852,0.0,0.0,0.0,0.0,0.0,0.0,0.0,-2.7775,-2.7683,-2.7878,-2.7706,-2.775,-2.8534,-2.8234,-2.7997,-2.8378,-2.8099,-2.7658,-2.7259,-2.7416,-2.7568,-2.7568,-2.7836,-2.813,-2.8286,-2.7564,-2.7162,-2.7219,-2.6883,-2.6378,-2.5583,-2.5538,-2.5214,-2.4541,-2.4541,-2.458,-2.4631,-2.4631,-2.4414,-2.3906,-2.3906,-2.3643,-2.3091,-2.3091,-2.3091,-2.3091,-2.3091,-2.2955,-2.2684,-2.2346,-2.1236,-1.972,-1.972,-1.9968,-2.0231,-1.9716,-1.8891,-1.7978,-1.7614,-1.664,-1.5493,-1.4884,-1.4557,-1.4294,-1.3666,-1.3492,-1.3492,-1.3492,-1.3492,-1.3433,-1.317,-1.306,-1.2928,-1.2565,-1.2237,-1.1989,-1.1923,-1.1743,-1.1685,-1.1934,-1.1996,-1.2058,-1.2305,-1.2274,-1.2281,-1.2474,-1.2313,-1.2225,-1.2388,-1.211,-1.185,-1.1724,-1.1464,-1.1302,-1.131,-1.1301,-1.1301,-1.1301,-1.1301,-1.1301,-1.1301,-1.1301,-1.1301,-1.1301,-1.1402,-1.1452,-1.1452,-1.1578,-1.1628,-1.1628,-1.1494,-1.1519,-2.668,-2.5972,-2.6391,-2.8092,-2.8253,-2.8436,0.0,-2.9894,-2.9504,-3.0399,-2.9463,-2.8578,-2.8688,-2.7939,-2.7013,-2.6186,-2.6031,-2.5683,-2.4716,-2.4766,-2.4913,-2.4913,-2.7127,-2.8128,-2.6955,-2.7045,-2.6537,-2.4901,-2.5122,-2.5095,-2.4572,-2.4552,-2.4683,-2.5028,-2.5047,-2.5185,-2.5538,-2.5538,-2.5118,-2.4346,-2.4346,-2.3881,-2.3091,-2.3091,-2.3091,-2.3091,-2.3091,-2.2432,-2.1302,-2.1256,-2.0404,-1.9119,-1.9119,-1.9127,-1.9091,-1.8447,-1.7895,-1.7497,-1.7415,-1.6434,-1.5144,-1.507,-1.4404,-1.3601,-1.3535,-1.3492,-1.3492,-1.3492,-1.3492,-1.3484,-1.3448,-1.3228,-1.2928,-1.2565,-1.2237,-1.1923,-1.1709,-1.1613,-1.1622,-1.1654,-1.1654,-1.1654,-1.1685,-1.1441,-1.1526,-1.2373,-1.2481,-1.2377,-1.2089,-1.2017,-1.1824,-1.1401,-1.1313,-1.1296,-1.1302,-1.1301,-1.1301,-1.1301,-1.1301,-1.1301,-1.1301,-1.1301,-1.1301,-1.1301,-1.1318,-1.1326,-1.1326,-1.1352,-1.1352,-1.1318,-1.0812,-1.0913,-2.7725,-2.7493,-2.7725,-2.8884,-2.901,-2.916,-3.0296,-2.9568,-2.8801,-2.9503,-2.8668,-2.7814,-2.7814,-2.7474,-2.6856,-2.5877,-2.5693,-2.5362,-2.435,-2.439,-2.448,-2.448,-2.5889,-2.6592,-2.6044,-2.6626,-2.6685,-2.5751,-2.5771,-2.5752,-2.5576,-2.5322,-2.5273,-2.5449,-2.5205,-2.5283,-2.5684,-2.5177,-2.4738,-2.4414,-2.417,-2.373,-2.3091,-2.3091,-2.2775,-2.228,-2.228,-2.1647,-2.0589,-2.0589,-1.9787,-1.8578,-1.8578,-1.8149,-1.7561,-1.8113,-1.7726,-1.6974,-1.6761,-1.5864,-1.4744,-1.4744,-1.4336,-1.3814,-1.4004,-1.3968,-1.3821,-1.4042,-1.3923,-1.3777,-1.3777,-1.3536,-1.3258,-1.3126,-1.2694,-1.2251,-1.2153,-1.1855,-1.1591,-1.1591,-1.1591,-1.1591,-1.1591,-1.1481,-1.1522,-1.1911,-1.1821,-1.1783,-1.2019,-1.1848,-1.154,-1.1104,-1.0936,-1.0907,-1.1057,-1.0922,-1.0896,-1.1074,-1.1074,-1.1074,-1.1074,-1.1226,-1.1301,-1.1301,-1.115,-1.1074,-1.1074,-1.0719,-1.0541,-1.0541,-1.0131,-1.0105,-2.8126,-2.8195,-2.831,-2.9263,-2.9596,-2.9736,-2.9942,-2.9201,-2.8449,-2.847,-2.7578,-2.6771,-2.6771,-2.657,-2.6197,-2.5566,-2.5447,-2.5239,-2.4623,-2.4683,-2.4733,-2.4733,-2.5236,-2.5613,-2.5624,-2.6324,-2.6657,-2.6429,-2.6458,-2.6405,-2.6221,-2.6025,-2.581,-2.5693,-2.5303,-2.5225,-2.5547,-2.4795,-2.4414,-2.4414,-2.3984,-2.3623,-2.3266,-2.2876,-2.2325,-2.1695,-2.1418,-2.0737,-1.9824,-1.9824,-1.913,-1.8,-1.8,-1.7401,-1.6647,-1.7698,-1.7399,-1.643,-1.6089,-1.5365,-1.4596,-1.4596,-1.4384,-1.4196,-1.4438,-1.4342,-1.4203,-1.4445,-1.4335,-1.4152,-1.4152,-1.3945,-1.3697,-1.3426,-1.3001,-1.2516,-1.2114,-1.1696,-1.1373,-1.1373,-1.1373,-1.1435,-1.156,-1.1466,-1.1373,-1.1373,-1.1048,-1.1069,-1.1872,-1.1616,-1.1216,-1.0833,-1.0624,-1.0573,-1.0769,-1.0616,-1.0573,-1.0769,-1.0794,-1.0744,-1.0608,-1.0778,-1.0829,-1.0719,-1.0523,-1.0421,-1.0421,-0.9994,-0.978,-0.978,-0.9432,-0.9276,-2.6961,-2.6909,-2.7053,-2.8999,-2.9848,-3.0045,-2.9645,-2.9496,-2.9163,-2.8223,-2.6806,-2.5742,-2.5742,-2.4971,-2.443,-2.4744,-2.4817,-2.4946,-2.5332,-2.5387,-2.5387,-2.5387,-2.5613,-2.5823,-2.5991,-2.6054,-2.6072,-2.5956,-2.6343,-2.6319,-2.5752,-2.6143,-2.6172,-2.5703,-2.5303,-2.5125,-2.5135,-2.4639,-2.4414,-2.4414,-2.3984,-2.3779,-2.3715,-2.238,-2.1739,-2.165,-2.0692,-1.9695,-1.8834,-1.8834,-1.8234,-1.7311,-1.7311,-1.7167,-1.6888,-1.6919,-1.6522,-1.5898,-1.5526,-1.5196,-1.4885,-1.4885,-1.4714,-1.4496,-1.4504,-1.4496,-1.4496,-1.4504,-1.4496,-1.4489,-1.4489,-1.4489,-1.424,-1.325,-1.3009,-1.26,-1.1155,-1.0852,-1.0839,-1.0839,-1.0839,-1.0996,-1.1498,-1.1185,-1.0839,-1.0839,-1.037,-1.0426,-1.149,-1.1249,-1.0895,-1.0538,-1.0493,-1.0496,-1.0522,-1.0496,-1.0496,-1.0522,-1.0522,-1.03,-0.984,-0.984,-0.9651,-0.928,-0.9254,-0.9254,-0.9254,-0.9228,-0.9228,-0.9202,-0.8672,-0.8448,-2.7449,-2.7839,-2.8356,-3.0078,-2.9839,-2.9274,-2.9467,-2.8416,-2.7215,-2.6592,-2.5547,-2.4602,-2.432,-2.4205,-2.4156,-2.3978,-2.4638,-2.5084,-2.467,-2.5074,-2.5271,-2.5014,-2.5549,-2.597,-2.6002,-2.6315,-2.6559,-2.662,-2.6674,-2.6517,-2.6047,-2.6035,-2.569,-2.4804,-2.4832,-2.4841,-2.4821,-2.4396,-2.4229,-2.4358,-2.3052,-2.2398,-2.2354,-2.1248,-2.0376,-1.9741,-1.943,-1.8696,-1.7785,-1.766,-1.7473,-1.7286,-1.7153,-1.7048,-1.6925,-1.6716,-1.6364,-1.6017,-1.5806,-1.5679,-1.5513,-1.5294,-1.5002,-1.4823,-1.5043,-1.4955,-1.4831,-1.5043,-1.4948,-1.4787,-1.4787,-1.4626,-1.4423,-1.4093,-1.3484,-1.2774,-1.1902,-1.1382,-1.0904,-1.0384,-1.0412,-1.0549,-1.0536,-1.0376,-1.0281,-1.0281,-1.0117,-1.0084,-1.0305,-1.0025,-0.9695,-0.9397,-0.9323,-0.9314,-0.9375,-0.9333,-0.9334,-0.9368,-0.938,-0.9302,-0.9138,-0.9313,-0.9332,-0.9202,-0.9026,-0.8928,-0.8928,-0.8527,-0.8343,-0.8316,-0.7963,-0.7809,-2.7702,-2.8066,-2.8485,-2.9827,-2.914,-2.8181,-2.8148,-2.7063,-2.5917,-2.5313,-2.4515,-2.3859,-2.3544,-2.3758,-2.3849,-2.3535,-2.4326,-2.49,-2.467,-2.5093,-2.539,-2.5427,-2.5791,-2.6067,-2.6223,-2.6423,-2.6611,-2.6756,-2.6833,-2.6682,-2.621,-2.6222,-2.5707,-2.4523,-2.4545,-2.4488,-2.4354,-2.3886,-2.3574,-2.3389,-2.2455,-2.1663,-2.1024,-2.0104,-1.9376,-1.8788,-1.8342,-1.7792,-1.7192,-1.6804,-1.6818,-1.7044,-1.6804,-1.6714,-1.6654,-1.6561,-1.6363,-1.6074,-1.582,-1.5784,-1.5726,-1.5491,-1.5243,-1.5119,-1.5323,-1.5202,-1.5037,-1.533,-1.5194,-1.4993,-1.5075,-1.497,-1.4728,-1.4299,-1.362,-1.2784,-1.1819,-1.117,-1.0616,-1.0095,-1.0067,-1.0133,-1.0141,-0.9931,-0.9678,-0.9486,-0.9454,-0.9486,-0.9513,-0.9249,-0.894,-0.8694,-0.8629,-0.8613,-0.8666,-0.8629,-0.8607,-0.8659,-0.8646,-0.8593,-0.8408,-0.8587,-0.8606,-0.8442,-0.827,-0.819,-0.819,-0.7797,-0.761,-0.761,-0.7434,-0.7359,-2.7451,-2.7476,-2.7366,-2.8345,-2.7861,-2.6867,-2.5955,-2.5674,-2.5382,-2.4399,-2.3831,-2.348,-2.3444,-2.3471,-2.3489,-2.3471,-2.3923,-2.4551,-2.5286,-2.5372,-2.5683,-2.6463,-2.6251,-2.6177,-2.6545,-2.6224,-2.6146,-2.634,-2.6766,-2.6698,-2.6112,-2.6546,-2.6187,-2.492,-2.4533,-2.4108,-2.3626,-2.3137,-2.2428,-2.1545,-2.2104,-2.1491,-1.9795,-1.9026,-1.8696,-1.8603,-1.7481,-1.6979,-1.6904,-1.6366,-1.6323,-1.6553,-1.6313,-1.6148,-1.613,-1.6476,-1.6353,-1.6011,-1.5637,-1.5504,-1.5483,-1.5429,-1.5389,-1.5367,-1.5382,-1.5249,-1.511,-1.5298,-1.5215,-1.5131,-1.5305,-1.5347,-1.5066,-1.3937,-1.3345,-1.2587,-1.092,-1.0253,-0.9962,-0.9916,-0.9741,-0.9695,-1.0195,-0.9684,-0.9066,-0.8544,-0.8468,-0.8639,-0.9059,-0.8909,-0.8637,-0.8373,-0.8328,-0.8334,-0.8342,-0.8328,-0.8334,-0.8342,-0.8342,-0.8129,-0.7696,-0.767,-0.7482,-0.7112,-0.7112,-0.7112,-0.7112,-0.7112,-0.7112,-0.7112,-0.7112,-0.7112,-2.5289,-2.5899,-2.6511,-2.7374,-2.6819,-2.6102,-2.6143,-2.5595,-2.488,-2.4316,-2.3831,-2.3306,-2.2702,-2.3087,-2.3398,-2.3105,-2.4455,-2.5414,-2.4986,-2.5488,-2.5938,-2.6149,-2.6076,-2.6177,-2.6545,-2.649,-2.6352,-2.6146,-2.6452,-2.6515,-2.6042,-2.6337,-2.5824,-2.4436,-2.4725,-2.4079,-2.2404,-2.1591,-2.1104,-2.0819,-1.994,-1.9154,-1.8449,-1.7544,-1.7138,-1.7138,-1.6824,-1.6683,-1.6676,-1.6324,-1.6331,-1.6574,-1.6317,-1.6195,-1.6162,-1.6285,-1.6116,-1.5846,-1.5709,-1.5652,-1.5629,-1.549,-1.516,-1.4864,-1.5101,-1.4966,-1.4741,-1.4844,-1.4824,-1.4824,-1.4866,-1.4866,-1.458,-1.3507,-1.2785,-1.1929,-1.0287,-0.9619,-0.9267,-0.8997,-0.8919,-0.875,-0.8443,-0.8472,-0.845,-0.8175,-0.8228,-0.8258,-0.816,-0.8094,-0.7892,-0.748,-0.7576,-0.7583,-0.7446,-0.7582,-0.7583,-0.7446,-0.7434,-0.7375,-0.7273,-0.7246,-0.7192,-0.7112,-0.7112,-0.7112,-0.7112,-0.7112,-0.7112,-0.7112,-0.7112,-0.7112,-2.4961,-2.5412,-2.5728,-2.6168,-2.5682,-2.503,-2.5077,-2.4613,-2.4125,-2.3712,-2.3299,-2.2821,-2.2364,-2.2803,-2.316,-2.295,-2.4051,-2.4867,-2.4794,-2.5056,-2.535,-2.5708,-2.5754,-2.5911,-2.627,-2.637,-2.6342,-2.6296,-2.6454,-2.6334,-2.5791,-2.6026,-2.5533,-2.3932,-2.4245,-2.3492,-2.1635,-2.0787,-2.0103,-1.9618,-1.8793,-1.7998,-1.7217,-1.677,-1.6588,-1.6581,-1.6494,-1.6407,-1.6393,-1.6027,-1.6001,-1.6237,-1.5933,-1.5913,-1.6028,-1.6028,-1.5846,-1.5631,-1.5738,-1.5497,-1.5177,-1.5345,-1.4958,-1.4483,-1.4701,-1.445,-1.4158,-1.4293,-1.4253,-1.424,-1.4461,-1.4234,-1.3698,-1.2926,-1.201,-1.098,-0.9786,-0.92,-0.8827,-0.8553,-0.8509,-0.8369,-0.7908,-0.8157,-0.8289,-0.7931,-0.8218,-0.8307,-0.7787,-0.7776,-0.7655,-0.7284,-0.7342,-0.7326,-0.7106,-0.7209,-0.723,-0.7117,-0.7112,-0.7112,-0.7112,-0.7112,-0.7112,-0.7112,-0.7112,-0.7112,-0.7112,-0.7112,-0.7112,-0.7112,-0.7112,-0.7112,-2.5148,-2.5096,-2.484,-2.4887,-2.4552,-2.411,-2.3703,-2.3535,-2.338,-2.2986,-2.2574,-2.2263,-2.2208,-2.2538,-2.2858,-2.2968,-2.3316,-2.3914,-2.4748,-2.4597,-2.4652,-2.5414,-2.5506,-2.5663,-2.6058,-2.6094,-2.6223,-2.6481,-2.6554,-2.6279,-2.5626,-2.581,-2.5137,-2.3423,-2.3026,-2.2232,-2.0975,-2.0014,-1.9043,-1.8112,-1.8071,-1.7395,-1.617,-1.64,-1.6487,-1.6494,-1.6265,-1.617,-1.6103,-1.5651,-1.5605,-1.5758,-1.5551,-1.5611,-1.5784,-1.5784,-1.5671,-1.5491,-1.5745,-1.5277,-1.4613,-1.5043,-1.4713,-1.4175,-1.4175,-1.3839,-1.3487,-1.3738,-1.3655,-1.3579,-1.3926,-1.3477,-1.2729,-1.2091,-1.1036,-0.9978,-0.9275,-0.887,-0.8575,-0.837,-0.8351,-0.8263,-0.7941,-0.8229,-0.8293,-0.7708,-0.8321,-0.8534,-0.7691,-0.769,-0.7688,-0.7421,-0.7366,-0.727,-0.7101,-0.7112,-0.7112,-0.7112,-0.7112,-0.7112,-0.7112,-0.7112,-0.7112,-0.7112,-0.7112,-0.7112,-0.7112,-0.7112,-0.7112,-0.7112,-0.7112,-0.7112,-2.2944,-2.3312,-2.348,-2.3721,-2.3996,-2.4183,-2.411,-2.3785,-2.338,-2.2986,-2.2574,-2.2181,-2.1851,-2.2117,-2.2611,-2.3279,-2.3785,-2.4385,-2.5203,-2.5258,-2.5387,-2.5855,-2.5911,-2.6076,-2.6435,-2.6481,-2.6362,-2.614,-2.6389,-2.6527,-2.6389,-2.5855,-2.4612,-2.2709,-2.0481,-1.9247,-1.9217,-1.771,-1.6828,-1.6682,-1.6627,-1.6354,-1.5879,-1.5927,-1.5927,-1.5927,-1.5879,-1.5879,-1.5872,-1.5772,-1.5785,-1.5778,-1.5724,-1.5738,-1.5784,-1.5784,-1.5751,-1.5758,-1.5764,-1.5418,-1.4939,-1.4959,-1.4372,-1.3657,-1.3657,-1.3365,-1.3104,-1.329,-1.346,-1.3452,-1.2795,-1.2678,-1.2307,-1.0543,-0.9848,-0.933,-0.8414,-0.8365,-0.8326,-0.7985,-0.8047,-0.7992,-0.7425,-0.7608,-0.774,-0.7349,-0.7913,-0.8196,-0.76,-0.7577,-0.7567,-0.7414,-0.7162,-0.7007,-0.7106,-0.7112,-0.7112,-0.7112,-0.7112,-0.7112,-0.7112,-0.7112,-0.7112,-0.7112,-0.7112,-0.7112,-0.7112,-0.7112,-0.7112,-0.7112,-0.7112,-0.7112,-2.238,-2.2726,-2.3044,-2.314,-2.3489,-2.3785,-2.3574,-2.3208,-2.2748,-2.2355,-2.2117,-2.1916,-2.1733,-2.2016,-2.2474,-2.3087,-2.3526,-2.4051,-2.4707,-2.4973,-2.5133,-2.5378,-2.558,-2.5865,-2.6278,-2.6261,-2.627,-2.6289,-2.6324,-2.614,-2.5674,-2.42,-2.2615,-2.0964,-1.8893,-1.7989,-1.8262,-1.6787,-1.6119,-1.6321,-1.6119,-1.5965,-1.5784,-1.5784,-1.5784,-1.5784,-1.5784,-1.5784,-1.5784,-1.5784,-1.5784,-1.5784,-1.5784,-1.5784,-1.5784,-1.5784,-1.5684,-1.5625,-1.5724,-1.5451,-1.4961,-1.4754,-1.4154,-1.3514,-1.3398,-1.3211,-1.3096,-1.3012,-1.3066,-1.3015,-1.2233,-1.1776,-1.12,-1.0003,-0.9174,-0.8515,-0.802,-0.8044,-0.8074,-0.7729,-0.7822,-0.7806,-0.7429,-0.7656,-0.7714,-0.7192,-0.7725,-0.7962,-0.7273,-0.7219,-0.7232,-0.725,-0.6993,-0.6832,-0.6789,-0.6686,-0.6642,-0.6642,-0.6642,-0.6642,-0.6642,-0.681,-0.6891,-0.6891,-0.7031,-0.7112,-0.7112,-0.695,-0.6891,-0.6891,-0.6701,-0.6507,-2.2373,-2.2648,-2.3014,-2.2931,-2.3197,-2.3389,-2.2995,-2.2584,-2.2172,-2.1769,-2.1696,-2.1696,-2.1696,-2.1943,-2.2318,-2.2821,-2.3087,-2.3483,-2.4119,-2.4569,-2.4812,-2.4904,-2.5335,-2.581,-2.6122,-2.6149,-2.6197,-2.6435,-2.6039,-2.5347,-2.437,-2.2498,-2.08,-1.9303,-1.7949,-1.7428,-1.7679,-1.6484,-1.6039,-1.6321,-1.5972,-1.5784,-1.5784,-1.5784,-1.5784,-1.5784,-1.5784,-1.5784,-1.5784,-1.5784,-1.5784,-1.5784,-1.5784,-1.5784,-1.5784,-1.5784,-1.5685,-1.5524,-1.5752,-1.5491,-1.4997,-1.4636,-1.4079,-1.354,-1.322,-1.3066,-1.2966,-1.2757,-1.2737,-1.26,-1.169,-1.0929,-1.0268,-0.9469,-0.8624,-0.7975,-0.7882,-0.7918,-0.7931,-0.765,-0.7726,-0.7739,-0.7555,-0.7757,-0.7757,-0.713,-0.7579,-0.7708,-0.6956,-0.6874,-0.6917,-0.6953,-0.6842,-0.668,-0.6525,-0.6389,-0.628,-0.6213,-0.6251,-0.6256,-0.6209,-0.6458,-0.6593,-0.6593,-0.681,-0.6917,-0.6969,-0.6746,-0.6694,-0.6711,-0.6457,-0.6151,-2.2547,-2.2849,-2.3352,-2.2995,-2.3197,-2.3389,-2.2995,-2.2584,-2.2172,-2.1769,-2.1696,-2.1696,-2.1696,-2.1723,-2.1998,-2.2785,-2.2611,-2.2841,-2.4036,-2.4569,-2.4913,-2.5271,-2.6004,-2.649,-2.6527,-2.6527,-2.6389,-2.6094,-2.5317,-2.4278,-2.2805,-2.1965,-2.0632,-1.8737,-1.7747,-1.7245,-1.7272,-1.6612,-1.6246,-1.6321,-1.5972,-1.5784,-1.5784,-1.5784,-1.5784,-1.5784,-1.5784,-1.5784,-1.5784,-1.5784,-1.5784,-1.5784,-1.5784,-1.5784,-1.5784,-1.5784,-1.5764,-1.5792,-1.5771,-1.5618,-1.5264,-1.4703,-1.4079,-1.3493,-1.2998,-1.2636,-1.2378,-1.2351,-1.2576,-1.2401,-1.0757,-1.0449,-1.016,-0.8399,-0.7996,-0.8008,-0.7996,-0.8004,-0.8004,-0.7971,-0.7854,-0.7739,-0.7555,-0.7522,-0.7457,-0.7228,-0.7383,-0.7346,-0.6799,-0.6827,-0.6773,-0.6494,-0.6549,-0.6594,-0.6506,-0.6661,-0.66,-0.6232,-0.6365,-0.6384,-0.6213,-0.6236,-0.6236,-0.6236,-0.6263,-0.6358,-0.6559,-0.653,-0.6601,-0.6795,-0.6765,-0.6735,-2.2354,-2.2876,-2.3453,-2.3297,-2.3197,-2.3096,-2.295,-2.24,-2.1879,-2.1723,-2.1696,-2.1696,-2.1696,-2.1696,-2.1797,-2.2126,-2.2236,-2.2502,-2.2988,-2.3831,-2.4606,-2.4968,-2.5773,-2.6269,-2.6269,-2.6269,-2.594,-2.535,-2.4959,-2.3874,-2.1674,-2.1068,-1.9786,-1.7543,-1.6957,-1.6677,-1.6677,-1.6213,-1.6005,-1.6005,-1.5838,-1.5784,-1.5784,-1.5784,-1.5784,-1.5784,-1.5784,-1.5784,-1.5784,-1.5784,-1.5784,-1.5784,-1.5784,-1.5784,-1.5784,-1.5784,-1.5784,-1.5784,-1.5784,-1.5752,-1.5591,-1.5177,-1.477,-1.4329,-1.3775,-1.3507,-1.334,-1.316,-1.2577,-1.1735,-1.0534,-0.9637,-0.8878,-0.823,-0.8044,-0.7983,-0.7882,-0.7943,-0.7951,-0.7736,-0.7767,-0.7739,-0.7555,-0.7484,-0.7387,-0.7106,-0.7144,-0.7026,-0.6566,-0.6564,-0.6552,-0.642,-0.6382,-0.6337,-0.6311,-0.6267,-0.6181,-0.6026,-0.6091,-0.6099,-0.6017,-0.61,-0.6181,-0.6274,-0.6327,-0.6478,-0.6694,-0.6488,-0.641,-0.6491,-0.6341,-0.594,-2.23,-2.2876,-2.3499,-2.3499,-2.3197,-2.2904,-2.2904,-2.2282,-2.1696,-2.1696,-2.1696,-2.1696,-2.1696,-2.1696,-2.1696,0.0,0.0,-2.2144,-2.2263,-2.318,-2.395,-2.4372,-2.5065,-2.5525,-2.5653,-2.5663,-2.5433,-2.4821,-2.4666,-2.3538,-2.1054,-2.0697,-1.9401,-1.6948,-1.664,-1.6543,-1.64,-1.6112,-1.5959,-1.5959,-1.5872,-1.5784,-1.5784,-1.5784,-1.5784,-1.5784,-1.5784,-1.5784,-1.5771,-1.5684,-1.5752,-1.5771,-1.5684,-1.5752,-1.5784,-1.5784,-1.5784,-1.5784,-1.5784,-1.5784,-1.5785,-1.5491,-1.5317,-1.511,-1.4522,-1.4229,-1.4021,-1.3686,-1.2462,-1.0997,-0.9997,-0.8873,-0.7955,-0.8032,-0.7951,-0.7837,-0.7816,-0.7854,-0.7866,-0.7653,-0.771,-0.7739,-0.7555,-0.7484,-0.7437,-0.7184,-0.7102,-0.6944,-0.6658,-0.6566,-0.6501,-0.6501,-0.6335,-0.6237,-0.6211,-0.6114,-0.6002,-0.5896,-0.5967,-0.5971,-0.5892,-0.6003,-0.6079,-0.6186,-0.626,-0.6434,-0.6637,-0.6389,-0.6297,-0.6321,-0.598,-0.5258,-2.2547,-2.2876,-2.3499,-2.3499,-2.3197,-2.2904,-2.2904,-2.2282,-2.1696,-2.1696,-2.1696,-2.1696,-2.1696,-2.1696,-2.1696,-2.1696,-2.1696,-2.1833,-2.2227,-2.2648,-2.3068,-2.3462,-2.3923,-2.4385,-2.4757,-2.4794,-2.4794,-2.4785,-2.444,-2.3238,-2.1038,-2.0877,-1.9749,-1.7257,-1.7192,-1.7052,-1.6707,-1.6413,-1.6266,-1.6315,-1.5972,-1.5784,-1.5784,-1.5784,-1.5784,-1.5784,-1.5784,-1.5784,-1.5758,-1.5518,-1.5571,-1.5751,-1.5511,-1.5578,-1.5784,-1.5784,-1.5784,-1.5784,-1.5784,-1.5784,-1.5785,-1.5491,-1.5585,-1.5712,-1.513,-1.4593,-1.4021,-1.3686,-1.2148,-1.0338,-0.9038,-0.8247,-0.7755,-0.7571,-0.7488,-0.7575,-0.7763,-0.7804,-0.7804,-0.7796,-0.7796,-0.7739,-0.7555,-0.7484,-0.748,-0.748,-0.7334,-0.7183,-0.7179,-0.6911,-0.6692,-0.6692,-0.6526,-0.6343,-0.6223,-0.631,-0.6262,-0.5908,-0.6082,-0.6098,-0.5896,-0.5888,-0.5918,-0.5918,-0.5918,-0.6,-0.6207,-0.6207,-0.6269,-0.6379,-0.5844,-0.5017,-2.2473,-2.2675,-2.3096,-2.3096,-2.2785,-2.2474,-2.2474,-2.2071,-2.1696,-2.1696,-2.1696,-2.1696,-2.1696,-2.1696,-2.1696,-2.1696,-2.1696,-2.1733,-2.1861,-2.2474,-2.305,-2.3444,-2.4161,-2.4638,-2.4776,-2.4569,-2.4404,-2.4404,-2.4275,-2.3229,-2.1038,-2.0885,-1.9855,-1.7553,-1.7054,-1.68,-1.6707,-1.6219,-1.5972,-1.5972,-1.5872,-1.5784,-1.5784,-1.5784,-1.5784,-1.5784,-1.5784,-1.5784,-1.5758,-1.5518,-1.5565,-1.5751,-1.5504,-1.5571,-1.5784,-1.5784,-1.5784,-1.5784,-1.5784,-1.5784,-1.5764,-1.5718,-1.5752,-1.5792,-1.5611,-1.5003,-1.3972,-1.2081,-1.0546,-0.9299,-0.844,-0.7905,-0.7657,-0.7801,-0.7756,-0.7759,-0.7894,-0.7882,-0.78,-0.78,-0.7698,-0.7592,-0.7492,-0.7484,-0.7443,-0.7326,-0.7223,-0.7179,-0.7094,-0.6975,-0.6857,-0.6731,-0.6639,-0.6534,-0.6347,-0.6384,-0.6371,-0.6258,-0.6302,-0.6306,-0.6254,-0.6163,-0.6155,-0.625,-0.6159,-0.6184,-0.6331,-0.5969,-0.5632,-0.5282,-0.4755,-0.4325,-2.2526,-2.2474,-2.2712,-2.2867,-2.2593,-2.2282,-2.2282,-2.197,-2.1696,-2.1696,-2.1696,-2.1696,-2.1696,-2.1696,-2.1696,-2.1696,-2.1696,-2.1742,-2.1897,-2.2346,-2.2821,-2.3224,-2.3914,-2.4317,-2.4317,-2.4216,-2.4202,-2.4202,-2.4202,-2.3167,-2.0846,-2.0686,-1.9658,-1.7358,-1.6894,-1.66,-1.638,-1.6012,-1.5784,-1.5784,-1.5784,-1.5784,-1.5784,-1.5784,-1.5784,-1.5784,-1.5784,-1.5784,0.0,-1.5518,-1.5565,-1.5751,-1.5504,-1.5571,-1.5784,-1.5784,-1.5784,-1.5784,-1.5784,-1.5784,-1.5784,-1.5784,-1.5678,-1.5504,-1.5504,-1.489,-1.3724,-1.1556,-1.0156,-0.9128,-0.8183,-0.7801,-0.7724,-0.7878,-0.7824,-0.7743,-0.7878,-0.7873,-0.78,-0.78,-0.7759,-0.7663,-0.7637,-0.7624,-0.7529,-0.735,-0.7322,-0.7281,-0.7204,-0.7135,-0.7009,-0.6895,-0.6826,-0.6745,-0.6631,-0.6558,-0.655,-0.6615,-0.6558,-0.6522,-0.6522,-0.6347,-0.6302,-0.6383,-0.6306,-0.6205,-0.6083,-0.555,-0.5043,-0.4557,-0.418,-0.3894,0.0,-2.2282,-2.2327,-2.2721,-2.2519,-2.2282,-2.2282,-2.1952,0.0,-2.1696,-2.1696,-2.1696,-2.1696,-2.1696,-2.1696,-2.1696,-2.1696,-2.1824,-2.2227,-2.2281,-2.2464,-2.2904,-2.3297,-2.3526,-2.3499,-2.3914,-2.4202,-2.4202,-2.4202,-2.3111,-2.0526,-2.0403,-1.9242,-1.673,-1.6673,-1.6413,-1.5818,-1.5791,-1.5784,-1.5784,-1.5784,-1.5784,-1.5784,-1.5784,-1.5784,-1.5784,-1.5784,-1.5784,-1.5758,-1.5518,-1.5565,-1.5751,-1.5504,-1.5571,-1.5784,-1.5784,-1.5784,-1.5784,-1.5784,-1.5784,-1.5778,-1.5758,-1.5418,-1.5008,-1.4981,-1.4231,-1.3153,-1.1831,-1.0659,-0.949,-0.8171,-0.7906,-0.7975,-0.7873,-0.7706,-0.7629,-0.7816,-0.7849,-0.7837,-0.7837,-0.7914,-0.7963,-0.7845,-0.7808,-0.7743,-0.7545,-0.75,-0.7488,-0.7539,-0.7354,-0.7203,-0.7191,-0.7074,-0.7008,-0.7008,-0.6849,-0.6816,-0.698,-0.6837,-0.6708,-0.6696,-0.653,-0.6432,-0.6387,-0.635,-0.605,-0.5484,-0.4981,-0.4521,-0.4127,-0.4014,-0.3699,-2.2323,0.0,-2.1851,-2.1952,-2.1906,-2.1833,0.0,-2.176,-2.1696,-2.1696,-2.1696,-2.1696,-2.1696,-2.1696,-2.1696,-2.1696,-2.1696,-2.1779,-2.1989,-2.2342,-2.2811,-2.3295,-2.3563,-2.369,-2.3517,-2.3914,-2.4202,-2.4202,-2.4202,-2.3111,-2.0526,-2.0403,-1.9186,-1.6491,-1.6373,-1.6306,-1.6166,-1.5945,-1.5784,-1.5784,-1.5784,-1.5784,-1.5784,-1.5784,-1.5784,-1.5784,-1.5784,-1.5784,-1.5758,-1.5518,-1.5565,-1.5751,-1.5504,-1.5571,-1.5784,-1.5784,-1.5784,-1.5784,-1.5784,-1.5784,-1.5792,-1.5571,-1.5257,-1.4968,-1.4696,-1.3311,-1.1772,-1.144,-1.0043,-0.8619,-0.8283,-0.8089,-0.804,-0.8142,-0.8134,-0.8154,-0.838,-0.8306,-0.8166,-0.8166,-0.8085,-0.8,-0.7959,-0.7886,-0.7829,-0.7874,-0.7659,-0.7571,-0.7718,-0.7537,-0.737,-0.7203,-0.7188,-0.7159,-0.7159,-0.7033,-0.6947,-0.6988,-0.6951,-0.6869,-0.67,-0.6652,-0.6562,-0.6387,-0.5984,-0.5319,-0.4392,-0.4259,-0.3982,-0.3572,-0.3438,-0.3366,-2.2843,-2.2033,-2.1696,-2.1696,-2.1696,-2.1696,-2.1696,-2.1696,-2.1696,-2.1696,-2.1696,-2.1651,-2.1562,-2.1562,-2.1517,-2.141,-2.1365,-2.1509,-2.1906,-2.2351,-2.2799,-2.3278,-2.3535,-2.3663,-2.3626,-2.3974,-2.4202,-2.4202,-2.3978,-2.2993,-2.1022,-2.0297,-1.8954,-1.6847,-1.6306,-1.6072,-1.6072,-1.5912,-1.5784,-1.5784,-1.5784,-1.5784,-1.5784,-1.5784,-1.5784,-1.5784,-1.5784,-1.5784,-1.5771,-1.5658,-1.5691,-1.5764,-1.5658,-1.5691,-1.5784,-1.5784,-1.5784,-1.5784,-1.5784,-1.5784,-1.5758,-1.5645,-1.5311,-1.5001,-1.493,-1.3276,-1.1413,-1.1311,-0.9909,-0.8398,-0.8312,-0.8215,-0.8166,-0.8268,-0.8223,-0.8215,-0.8402,-0.8361,-0.8292,-0.8292,-0.8276,-0.8239,-0.8154,-0.8065,-0.8004,-0.8012,-0.778,-0.7686,-0.7788,-0.7637,-0.7447,-0.7354,-0.7342,-0.7308,-0.7195,-0.7219,-0.7233,-0.7233,-0.7159,-0.7037,-0.6944,-0.6781,-0.6505,-0.6053,-0.5514,-0.4852,-0.4107,-0.3785,-0.3442,-0.3114,-0.3167,-0.3151,-2.34,-2.229,-2.1696,-2.1696,-2.1696,-2.1696,-2.1696,-2.1696,-2.1696,-2.1696,-2.1696,-2.1651,-2.1446,-2.1392,-2.1293,-2.1042,-2.1049,-2.1362,-2.2003,-2.2398,-2.2691,-2.3018,-2.3253,-2.3505,-2.3628,-2.3854,-2.4038,-2.4143,-2.3727,-2.2949,-2.1682,-2.0243,-1.8855,-1.746,-1.6366,-1.5784,-1.5784,-1.5784,-1.5784,-1.5784,-1.5784,-1.5784,-1.5784,-1.5784,-1.5784,-1.5784,-1.5784,-1.5784,-1.5784,-1.5784,-1.5784,-1.5784,-1.5784,-1.5784,-1.5784,-1.5784,-1.5784,-1.5784,-1.5784,-1.5751,-1.5711,-1.5712,-1.5337,-1.4988,-1.519,-1.3537,-1.1584,-1.1429,-1.0061,-0.8568,-0.841,-0.8353,-0.8333,-0.8333,-0.8211,-0.8142,-0.83,-0.8333,-0.8333,-0.8333,-0.8459,-0.8472,-0.8314,-0.8223,-0.8159,-0.7988,-0.7845,-0.7729,-0.7757,-0.7576,-0.7447,-0.7447,-0.7419,-0.733,-0.718,-0.7292,-0.7407,-0.7407,-0.7308,-0.7178,-0.6964,-0.6667,-0.6101,-0.5286,-0.4827,-0.4403,-0.3966,-0.3398,-0.2999,-0.2729,-0.2961,-0.2902,-2.2422,-2.182,-2.1696,-2.1696,-2.1696,-2.1696,-2.1696,-2.1696,-2.1696,-2.1696,-2.1696,-2.1651,-2.1446,-2.1392,-2.1293,-2.1042,-2.1371,-2.1895,-2.2531,-2.2577,-2.2618,-2.2748,-2.2955,-2.3003,-2.2877,-2.3094,-2.3434,-2.3827,-2.363,-2.3066,-2.2054,-2.0678,-1.9261,-1.7831,-1.6524,-1.5784,-1.5784,-1.5784,-1.5784,-1.5784,-1.5784,-1.5784,-1.5784,-1.5784,-1.5784,-1.5784,-1.5784,-1.5784,-1.5784,-1.5784,-1.5784,-1.5784,-1.5784,-1.5784,-1.5784,-1.5784,-1.5784,-1.5784,-1.5784,-1.5665,-1.5424,-1.5223,-1.4863,-1.4596,-1.4643,-1.3201,-1.1654,-1.186,-1.0379,-0.8775,-0.8747,-0.8633,-0.8567,-0.8567,-0.8547,-0.8535,-0.8563,-0.8567,-0.8567,-0.8567,-0.8408,-0.8237,-0.8209,-0.7955,-0.7768,-0.789,-0.7605,-0.7458,-0.7594,-0.7345,-0.7156,-0.7156,-0.7064,-0.698,-0.6942,-0.698,-0.6976,-0.6976,-0.7264,-0.6992,-0.599,-0.5732,-0.5042,-0.385,-0.3731,-0.346,-0.2939,-0.2827,-0.2625,-0.2382,-0.2351,-0.2343,-2.2853,-2.2457,-2.2325,-2.182,-2.1696,-2.1696,-2.1696,-2.1696,-2.1696,-2.1696,-2.1607,-2.1545,-2.1526,-2.1389,-2.1338,-2.1517,-2.1739,-2.2103,-2.2731,-2.2435,-2.2316,-2.2766,-2.2807,-2.2848,-2.2883,-2.2895,-2.3046,-2.3225,-2.2766,-2.2369,-2.2067,-2.0703,-1.9483,-1.8434,-1.7203,-1.6346,-1.5832,-1.5784,-1.5784,-1.5784,-1.5784,-1.5784,-1.5784,-1.5784,-1.5784,-1.5784,-1.5784,-1.5784,-1.5784,-1.5784,-1.5784,-1.5784,-1.5784,-1.5784,-1.5784,-1.5784,-1.5784,-1.5784,-1.5784,-1.5745,-1.5611,-1.5478,-1.5124,-1.4728,-1.4494,-1.3173,-1.1732,-1.1451,-1.0127,-0.882,-0.882,-0.8694,-0.8564,-0.8428,-0.8476,-0.8564,-0.8428,-0.852,-0.8564,-0.8428,-0.8292,-0.8157,-0.8072,-0.7876,-0.7806,-0.7889,-0.7647,-0.7475,-0.7591,-0.7316,-0.7114,-0.7114,-0.6962,-0.6865,-0.6753,-0.6826,-0.6903,-0.6903,-0.663,-0.6173,-0.5576,-0.5003,-0.4232,-0.325,-0.3243,-0.2963,-0.242,-0.242,-0.2286,-0.1963,-0.2115,-0.2132,-2.3018,-2.2755,-2.2589,-2.1856,-2.1696,-2.1696,-2.1696,-2.1651,-2.1634,-2.1725,-2.1572,-2.1445,-2.1501,-2.1284,-2.1268,-2.1796,-2.1936,-2.2182,-2.2761,-2.2342,-2.2088,-2.2383,-2.2309,-2.2229,-2.2381,-2.2261,-2.2289,-2.254,-2.2032,-2.1881,-2.2113,-2.06,-1.9461,-1.8953,-1.7636,-1.6581,-1.5832,-1.5784,-1.5784,-1.5784,-1.5784,-1.5784,-1.5784,-1.5784,-1.5784,-1.5784,-1.5784,-1.5784,-1.5784,-1.5784,-1.5784,-1.5784,-1.5784,-1.5784,-1.5784,-1.5784,-1.5784,-1.5784,-1.5784,-1.5784,-1.5771,-1.5752,-1.5384,-1.4908,-1.4312,-1.3071,-1.1748,-1.0989,-0.9786,-0.8782,-0.8787,-0.8694,-0.852,-0.8245,-0.8336,-0.8428,-0.8201,-0.8296,-0.8384,-0.8157,-0.8069,-0.7984,-0.7856,-0.7764,-0.772,-0.772,-0.7567,-0.7486,-0.7486,-0.7242,-0.7067,-0.7067,-0.6922,-0.677,-0.6581,-0.6493,-0.6437,-0.6437,-0.5931,-0.5458,-0.5092,-0.4265,-0.344,-0.2707,-0.2707,-0.2493,-0.2073,-0.206,-0.187,-0.1561,-0.1812,-0.1827,-2.2078,-2.1776,-2.1776,-2.1741,-2.1696,-2.1696,-2.1696,-2.1571,-2.1491,-2.1843,-2.174,-2.1518,-2.1276,-2.106,-2.1049,-2.1388,-2.1756,-2.2133,-2.2542,-2.2601,-2.2173,-2.114,-2.0835,-2.0634,-2.0508,-2.0467,-2.0885,-2.1783,-2.2064,-2.2274,-2.2557,-2.0317,-1.917,-1.9359,-1.7087,-1.5872,-1.5784,-1.5784,-1.5784,-1.5784,-1.5784,-1.5784,-1.5784,-1.5784,-1.5784,-1.5784,-1.5784,-1.5784,-1.5784,-1.5784,-1.5784,-1.5784,-1.5784,-1.5784,-1.5784,-1.5784,-1.5784,-1.5784,-1.5784,-1.5784,-1.5738,-1.5518,-1.5217,-1.4829,-1.3907,-1.2837,-1.1666,-1.0621,-0.9541,-0.8699,-0.877,-0.8694,-0.852,-0.8245,-0.8201,-0.8157,-0.7984,-0.7944,-0.7944,-0.794,-0.7724,-0.7551,-0.7551,-0.7323,-0.7139,-0.7139,-0.7132,-0.7122,-0.7122,-0.699,-0.6895,-0.6895,-0.6801,-0.6651,-0.6508,-0.5651,-0.5121,-0.5126,-0.5428,-0.519,-0.4251,-0.3358,-0.2563,-0.1808,-0.1796,-0.1785,-0.1747,-0.1668,-0.1481,-0.1147,-0.1175,-0.1205,-2.1776,-2.1607,-2.1517,-2.1651,-2.1454,-2.132,-2.1472,-2.1437,-2.1383,-2.1328,-2.1331,-2.1354,-2.1346,-2.183,-2.2235,-2.2182,-2.1879,-2.1827,-2.2171,-2.1075,-2.0183,-1.9973,-1.9664,-1.9416,-1.9366,-1.9337,-1.9453,-1.985,-1.9711,-1.9685,-1.9805,-1.8947,-1.816,-1.7613,-1.6697,-1.6048,-1.5635,-1.5588,-1.5683,-1.5784,-1.5784,-1.5784,-1.5784,-1.5784,-1.5784,-1.5784,-1.5784,-1.5784,-1.5784,-1.5784,-1.5784,-1.5784,-1.5784,-1.5784,-1.5784,-1.5784,-1.5784,-1.5784,-1.5784,-1.5712,-1.5538,-1.5431,-1.5077,-1.4451,-1.3028,-1.2164,-1.1339,-0.9773,-0.8893,-0.8439,-0.8371,-0.8247,-0.8076,-0.7808,-0.7896,-0.794,-0.7724,-0.7768,-0.7856,-0.768,-0.7547,-0.7459,-0.7279,-0.7187,-0.7095,-0.7095,-0.7095,-0.7095,-0.7095,-0.6974,-0.6886,-0.6886,-0.6709,-0.6366,-0.582,-0.5306,-0.4791,-0.4286,-0.3907,-0.3535,-0.3136,-0.2292,-0.1729,-0.1402,-0.1375,-0.1387,-0.14,-0.1352,-0.1285,-0.116,-0.1153,-0.1166,-2.1495,-2.1415,-2.1327,-2.1415,-2.1275,-2.115,-2.1159,-2.1159,-2.1185,-2.1225,-2.1258,-2.1337,-2.1573,-2.1827,-2.2021,-2.1879,-2.1285,-2.082,-2.0989,-1.9828,-1.8891,-1.8699,-1.8475,-1.8296,-1.8245,-1.8238,-1.8296,-1.8498,-1.8389,-1.8284,-1.8245,-1.794,-1.7394,-1.6646,-1.6361,-1.5953,-1.5493,-1.5493,-1.5588,-1.5784,-1.5784,-1.5784,-1.5784,-1.5784,-1.5784,-1.5784,-1.5784,-1.5784,-1.5784,-1.5784,-1.5784,-1.5784,-1.5784,-1.5784,-1.5784,-1.5784,-1.5784,-1.5778,-1.573,-1.5544,-1.5305,-1.5299,-1.4862,-1.4062,-1.235,-1.1631,-1.099,-0.888,-0.8221,-0.8086,-0.7838,-0.7849,-0.7812,-0.7547,-0.7635,-0.768,-0.7415,-0.7499,-0.7588,-0.7415,-0.737,-0.7323,-0.7143,-0.7095,-0.7095,-0.7095,-0.7095,-0.7095,-0.7095,-0.7011,-0.6953,-0.6953,-0.6766,-0.628,-0.5446,-0.4965,-0.4362,-0.3479,-0.2647,-0.2274,-0.254,-0.1734,-0.1286,-0.1226,-0.1217,-0.1202,-0.1217,-0.1208,-0.1214,-0.1197,-0.1186,-0.1192,-2.1117,-2.1108,-2.1074,-2.0866,-2.1094,-2.1257,-2.0789,-2.0699,-2.0918,-2.163,-2.1596,-2.1525,-2.1919,-2.0777,-1.9914,-2.0213,-1.9681,-1.9118,-1.8854,-1.903,-1.869,-1.7353,-1.7172,-1.7121,-1.7025,-1.7121,-1.7452,-1.8009,-1.8469,-1.8606,-1.8481,-1.7527,-1.6936,-1.6863,-1.596,-1.5502,-1.5499,-1.5493,-1.5588,-1.5784,-1.5784,-1.5784,-1.5784,-1.5784,-1.5784,-1.5784,-1.5784,-1.5784,-1.5784,-1.5784,-1.5784,-1.5784,-1.5784,-1.5784,-1.5784,-1.5784,-1.5784,-1.5784,-1.5588,-1.5303,-1.5068,-1.5008,-1.4624,-1.3849,-1.1965,-1.13,-1.0682,-0.8207,-0.7662,-0.7695,-0.7224,-0.7499,-0.7812,-0.7547,-0.7507,-0.7415,-0.7143,-0.7095,-0.7095,-0.7095,-0.7095,-0.7095,-0.7095,-0.7095,-0.7095,-0.7095,-0.7095,-0.7095,-0.7095,-0.7095,-0.7095,-0.7095,-0.697,-0.6494,-0.5583,-0.4635,-0.3651,-0.2649,-0.1767,-0.1707,-0.2556,-0.1748,-0.1296,-0.1296,-0.1228,-0.1212,-0.1212,-0.1219,-0.1203,-0.1205,-0.1198,-0.1212,-2.1504,-2.1206,-2.0929,-2.1184,-2.0873,-2.0509,-2.0683,-2.0699,-2.0802,-2.1121,-2.1084,-2.0882,-2.0261,-1.9991,-1.9673,-1.8996,-1.8275,-1.7812,-1.7943,-1.7185,-1.6458,-1.607,-1.6006,-1.6006,-1.5954,-1.6006,-1.6154,-1.6521,-1.6477,-1.6427,-1.6394,-1.6087,-1.5858,-1.5626,-1.5196,-1.5017,-1.5217,-1.5021,-1.5166,-1.5588,-1.5588,-1.5642,-1.5784,-1.5784,-1.5784,-1.5784,-1.5784,-1.5784,-1.5784,-1.5784,-1.5784,-1.5784,-1.5784,-1.5784,-1.5784,-1.5784,-1.5784,-1.5751,-1.5357,-1.5009,-1.4682,-1.4302,-1.3454,-1.2431,-1.1206,-1.0342,-0.9413,-0.8031,-0.7559,-0.7496,-0.7361,-0.731,-0.7319,-0.7231,-0.7231,-0.7187,-0.7095,-0.7095,-0.7095,-0.7095,-0.7095,-0.7095,-0.7095,-0.7095,-0.7095,-0.7095,-0.7095,-0.7095,-0.7095,-0.7095,-0.7095,-0.7095,-0.6396,-0.5572,-0.4729,-0.3671,-0.2612,-0.1626,-0.137,-0.1417,-0.1669,-0.1432,-0.1296,-0.1296,-0.1288,-0.1282,-0.1282,-0.1273,-0.1269,-0.1269,-0.1278,-0.1166,-2.1019,-2.0662,-2.04,-2.0684,-2.0413,-2.0192,-2.0477,-2.064,-2.0821,-2.0878,-2.0593,-2.0149,-1.9702,-1.8949,-1.8262,-1.7803,-1.6935,-1.6369,-1.6439,-1.5785,-1.5306,-1.5197,-1.5282,-1.5342,-1.5342,-1.5342,-1.5451,-1.5716,-1.5493,-1.5433,-1.5644,-1.5457,-1.527,-1.5113,-1.4853,-1.4759,-1.4936,-1.4768,-1.4975,-1.5493,-1.5404,-1.5452,-1.5683,-1.5778,-1.5784,-1.5784,-1.5784,-1.5718,-1.5665,-1.5785,-1.5691,-1.5504,-1.5738,-1.5711,-1.5658,-1.5658,-1.5658,-1.5565,-1.495,-1.4527,-1.4211,-1.3818,-1.2879,-1.1714,-1.0761,-0.9798,-0.8783,-0.7766,-0.7365,-0.7278,-0.7278,-0.721,-0.7095,-0.7095,-0.7095,-0.7095,-0.7095,-0.7095,-0.7095,-0.7095,-0.7095,-0.7095,-0.7095,-0.7095,-0.7095,-0.7095,-0.7095,-0.7095,-0.7095,-0.7095,-0.6962,-0.6561,-0.5961,-0.5022,-0.3707,-0.2964,-0.2077,-0.103,-0.1,-0.1103,-0.1171,-0.1257,-0.1275,-0.1196,-0.1275,-0.123,-0.1139,-0.1257,-0.1257,-0.1139,-0.1139,-0.1021,-2.0095,-1.9834,-1.9691,-1.9809,-1.9939,-2.0005,-2.0116,-2.0382,-2.0589,-2.0683,-1.9964,-1.9376,-1.9477,-1.7698,-1.6264,-1.655,-1.5764,-1.4998,-1.4781,-1.4956,-1.5022,-1.4781,-1.4962,-1.5107,-1.5107,-1.5083,-1.5179,-1.5445,-1.5221,-1.5288,-1.5795,-1.5366,-1.5107,-1.5107,-1.4853,-1.4692,-1.4683,-1.47,-1.4927,-1.5397,-1.5172,-1.522,-1.5452,-1.5683,-1.5784,-1.5784,-1.5751,-1.5645,-1.5418,-1.5651,-1.5438,-1.5062,-1.5545,-1.5585,-1.5357,-1.5357,-1.5357,-1.5265,-1.4463,-1.4015,-1.3761,-1.3517,-1.2551,-1.1365,-1.0529,-0.9536,-0.8496,-0.7401,-0.7095,-0.7098,-0.7112,-0.7105,-0.7098,-0.7112,-0.7105,-0.7095,-0.7095,-0.7095,-0.7095,-0.7095,-0.7095,-0.7095,-0.7095,-0.7095,-0.7095,-0.7095,-0.7095,-0.7095,-0.7095,-0.7095,-0.6741,-0.5808,-0.5586,-0.4692,-0.2686,-0.2418,-0.1881,-0.0762,-0.0704,-0.0784,-0.0917,-0.113,-0.1142,-0.1017,-0.114,-0.1127,-0.0864,-0.11,-0.11,-0.0864,-0.0864,-0.0746,-2.0879,-2.0462,-2.0114,-2.0251,-1.965,-1.9074,-1.9101,-1.8574,-1.8295,-1.9092,-1.91,-1.8458,-1.6966,-1.6266,-1.5711,-1.5239,-1.4948,-1.4853,-1.5004,-1.5071,-1.5089,-1.5028,-1.5071,-1.5107,-1.5107,-1.492,-1.4908,-1.5173,-1.495,-1.4938,-1.5258,-1.5167,-1.5107,-1.5107,-1.4853,-1.469,-1.4679,-1.4503,-1.4538,-1.4879,-1.4831,-1.4933,-1.5172,-1.5452,-1.5635,-1.5764,-1.5585,-1.5451,-1.5384,-1.5217,-1.5122,-1.5022,-1.5149,-1.5156,-1.5102,-1.5102,-1.5102,-1.4965,-1.4173,-1.3856,-1.3686,-1.3071,-1.1705,-1.0269,-1.0053,-0.8794,-0.7448,-0.7183,-0.7095,-0.7125,-0.7288,-0.7231,-0.7125,-0.7292,-0.7227,-0.7095,-0.7095,-0.7095,-0.7095,-0.7095,-0.7095,-0.7095,-0.7095,-0.7095,-0.7095,-0.7095,-0.7095,-0.7095,-0.7095,-0.7095,-0.6741,-0.5808,-0.4868,-0.3798,-0.2597,-0.1613,-0.0896,-0.0493,-0.0616,-0.0657,-0.0534,-0.0684,-0.0829,-0.0977,-0.0854,-0.0724,-0.0668,-0.0707,-0.0707,-0.0668,-0.0668,-0.055,-2.0649,-2.0371,-2.007,-1.9659,-1.9175,-1.865,-1.818,-1.7669,-1.7296,-1.7343,-1.7336,-1.7055,-1.5981,-1.5425,-1.4958,-1.4588,-1.4515,-1.4564,-1.4696,-1.4721,-1.4721,-1.4721,-1.4721,-1.4721,-1.4721,-1.4594,-1.463,-1.4902,-1.4666,-1.469,-1.5083,-1.4859,-1.4781,-1.4914,-1.4654,-1.4515,-1.4515,-1.437,-1.4442,-1.4688,-1.4592,-1.4572,-1.4744,-1.5244,-1.5468,-1.5417,-1.5411,-1.5237,-1.4977,-1.5008,-1.4841,-1.462,-1.4901,-1.4921,-1.475,-1.475,-1.4705,-1.4526,-1.384,-1.3571,-1.3367,-1.2875,-1.144,-0.9879,-0.9879,-0.8575,-0.7095,-0.7095,-0.7095,-0.7112,-0.7241,-0.72,-0.7115,-0.7241,-0.7156,-0.7095,-0.7095,-0.7095,-0.7095,-0.7095,-0.7095,-0.7095,-0.7095,-0.7095,-0.7051,-0.6966,-0.6966,-0.6966,-0.6966,-0.6473,-0.5755,-0.4912,-0.3753,-0.2638,-0.1568,-0.0896,-0.0448,-0.0224,-0.0311,-0.0355,-0.0403,-0.0352,-0.043,-0.0715,-0.0673,-0.0582,-0.0447,-0.0563,-0.0559,-0.0439,-0.0474,-0.0353,-2.031,-2.0207,-2.0022,-1.8919,-1.8624,-1.8373,-1.7343,-1.6922,-1.6546,-1.5704,-1.5656,-1.5751,-1.5561,-1.486,-1.4298,-1.4298,-1.4298,-1.4298,-1.4298,-1.4298,-1.4298,-1.4298,-1.4298,-1.4298,-1.4298,-1.4298,-1.4395,-1.4624,-1.4431,-1.4491,-1.4944,-1.4539,-1.4401,-1.4636,-1.4419,-1.4298,-1.4298,-1.4298,-1.4394,-1.464,-1.4345,-1.4212,-1.4244,-1.4976,-1.5165,-1.4937,-1.5172,-1.497,-1.4536,-1.473,-1.4566,-1.4135,-1.4623,-1.4619,-1.4356,-1.4356,-1.4226,-1.4013,-1.356,-1.3264,-1.3052,-1.279,-1.1472,-0.9926,-0.9889,-0.8596,-0.7129,-0.7102,-0.7095,-0.7102,-0.7129,-0.7136,-0.7142,-0.7169,-0.7152,-0.7129,-0.7102,-0.7095,-0.7095,-0.7095,-0.7051,-0.7051,-0.7095,-0.7051,-0.701,-0.6836,-0.6795,-0.6704,-0.6523,-0.5625,-0.4641,-0.3707,-0.2683,-0.1612,-0.0493,-0.0359,-0.0224,0.0,0.0,-0.009,-0.0314,-0.0135,-0.0089,-0.0306,-0.048,-0.0474,-0.0253,-0.0413,-0.0409,-0.0244,-0.0239,-0.0158,-2.1022,-2.0825,-2.0402,-1.9171,-1.8344,-1.7569,-1.656,-1.548,-1.4669,-1.4532,-1.5188,-1.5514,-1.4675,-1.4388,-1.4298,-1.4298,-1.4298,-1.4298,-1.4298,-1.4298,-1.4298,-1.4298,-1.4298,-1.4298,-1.4298,-1.4298,-1.431,-1.4346,-1.4322,-1.4328,-1.4401,-1.4334,-1.4316,-1.4352,-1.4316,-1.4298,-1.4298,-1.4298,-1.4298,-1.4346,-1.4069,-1.3942,-1.3946,-1.4245,-1.4495,-1.4637,-1.461,-1.4546,-1.4502,-1.4289,-1.4155,-1.4095,-1.3907,-1.3871,-1.3796,-1.3796,-1.3668,-1.3485,-1.3404,-1.3264,-1.3052,-1.279,-1.1543,-1.0124,-0.9936,-0.869,-0.7312,-0.7132,-0.7095,-0.7125,-0.7305,-0.7343,-0.7373,-0.7506,-0.7438,-0.7302,-0.7125,-0.7095,-0.7095,-0.7095,-0.6969,-0.6881,-0.7051,-0.6966,-0.6836,-0.6795,-0.6795,-0.6435,-0.5356,-0.5087,-0.433,-0.255,-0.2058,-0.1433,-0.0493,-0.018,-0.0045,0.0,0.0,0.0,-0.0045,0.0,0.0,-0.0045,-0.0088,-0.0086,-0.0042,-0.0084,-0.0083,-0.0041,-0.0041,-0.004,-2.1509,-2.0712,-1.9752,-1.8818,-1.7742,-1.6601,-1.5581,-1.4819,-1.4298,-1.4298,-1.4675,-1.4813,-1.4394,-1.4298,-1.4298,-1.4298,-1.4298,-1.4298,-1.4298,-1.4298,-1.4298,-1.4298,-1.4298,-1.4298,-1.4298,-1.4298,-1.4298,-1.4298,-1.4298,-1.4298,-1.4298,-1.4298,-1.4298,-1.4298,-1.4298,-1.4298,-1.4298,-1.4298,-1.4298,-1.4292,-1.4032,-1.3827,-1.3676,-1.3899,-1.4034,-1.4166,-1.4263,-1.4299,-1.4269,-1.4008,-1.3955,-1.4088,-1.3779,-1.3695,-1.3695,-1.3561,-1.3493,-1.3429,-1.3278,-1.3157,-1.2983,-1.2275,-1.1105,-0.9937,-0.9429,-0.8313,-0.7227,-0.7115,-0.7204,-0.7285,-0.7398,-0.7434,-0.7495,-0.7478,-0.7421,-0.7329,-0.7129,-0.7095,-0.7051,-0.6966,-0.6881,-0.6792,-0.6697,-0.6653,-0.6523,-0.6438,-0.6393,-0.6035,-0.4959,-0.4245,-0.3353,-0.2058,-0.1255,-0.0628,-0.0224,-0.009,0.0,0.0,0.0,0.0,0.0,0.0,0.0,0.0,0.0,0.0,0.0,0.0,0.0,0.0,0.0,0.0,-2.1381,-2.0394,-1.9301,-1.8232,-1.7191,-1.6096,-1.5022,-1.4592,-1.4394,-1.4298,-1.4298,-1.4298,-1.4298,-1.4298,-1.4298,-1.4298,-1.4298,-1.4298,-1.4298,-1.4298,-1.4298,-1.4298,-1.4298,-1.4298,-1.4298,-1.4298,-1.4298,-1.4298,-1.4298,-1.4298,-1.4298,-1.4298,-1.4298,-1.4298,-1.4298,-1.4298,-1.4298,-1.4298,-1.4298,-1.4292,-1.3966,-1.3743,-1.3604,-1.3749,-1.3761,-1.3761,-1.3959,-1.4068,-1.4088,-1.3822,-1.387,-1.4095,-1.3815,-1.3713,-1.3726,-1.3582,-1.3523,-1.3479,-1.325,-1.3169,-1.2977,-1.2103,-1.1014,-0.9916,-0.9255,-0.8214,-0.7203,-0.7166,-0.7282,-0.7426,-0.7463,-0.7539,-0.7614,-0.7465,-0.7431,-0.7377,-0.7139,-0.7051,-0.6966,-0.6836,-0.6704,-0.6571,-0.6432,-0.6343,-0.6254,-0.6127,-0.5902,-0.5366,-0.4383,-0.3223,-0.2195,-0.1433,-0.0539,0.0,0.0,0.0,0.0,0.0,0.0,0.0,0.0,0.0,0.0,0.0,0.0,0.0,0.0,0.0,0.0,0.0,0.0,0.0,-2.0236,-2.002,-1.9686,-1.7371,-1.6853,-1.656,-1.5356,-1.4885,-1.4592,-1.4346,-1.4298,-1.4298,-1.4298,-1.4298,-1.4298,-1.4298,-1.4298,-1.4298,-1.4298,-1.4298,-1.4298,-1.4298,-1.4298,-1.4298,-1.4298,-1.4298,-1.4298,-1.4298,-1.4298,-1.4298,-1.4298,-1.4298,-1.4298,-1.4298,-1.4298,-1.4298,-1.4298,-1.4298,-1.4298,-1.4292,-1.3779,-1.3658,-1.387,-1.3836,-1.3717,-1.353,-1.366,-1.3884,-1.4088,-1.3822,-1.387,-1.4073,-1.3857,-1.3786,-1.3818,-1.3835,-1.3716,-1.3498,-1.3485,-1.3323,-1.3035,-1.2727,-1.159,-1.0319,-0.9972,-0.8783,-0.7546,-0.74,-0.7412,-0.745,-0.755,-0.7692,-0.7763,-0.7621,-0.7587,-0.7506,-0.7162,-0.6966,-0.6795,-0.6795,-0.6438,-0.6213,-0.6387,-0.6257,-0.6127,-0.6083,-0.5364,-0.4338,-0.3135,-0.2107,-0.1122,-0.018,-0.0045,0.0,0.0,0.0,0.0,0.0,0.0,0.0,0.0,0.0,0.0,0.0,0.0,0.0,0.0,0.0,0.0,0.0,0.0,0.0,-2.0274,-1.924,-1.8164,-1.7311,-1.6537,-1.5818,-1.5226,-1.4885,-1.464,-1.4346,-1.4298,-1.4298,-1.4298,-1.4298,-1.4298,-1.4298,-1.4298,-1.4298,-1.4298,-1.4298,-1.4298,-1.4298,-1.4298,-1.4298,-1.4298,-1.4298,-1.4298,-1.4298,-1.4298,-1.4298,-1.4298,-1.4298,-1.4298,-1.4298,-1.4298,-1.4298,-1.4298,-1.4298,-1.4298,-1.4292,-1.3936,-1.3815,-1.3888,-1.3843,-1.3856,-1.3919,-1.3823,-1.3924,-1.4147,-1.3751,-1.3897,-1.4386,-1.4008,-1.3868,-1.3835,-1.3709,-1.3668,-1.3731,-1.3549,-1.3574,-1.3473,-1.2723,-1.1553,-1.0389,-0.9653,-0.8532,-0.7441,-0.7433,-0.7441,-0.7553,-0.7699,-0.7845,-0.7896,-0.7655,-0.7522,-0.7378,-0.7089,-0.6904,-0.6748,-0.6567,-0.6302,-0.6083,-0.5952,-0.5908,-0.5863,-0.5863,-0.5057,-0.4072,-0.3045,-0.2017,-0.1032,-0.009,0.0,0.0,0.0,0.0,0.0,0.0,0.0,0.0,0.0,0.0,0.0,0.0,0.0,0.0,0.0,0.0,0.0,0.0,0.0,0.0,-2.0329,-1.902,-1.7738,-1.7372,-1.644,-1.5547,-1.5267,-1.5124,-1.4879,-1.449,-1.4442,-1.4394,-1.4298,-1.4298,-1.4298,-1.4298,-1.4298,-1.4298,-1.4298,-1.4298,-1.4298,-1.4298,-1.4298,-1.4298,-1.4298,-1.4298,-1.4298,-1.4298,-1.4298,-1.4298,-1.4298,-1.4298,-1.4298,-1.4298,-1.4298,-1.4298,-1.4298,-1.4208,-1.4208,-1.4292,-1.3942,-1.387,-1.402,-1.4074,-1.4096,-1.4079,-1.4077,-1.4167,-1.4311,-1.3901,-1.4015,-1.443,-1.4209,-1.4064,-1.3979,-1.3841,-1.3888,-1.4002,-1.3737,-1.3761,-1.3701,-1.2524,-1.1506,-1.0492,-0.9389,-0.8347,-0.7509,-0.7461,-0.7556,-0.7702,-0.7848,-0.7877,-0.7864,-0.7719,-0.7516,-0.7338,-0.7115,-0.6921,-0.6697,-0.6466,-0.6182,-0.5919,-0.5784,-0.5715,-0.5688,-0.5688,-0.4612,-0.3583,-0.3001,-0.1749,-0.0673,-0.0045,0.0,0.0,0.0,0.0,0.0,0.0,0.0,0.0,0.0,0.0,0.0,0.0,0.009,0.009,0.0,0.0,0.0,0.0,0.0,0.0217,0.0,0.0,0.0,-1.7552,-1.6574,-1.5778,-1.554,-1.5493,-1.5356,-1.4831,-1.4694,-1.464,-1.4346,-1.4298,-1.4298,-1.4298,-1.4298,-1.4298,-1.4298,-1.4298,-1.4298,-1.4298,-1.4298,-1.4298,-1.4298,-1.4298,-1.4298,-1.4298,-1.4298,-1.4298,-1.4298,-1.4298,-1.4298,-1.4298,-1.4298,-1.4298,-1.4298,-1.4045,-1.4045,-1.4292,-1.3779,-1.3803,-1.4274,-1.4571,-1.4399,-1.394,-1.4446,-1.4662,-1.4604,-1.4321,-1.4205,-1.4255,-1.4522,-1.4437,-1.4229,-1.4297,-1.4298,-1.4262,-1.4008,-1.3918,-1.3683,-1.236,-1.1413,-1.056,-0.9242,-0.8322,-0.7784,-0.7645,-0.7706,-0.7845,-0.7948,-0.7926,-0.7811,-0.7811,-0.759,-0.7371,-0.7229,-0.6916,-0.663,-0.6426,-0.603,-0.5731,-0.588,-0.5809,-0.5694,-0.5688,-0.4119,-0.2911,-0.2911,-0.1211,0.0,0.0,0.0,0.0,0.0,0.0,0.0,0.0,0.0,0.0,0.0,0.0,0.0,0.0,0.0269,0.0269,0.0,0.0,0.0,0.0,0.0045,0.0673,-2.0088,0.0,0.0,0.0,0.0,0.0,-1.573,-1.5493,-1.5397,-1.5077,-1.4987,-1.4885,-1.464,-1.4592,-1.4544,-1.4346,-1.4298,-1.4298,-1.4298,-1.4298,-1.4298,-1.4298,-1.4298,-1.4298,-1.4298,-1.4298,-1.4298,-1.4298,-1.4298,-1.4298,-1.4298,-1.4298,-1.4298,-1.4298,-1.4298,-1.4298,-1.4298,-1.4226,-1.4226,-1.4292,-1.4153,-1.4057,-1.4002,-1.4065,-1.4039,-1.3902,-1.4039,-1.433,-1.4622,-1.4161,-1.4331,-1.4813,-1.4498,-1.4332,-1.4291,-1.4268,-1.4298,-1.4286,-1.4214,-1.4189,-1.3981,-1.2846,-1.1862,-1.0844,-0.9634,-0.8548,-0.7801,-0.7763,-0.778,-0.7845,-0.7948,-0.7926,-0.7811,-0.7811,-0.7672,-0.7406,-0.702,-0.678,-0.6603,-0.6366,-0.616,-0.5945,-0.5803,-0.5822,-0.5828,-0.5702,-0.4119,-0.2911,-0.2911,-0.1211,0.0,0.0,0.0,0.0,0.0,0.0,0.0,0.0,0.0,0.0,0.0,0.0,0.009,0.0269,0.0359,0.0448,0.0494,0.0359,0.0269,0.0314,0.1121,0.1792,-2.0371,-1.9635,-1.8792,-1.8478,0.0,0.0,-1.6452,-1.6244,-1.6062,-1.5404,-1.5267,-1.5172,-1.4933,-1.4885,-1.4838,-1.464,-1.464,-1.4544,-1.4346,-1.4298,-1.4298,-1.4298,-1.4298,-1.4298,-1.4298,-1.4298,-1.4298,-1.4298,-1.4298,-1.4298,-1.4298,-1.4298,-1.4298,-1.4298,-1.4298,-1.4244,-1.4135,-1.4026,-1.3972,-1.3966,-1.3857,-1.3785,-1.3737,-1.3865,-1.3843,-1.3746,-1.3921,-1.4214,-1.4511,-1.4186,-1.4399,-1.4885,-1.4592,-1.4394,-1.4298,-1.4298,-1.4298,-1.4298,-1.4298,-1.4298,-1.4052,-1.2581,-1.1658,-1.0888,-0.9248,-0.8333,-0.7892,-0.7828,-0.7858,-0.7877,-0.7968,-0.7924,-0.7906,-0.7906,-0.765,-0.7328,-0.7003,-0.6727,-0.6474,-0.625,-0.6089,-0.5983,-0.5896,-0.5893,-0.588,-0.5814,-0.4141,-0.2911,-0.2911,-0.1211,0.0,0.0,0.0,0.0,0.0,0.0,0.0,0.0,0.0,0.0045,0.018,0.018,0.0269,0.0538,0.0628,0.0762,0.0852,0.0628,0.0538,0.0538,0.1702,0.2551,-2.0899,-2.0264,-1.964,-1.9974,-1.9173,0.0,-1.7609,-1.7343,-1.6955,-1.5913,-1.5588,-1.5452,-1.5172,-1.5131,-1.5131,-1.5083,-1.5083,-1.4933,-1.4442,-1.4346,-1.4346,-1.4298,-1.4298,-1.4298,-1.4298,-1.4298,-1.4298,-1.4298,-1.4298,-1.4298,-1.4298,-1.4298,-1.4298,-1.4298,-1.4268,-1.4141,-1.3912,-1.3646,-1.3513,-1.3513,-1.3278,-1.3227,-1.3471,-1.3703,-1.364,-1.3429,-1.3898,-1.4163,-1.4241,-1.4142,-1.4368,-1.4688,-1.4688,-1.4496,-1.4298,-1.4298,-1.4298,-1.4298,-1.4298,-1.4298,-1.3956,-1.1858,-1.1219,-1.0795,-0.8504,-0.7884,-0.7961,-0.7875,-0.7884,-0.7988,-0.7988,-0.7988,-0.7985,-0.7968,-0.7604,-0.7196,-0.7062,-0.6655,-0.6245,-0.6073,-0.5991,-0.5969,-0.6051,-0.5986,-0.5872,-0.5766,-0.4127,-0.2867,-0.2732,-0.1122,0.0,0.0,0.0,0.0,0.0,0.0,0.0,0.0,0.0,0.0135,0.0403,0.0403,0.0493,0.0762,0.0987,0.1121,0.1121,0.0852,0.0762,0.0762,0.2105,0.313,-2.0726,-2.0774,-2.054,-2.0285,-1.9713,0.0,-1.8811,-1.7743,-1.6859,-1.694,-1.6292,-1.5683,-1.5445,-1.5404,-1.5356,-1.5131,-1.5083,-1.4987,-1.4688,-1.464,-1.4544,-1.4346,-1.4298,-1.4298,-1.4298,-1.4298,-1.4298,-1.4298,-1.4298,-1.4298,-1.4298,-1.4298,-1.4298,-1.4298,-1.4093,-1.396,-1.3906,-1.3646,-1.3513,-1.3513,-1.3465,-1.3357,-1.32,-1.3244,-1.3123,-1.2874,-1.3185,-1.3574,-1.3963,-1.3729,-1.4062,-1.4694,-1.4442,-1.4346,-1.4298,-1.4298,-1.4298,-1.4298,-1.4298,-1.4298,-1.3956,-1.1858,-1.1219,-1.0774,-0.864,-0.7968,-0.7982,-0.7955,-0.7968,-0.7988,-0.7988,-0.7988,-0.7958,-0.7885,-0.7528,-0.7142,-0.6824,-0.6454,-0.6084,-0.584,-0.6015,-0.6143,-0.5969,-0.5999,-0.5782,-0.4899,-0.3718,-0.2598,-0.1793,-0.0718,0.0,0.0,0.0,0.0,0.0,0.0,0.0,0.0,0.0,0.0135,0.0403,0.0403,0.0583,0.1031,0.1211,0.1345,0.1345,0.1121,0.1031,0.1076,0.3041,0.4067,-2.0605,-2.0671,-2.0585,-2.0606,-2.0461,0.0,0.0,-1.9134,-1.8557,-1.8241,-1.7311,-1.6534,-1.6433,-1.6015,-1.5594,-1.5458,-1.5458,-1.5356,-1.5118,-1.4981,-1.4838,-1.4694,-1.4592,-1.4496,-1.4496,-1.4394,-1.4298,-1.4298,-1.4298,-1.4298,-1.4298,-1.4298,-1.4238,-1.4105,-1.3972,-1.3779,-1.3519,-1.3387,-1.3248,-1.3109,-1.3109,-1.3043,-1.2916,-1.2916,-1.2837,-1.2711,-1.2985,-1.3248,-1.3505,-1.3493,-1.3731,-1.4098,-1.3952,-1.3906,-1.3924,-1.4051,-1.4099,-1.4123,-1.425,-1.4298,-1.4052,-1.2441,-1.1609,-1.0881,-0.9266,-0.8432,-0.7988,-0.7988,-0.7988,-0.7988,-0.7988,-0.7934,-0.7877,-0.7877,-0.741,-0.6923,-0.6833,-0.6359,-0.5933,-0.5744,-0.5975,-0.6119,-0.5934,-0.5953,-0.5833,-0.5264,-0.3901,-0.2698,-0.2225,-0.0911,0.0,0.0,0.0,0.0,0.0,0.0,0.0,0.0,0.0,0.018,0.0538,0.0538,0.0762,0.1256,0.1345,0.1391,0.1391,0.13,0.1524,0.2016,0.3576,0.4556,-2.0507,-2.0489,-2.0449,-2.0853,-2.1036,-2.1057,0.0,0.0,0.0,-1.9617,-1.8503,-1.7645,-1.7645,-1.6943,-1.6386,-1.6386,-1.6386,-1.6244,-1.5913,-1.5825,-1.5642,-1.5178,-1.507,-1.5064,-1.5064,-1.4819,-1.458,-1.4394,-1.4346,-1.4298,-1.4298,-1.4298,-1.4201,-1.3984,-1.3882,-1.3628,-1.3155,-1.3053,-1.2928,-1.2705,-1.2705,-1.2705,-1.2705,-1.2705,-1.2705,-1.2705,-1.2924,-1.304,-1.3121,-1.3274,-1.3364,-1.3441,-1.3495,-1.3513,-1.355,-1.3809,-1.3906,-1.3948,-1.4208,-1.4298,-1.41,-1.2829,-1.156,-1.0435,-0.9558,-0.8676,-0.7985,-0.7955,-0.7944,-0.7938,-0.7914,-0.7865,-0.7794,-0.7889,-0.7256,-0.6707,-0.6793,-0.6325,-0.5877,-0.5739,-0.5939,-0.6045,-0.5923,-0.5904,-0.5764,-0.5395,-0.3946,-0.2748,-0.2381,-0.0965,0.0,0.0,0.0,0.0,0.009,0.0045,0.0,0.009,0.009,0.0269,0.0673,0.0807,0.1031,0.1391,0.1391,0.1391,0.1391,0.1614,0.2107,0.2913,0.3844,0.4823,-2.0534,-2.0566,-2.0674,-2.1083,-2.1059,-2.1128,-2.1816,0.0,-2.0501,-2.0748,0.0,-1.891,-1.891,0.0,0.0,-1.8465,-1.8465,-1.8149,-1.7232,-1.7824,-1.7537,-1.5363,-1.5812,-1.6311,-1.6311,-1.6116,-1.5602,-1.4736,-1.4442,-1.4298,-1.4298,-1.4298,-1.4286,-1.4256,-1.3803,-1.3532,-1.3471,-1.2994,-1.2735,-1.2705,-1.2705,-1.2705,-1.2705,-1.2705,-1.2705,-1.2705,-1.2747,-1.2868,-1.3059,-1.2899,-1.2916,-1.3149,-1.3423,-1.3513,-1.355,-1.3809,-1.3906,-1.3948,-1.4208,-1.4298,-1.4004,-1.1999,-0.9998,-0.8333,-0.8237,-0.8088,-0.7961,-0.7875,-0.7838,-0.7807,-0.7682,-0.7638,-0.7594,-0.7475,-0.7086,-0.6654,-0.6499,-0.6153,-0.5899,-0.5885,-0.5994,-0.6045,-0.5923,-0.5904,-0.5303,-0.3595,-0.3084,-0.2288,-0.054,-0.0135,0.0,0.0,0.0,0.009,0.0314,0.0135,0.009,0.0359,0.0359,0.0448,0.0673,0.1121,0.1345,0.1391,0.1391,0.1391,0.1391,0.2286,0.2778,0.2913,0.3844,0.4823,-2.1212,-2.0755,-2.0293,-2.0732,-2.08,-2.0877,-2.1467,-2.1319,-2.1113,-2.128,0.0,0.0,0.0,0.0,0.0,0.0,-1.9093,-1.8826,-1.8411,-1.8603,-1.8002,-1.5784,-1.6741,-1.7561,-1.7375,-1.6673,-1.6021,-1.5609,-1.4765,-1.4298,-1.4298,-1.4298,-1.4226,-1.4075,-1.3857,-1.3598,-1.329,-1.3017,-1.2868,-1.2705,-1.2705,-1.2705,-1.2705,-1.2705,-1.2705,-1.2705,-1.2705,-1.2771,-1.2874,-1.2753,-1.2868,-1.3121,-1.3061,-1.3043,-1.3079,-1.335,-1.355,-1.3719,-1.3978,-1.4171,-1.3956,-1.1858,-1.0145,-0.8806,-0.8077,-0.7921,-0.7958,-0.7855,-0.7875,-0.788,-0.7872,-0.7729,-0.758,-0.7545,-0.7045,-0.6597,-0.6477,-0.6204,-0.5969,-0.5831,-0.5899,-0.5964,-0.5912,-0.5961,-0.5516,-0.411,-0.3343,-0.2415,-0.1004,-0.032,0.0,0.0,0.0,0.0045,0.018,0.0224,0.0224,0.018,0.0404,0.0673,0.0942,0.1211,0.1391,0.1391,0.1391,0.1391,0.1391,0.2419,0.3178,0.3757,0.4692,0.5628,-2.1526,-2.0893,-2.0284,-2.0526,-2.0693,-2.083,-2.1122,-2.1409,-2.1627,-2.1627,-2.1081,0.0,0.0,0.0,-2.0011,0.0,0.0,-1.9796,-1.9617,-1.965,-1.8926,-1.685,-1.7987,-1.8726,-1.8272,-1.7375,-1.6579,-1.6028,-1.5099,-1.449,-1.4394,-1.4394,-1.4309,-1.4115,-1.3995,-1.3688,-1.3331,-1.3157,-1.2982,-1.2705,-1.2705,-1.2705,-1.2705,-1.2705,-1.2705,-1.2705,-1.2705,-1.2705,-1.2705,-1.2705,-1.2825,-1.2988,-1.2783,-1.2705,-1.2741,-1.3019,-1.329,-1.3556,-1.3815,-1.369,-1.3221,-1.1707,-1.0293,-0.8996,-0.8101,-0.7901,-0.7958,-0.7855,-0.7892,-0.7911,-0.7879,-0.7699,-0.7547,-0.7472,-0.6995,-0.6572,-0.6482,-0.625,-0.6026,-0.582,-0.5874,-0.5964,-0.5996,-0.6021,-0.5582,-0.4296,-0.3457,-0.2532,-0.1192,-0.0413,0.0,0.0,0.0046,0.0137,0.018,0.0314,0.0359,0.018,0.0494,0.0852,0.1166,0.13,0.1391,0.1391,0.1391,0.1391,0.1391,0.2688,0.3623,0.4334,0.5272,0.6207,-2.1146,-2.0993,-2.09,-2.0642,-2.0889,-2.1181,-2.119,-2.1572,-2.1885,-2.1885,-2.1678,-2.148,-2.148,-2.129,0.0,0.0,0.0,0.0,0.0,-2.1526,-2.1177,-1.8972,-1.9613,-1.984,-1.888,-1.8495,-1.7569,-1.5676,-1.522,-1.4981,-1.4688,-1.4688,-1.4688,-1.4675,-1.418,-1.3871,-1.3876,-1.3343,-1.2982,-1.2705,-1.2705,-1.2705,-1.2705,-1.2705,-1.2705,-1.2705,-1.2705,-1.2705,-1.2705,-1.2705,-1.2711,-1.2717,-1.2705,-1.2705,-1.2741,-1.3019,-1.329,-1.3556,-1.3815,-1.2777,-1.1268,-1.1219,-0.9756,-0.8038,-0.7982,-0.7985,-0.7958,-0.7855,-0.7814,-0.7753,-0.7465,-0.7433,-0.7334,-0.7073,-0.6786,-0.6548,-0.6328,-0.6191,-0.6048,-0.5923,-0.5996,-0.6119,-0.6284,-0.6064,-0.5259,-0.3319,-0.3043,-0.2291,-0.0316,0.0,0.0,0.0,0.0225,0.0449,0.0673,0.0493,0.0493,0.0673,0.0673,0.0897,0.139,0.1391,0.1391,0.1391,0.1391,0.1391,0.1391,0.3309,0.4287,0.4334,0.5272,0.6207,-2.2226,-2.1516,-2.0818,-2.0839,-2.0734,-2.0634,-2.0771,-2.0948,-2.1055,-2.1055,-2.117,-2.1421,-2.1702,0.0,0.0,0.0,0.0,0.0,0.0,-2.2255,-2.1945,-2.1087,-2.0574,-2.0393,-2.0673,-1.9659,-1.8835,-1.8442,-1.669,-1.5698,-1.588,-1.5302,-1.4885,-1.4694,-1.4506,-1.4147,-1.3662,-1.3474,-1.3157,-1.2705,-1.2881,-1.2881,-1.2705,-1.2875,-1.2881,-1.2705,-1.2705,-1.2705,-1.2705,-1.2705,-1.2813,-1.2964,-1.2777,-1.2819,-1.2994,-1.3091,-1.329,-1.3437,-1.3195,-1.2276,-1.1072,-1.0391,-0.9167,-0.7971,-0.7919,-0.7911,-0.7958,-0.7855,-0.7885,-0.7867,-0.7716,-0.7662,-0.757,-0.7098,-0.6908,-0.6741,-0.6277,-0.6216,-0.6146,-0.5942,-0.6002,-0.6124,-0.6295,-0.5651,-0.4678,-0.3352,-0.2544,-0.1567,-0.0184,0.0,0.0,0.0,0.0092,0.0229,0.0458,0.0452,0.0583,0.0942,0.0807,0.0897,0.1391,0.1391,0.1391,0.1391,0.1391,0.1391,0.1391,0.3353,0.4289,0.4334,0.5894,0.6786,-2.2485,-2.1777,-2.1093,-2.1115,-2.0904,-2.0776,-2.1101,-2.0971,-2.0743,-2.0781,-2.0879,-2.0986,-2.0967,-2.1338,0.0,0.0,0.0,0.0,0.0,-2.2662,-2.2441,-2.222,-2.1445,-2.0988,-2.1177,-2.0259,-1.9566,-1.9323,-1.7507,-1.6387,-1.6418,-1.5664,-1.5172,-1.4975,-1.4783,-1.4471,-1.3927,-1.3653,-1.329,-1.285,-1.2924,-1.2881,-1.2705,-1.2881,-1.2875,-1.2705,-1.2705,-1.2705,-1.2705,-1.2705,-1.2813,-1.2958,-1.2777,-1.2813,-1.2988,-1.3047,-1.335,-1.362,-1.3374,-1.2344,-1.1072,-1.0391,-0.9167,-0.7971,-0.7874,-0.7911,-0.7948,-0.7794,-0.7882,-0.7931,-0.7723,-0.7733,-0.7666,-0.7143,-0.6961,-0.6756,-0.6197,-0.6149,-0.6143,-0.5942,-0.6002,-0.6111,-0.6237,-0.5063,-0.3907,-0.3273,-0.2275,-0.1189,-0.0139,0.0,0.0,0.0,0.0186,0.0373,0.0509,0.0594,0.0723,0.0942,0.0897,0.1031,0.1391,0.1391,0.1391,0.1391,0.1391,0.1391,0.1391,0.3353,0.4289,0.4334,0.6248,0.7095]},{"header":{"parameterUnit":"m.s-1","parameterCategory":1,"la1":30.6,"la2":29.2853,"lo1":-89.7004,"lo2":-87.6739,"dy":0.0162,"dx":0.0183,"nx":112,"ny":82,"refTime":"2023-03-09T06:00:00:Z","depth":0,"parameterNumber":3,"parameterNumberName":"V-component_of_WINDS"},"data":[0.0,0.0,0.0,0.0,0.0,0.0,0.0,0.0,0.0,0.0,0.0,0.0,0.0,0.0,0.0,0.0,0.0,0.0,0.0,0.0,0.0,0.0,0.0,0.0,0.0,0.0,0.0,0.0,0.0,0.0,0.0,0.0,0.0,0.0,0.0,0.0,0.0,0.0,0.0,0.0,0.0,0.0,0.0,0.0,0.0,0.0,0.0,0.0,0.0,0.0,0.0,0.0,0.0,0.0,0.0,0.0,0.0,0.0,0.0,0.0,0.0,0.0,0.0,0.0,0.0,0.0,0.0,0.0,0.0,0.0,0.0,0.0,0.0,0.0,0.0,0.0,0.0,0.0,0.0,0.0,0.0,0.0,0.0,0.0,0.0,0.0,0.0,0.0,0.0,0.0,1.8473,1.6665,1.5574,1.4537,1.3494,1.3208,1.2335,1.0561,0.0,0.0,0.0,0.0,0.0,0.0,0.0,0.0,0.0,0.0,0.0,0.0,0.0,0.0,0.0,0.0,0.0,0.0,0.0,0.0,0.0,0.0,0.0,0.0,0.0,0.0,0.0,0.0,0.0,0.0,0.0,0.0,0.0,0.0,0.0,0.0,0.0,0.0,0.0,0.0,0.0,0.0,0.0,0.0,0.0,0.0,0.0,0.0,0.0,0.0,0.0,0.0,0.0,0.0,0.0,0.0,0.0,0.0,0.0,0.0,0.0,0.0,0.0,0.0,0.0,0.0,0.0,0.0,0.0,0.0,0.0,0.0,0.0,0.0,0.0,0.0,0.0,0.0,0.0,0.0,0.0,0.0,0.0,0.0,0.0,0.0,0.0,0.0,0.0,0.0,0.0,0.0,0.0,0.0,0.0,0.0,0.0,0.0,0.0,0.0,0.0,0.0,0.0,0.0,1.7794,1.6928,1.5913,1.5062,1.4365,1.3802,1.2725,1.0854,0.0,0.0,0.0,0.0,0.0,0.0,0.0,0.0,0.0,0.0,0.0,0.0,0.0,0.0,0.0,0.0,0.0,0.0,0.0,0.0,0.0,0.0,0.0,0.0,0.0,0.0,0.0,0.0,0.0,0.0,0.0,0.0,0.0,0.0,0.0,0.0,0.0,0.0,0.0,0.0,0.0,0.0,0.0,0.0,0.0,0.0,0.0,0.0,0.0,0.0,0.0,0.0,0.0,0.0,0.0,0.0,0.0,0.0,0.0,0.0,0.0,0.0,0.0,0.0,0.0,0.0,0.0,0.0,0.0,0.0,0.0,0.0,0.0,0.0,0.0,0.0,0.0,0.0,0.0,0.0,0.0,0.0,0.0,0.0,0.0,0.0,0.0,0.0,0.0,0.0,0.0,0.0,0.0,0.0,0.0,0.0,0.0,0.0,0.0,0.0,0.0,0.0,0.0,1.7295,1.7316,1.718,1.6386,1.5576,1.4835,1.4342,1.3242,1.1249,1.036,0.0,0.0,0.0,0.0,0.0,0.0,0.0,0.0,0.0,0.0,0.0,0.0,0.0,0.0,0.0,0.0,0.0,0.0,0.0,0.0,0.0,0.0,0.0,0.0,0.0,0.0,0.0,0.0,0.0,0.0,0.0,0.0,0.0,0.0,0.0,0.0,0.0,0.0,0.0,0.0,0.0,0.0,0.0,0.0,0.0,0.0,0.0,0.0,0.0,0.0,0.0,0.0,0.0,0.0,0.0,0.0,0.0,0.0,0.0,0.0,0.0,0.0,0.0,0.0,0.0,0.0,0.0,0.0,0.0,0.0,0.0,0.0,0.0,0.0,0.0,0.0,0.0,0.0,0.0,0.0,0.0,0.0,0.0,0.0,0.0,0.0,0.0,0.0,0.0,0.0,0.0,0.0,0.0,0.0,0.0,0.0,0.0,0.0,0.0,0.0,0.0,0.0,1.7777,1.7299,1.7381,1.69,1.617,1.5219,1.4915,1.3847,1.1689,1.1125,0.0,0.0,0.0,0.0,0.0,0.0,0.0,0.0,0.0,0.0,0.0,0.0,0.0,0.0,0.0,0.0,0.0,0.0,0.0,0.0,0.0,0.0,0.0,0.0,0.0,0.0,0.0,0.0,0.0,0.0,0.0,0.0,0.0,0.0,0.0,0.0,0.0,0.0,0.0,0.0,0.0,0.0,0.0,0.0,0.0,0.0,0.0,0.0,0.0,0.0,0.0,0.0,0.0,0.0,0.0,0.0,0.0,0.0,0.0,0.0,0.0,0.0,0.0,0.0,0.0,0.0,0.0,0.0,0.0,0.0,0.0,0.0,0.0,0.0,0.0,0.0,0.0,0.0,0.0,0.0,0.0,0.0,0.0,0.0,0.0,0.0,0.0,0.0,0.0,0.0,0.0,0.0,0.0,0.0,0.0,0.0,0.0,0.0,0.0,0.0,0.0,0.0,1.8433,1.8145,1.7475,1.7352,1.6837,1.5645,1.5546,1.4505,1.2113,1.1799,0.0,0.0,0.0,0.0,0.0,0.0,0.0,0.0,0.0,0.0,0.0,0.0,0.0,0.0,0.0,0.0,0.0,0.0,0.0,0.0,0.0,0.0,0.0,0.0,0.0,0.0,0.0,0.0,0.0,0.0,0.0,0.0,0.0,0.0,0.0,0.0,0.0,0.0,0.0,0.0,0.0,0.0,0.0,0.0,0.0,0.0,0.0,0.0,0.0,0.0,0.0,0.0,0.0,0.0,0.0,0.0,0.0,0.0,0.0,0.0,0.0,0.0,0.0,0.0,0.0,0.0,0.0,0.0,0.0,0.0,0.0,0.0,0.0,0.0,0.0,0.0,0.0,0.0,0.0,0.0,0.0,0.0,0.0,0.0,0.0,0.0,0.0,0.0,0.0,0.0,0.0,0.0,0.0,0.0,0.0,0.0,0.0,0.0,0.0,0.0,0.0,0.0,1.8903,1.8717,1.8147,1.7888,1.7407,1.6548,1.5932,1.493,1.3411,0.0,0.0,0.0,0.0,0.0,0.0,0.0,0.0,0.0,0.0,0.0,0.0,0.0,0.0,0.0,0.0,0.0,0.0,0.0,0.0,0.0,0.0,0.0,0.0,0.0,0.0,0.0,0.0,0.0,0.0,0.0,0.0,0.0,0.0,0.0,0.0,0.0,0.0,0.0,0.0,0.0,0.0,0.0,0.0,0.0,0.0,0.0,0.0,0.0,0.0,0.0,0.0,0.0,0.0,0.0,0.0,0.0,0.0,0.0,0.0,0.0,0.0,0.0,0.0,0.0,0.0,0.0,0.0,0.0,0.0,0.0,0.0,0.0,0.0,0.0,0.0,0.0,0.0,0.0,0.0,0.0,0.0,0.0,0.0,0.0,0.0,0.0,0.0,0.0,0.0,0.0,0.0,0.0,0.0,0.0,0.0,0.0,0.0,0.0,0.0,0.0,0.0,1.9387,1.9387,1.9225,1.8769,1.85,1.8094,1.7442,1.668,1.574,1.458,0.0,0.0,0.0,0.0,0.0,0.0,0.0,0.0,0.0,0.0,0.0,0.0,0.0,0.0,0.0,0.0,0.0,0.0,0.0,0.0,0.0,0.0,0.0,0.0,0.0,0.0,0.0,0.0,0.0,0.0,0.0,0.0,0.0,0.0,0.0,0.0,0.0,0.0,0.0,0.0,0.0,0.0,0.0,0.0,0.0,0.0,0.0,0.0,0.0,0.0,0.0,0.0,0.0,0.0,0.0,0.0,0.0,0.0,0.0,0.0,0.0,0.0,0.0,0.0,0.0,0.0,0.0,0.0,0.0,0.0,0.0,0.0,0.0,0.0,0.0,0.0,0.0,0.0,0.0,0.0,0.0,0.0,0.0,0.0,0.0,0.0,0.0,0.0,0.0,0.0,0.0,0.0,0.0,0.0,0.0,0.0,0.0,0.0,0.0,0.0,0.0,0.0,1.9952,1.9844,1.9663,1.9244,1.9161,1.885,1.8246,1.7833,1.6969,0.0,0.0,0.0,0.0,0.0,0.0,0.0,0.0,0.0,0.0,0.0,0.0,0.0,0.0,0.0,0.0,0.0,0.0,0.0,0.0,0.0,0.0,0.0,0.0,0.0,0.0,0.0,0.0,0.0,0.0,0.0,0.0,0.0,0.0,0.0,0.0,0.0,0.0,0.0,0.0,0.0,0.0,0.0,0.0,0.0,0.0,0.0,0.0,0.0,0.0,0.0,0.0,0.0,0.0,0.0,0.0,0.0,0.0,0.0,0.0,0.0,0.0,0.0,0.0,0.0,0.0,0.0,0.0,0.0,0.0,0.0,0.0,0.0,0.0,0.0,0.0,0.0,0.0,0.0,0.0,0.0,0.0,0.0,0.0,0.0,0.0,0.0,0.0,0.0,0.0,0.0,0.0,0.0,0.0,0.0,0.0,0.0,0.0,0.0,0.0,0.0,0.0,0.0,2.0361,2.0308,2.012,1.9681,1.9566,1.9221,1.8472,1.7749,1.7041,1.6426,0.0,0.0,0.0,0.0,0.0,0.0,0.0,0.0,0.0,0.0,0.0,0.0,0.0,0.0,0.0,0.0,0.0,0.0,0.0,0.0,0.0,0.0,0.0,0.0,0.0,0.0,0.0,0.0,0.0,0.0,0.0,0.0,0.0,0.0,0.0,0.0,0.0,0.0,0.0,0.0,0.0,0.0,0.0,0.0,0.0,0.0,0.0,0.0,0.0,0.0,0.0,0.0,0.0,0.0,0.0,0.0,0.0,0.0,0.0,0.0,0.0,0.0,0.0,0.0,0.0,0.0,0.0,0.0,0.0,0.0,0.0,0.0,0.0,0.0,0.0,0.0,0.0,0.0,0.0,0.0,0.0,0.0,0.0,0.0,0.0,0.0,0.0,0.0,0.0,0.0,0.0,0.0,0.0,0.0,0.0,0.0,0.0,0.0,0.0,0.0,0.0,0.0,2.0645,2.0845,2.0738,2.015,2.0259,2.0053,1.9273,1.8588,1.7993,1.7499,0.0,0.0,0.0,0.0,0.0,0.0,0.0,0.0,0.0,0.0,0.0,0.0,0.0,0.0,0.0,0.0,0.0,0.0,0.0,0.0,0.0,0.0,0.0,0.0,0.0,0.0,0.0,0.0,0.0,0.0,0.0,0.0,0.0,0.0,0.0,0.0,0.0,0.0,0.0,0.0,0.0,0.0,0.0,0.0,0.0,0.0,0.0,0.0,0.0,0.0,0.0,0.0,0.0,0.0,0.0,0.0,0.0,0.0,0.0,0.0,0.0,0.0,0.0,0.0,0.0,0.0,0.0,0.0,0.0,0.0,0.0,0.0,0.0,0.0,0.0,0.0,0.0,0.0,0.0,0.0,0.0,0.0,0.0,0.0,0.0,0.0,0.0,0.0,0.0,0.0,0.0,0.0,0.0,0.0,0.0,0.0,0.0,0.0,0.0,0.0,0.0,0.0,2.0873,2.131,2.1348,2.0683,2.1033,2.1023,2.0316,1.9897,1.9313,1.8493,0.0,0.0,0.0,0.0,0.0,0.0,0.0,0.0,0.0,0.0,0.0,0.0,0.0,0.0,0.0,0.0,0.0,0.0,0.0,0.0,0.0,0.0,0.0,0.0,0.0,0.0,0.0,0.0,0.0,0.0,0.0,0.0,0.0,0.0,0.0,0.0,0.0,0.0,0.0,0.0,0.0,0.0,0.0,0.0,0.0,0.0,0.0,0.0,0.0,0.0,0.0,0.0,0.0,0.0,0.0,0.0,0.0,0.0,0.0,0.0,2.0008,1.8975,0.0,0.0,0.0,0.0,0.0,0.0,0.0,0.0,0.0,0.0,0.0,0.0,0.0,0.0,0.0,0.0,0.0,0.0,0.0,0.0,0.0,0.0,0.0,0.0,0.0,0.0,0.0,0.0,0.0,0.0,0.0,0.0,0.0,0.0,0.0,0.0,0.0,0.0,0.0,0.0,2.152,2.1199,2.1037,2.141,2.0959,2.0408,1.996,1.9592,1.8991,1.8096,1.7569,0.0,0.0,0.0,0.0,0.0,0.0,0.0,0.0,0.0,0.0,0.0,0.0,0.0,0.0,0.0,0.0,0.0,0.0,0.0,0.0,0.0,0.0,0.0,0.0,0.0,0.0,0.0,0.0,0.0,0.0,0.0,0.0,0.0,0.0,0.0,0.0,0.0,0.0,0.0,0.0,0.0,0.0,0.0,0.0,0.0,0.0,0.0,0.0,0.0,0.0,0.0,0.0,0.0,0.0,0.0,0.0,0.0,0.0,0.0,2.2079,2.1202,0.0,0.0,0.0,0.0,0.0,0.0,0.0,0.0,0.0,0.0,0.0,0.0,0.0,0.0,0.0,0.0,0.0,0.0,0.0,0.0,0.0,0.0,0.0,0.0,0.0,0.0,0.0,0.0,0.0,0.0,0.0,0.0,0.0,0.0,0.0,0.0,0.0,0.0,0.0,0.0,2.1823,2.1623,2.1401,2.1244,2.1092,2.0763,2.0148,1.9929,1.9475,1.8619,1.7928,0.0,0.0,0.0,0.0,0.0,0.0,0.0,0.0,0.0,0.0,0.0,0.0,0.0,0.0,0.0,0.0,0.0,0.0,0.0,0.0,0.0,0.0,0.0,0.0,0.0,0.0,0.0,0.0,0.0,0.0,0.0,0.0,0.0,0.0,0.0,0.0,0.0,0.0,0.0,0.0,0.0,0.0,0.0,0.0,0.0,0.0,0.0,0.0,0.0,0.0,0.0,0.0,0.0,2.4295,2.4805,2.5943,2.5567,2.5891,2.666,2.4657,2.4176,2.4753,2.3707,0.0,0.0,0.0,0.0,0.0,0.0,0.0,0.0,0.0,0.0,0.0,0.0,0.0,0.0,0.0,0.0,0.0,0.0,0.0,0.0,0.0,0.0,2.426,2.4673,2.4518,2.397,2.2871,0.0,0.0,0.0,0.0,0.0,0.0,0.0,0.0,0.0,0.0,0.0,2.2075,2.2099,2.1842,2.1065,2.1308,2.1236,2.0503,2.044,2.0111,1.9349,1.8427,1.7833,0.0,0.0,0.0,0.0,0.0,0.0,0.0,0.0,0.0,0.0,0.0,0.0,0.0,0.0,0.0,0.0,0.0,0.0,0.0,0.0,0.0,0.0,0.0,0.0,0.0,0.0,0.0,0.0,0.0,0.0,0.0,0.0,2.4435,2.4967,0.0,0.0,0.0,0.0,0.0,0.0,0.0,0.0,0.0,0.0,0.0,0.0,0.0,2.3879,2.5198,2.6771,2.802,2.8969,2.9892,3.0117,2.9767,2.9711,2.9456,2.9039,2.8716,0.0,2.6941,2.7335,0.0,0.0,0.0,0.0,0.0,0.0,0.0,0.0,0.0,0.0,0.0,0.0,0.0,0.0,0.0,0.0,0.0,0.0,0.0,0.0,0.0,0.0,2.6157,2.5605,2.543,2.5333,2.5161,2.4067,2.3271,2.3861,2.4154,2.4172,0.0,0.0,0.0,0.0,0.0,0.0,2.2653,2.1955,2.1601,2.2036,2.1337,2.0787,2.0675,2.056,2.018,1.943,1.9242,1.8918,1.8382,1.819,0.0,0.0,0.0,0.0,0.0,0.0,0.0,0.0,0.0,0.0,0.0,0.0,0.0,0.0,0.0,0.0,0.0,0.0,0.0,0.0,0.0,0.0,0.0,0.0,0.0,0.0,0.0,0.0,0.0,2.3989,2.4954,2.5574,2.5387,2.483,0.0,0.0,0.0,0.0,0.0,0.0,0.0,0.0,0.0,2.691,2.7019,2.7672,2.894,2.9734,3.032,3.0682,3.0866,3.0946,3.0937,3.066,3.053,3.0602,3.1031,3.0614,2.9595,2.8725,2.8102,2.7624,0.0,0.0,0.0,0.0,2.6231,2.6374,2.7366,2.723,2.6752,2.7316,0.0,0.0,0.0,0.0,0.0,0.0,0.0,2.6202,2.5461,2.5832,2.6327,2.5999,2.6045,2.6001,2.5445,2.4474,2.3865,2.4444,2.4212,2.3995,2.4202,2.4215,0.0,0.0,0.0,2.3007,2.3373,2.2475,2.1865,2.2012,2.1613,2.123,2.1006,2.0893,2.0588,2.0057,1.9667,1.9319,1.9007,1.8789,1.8686,0.0,0.0,0.0,0.0,0.0,0.0,0.0,0.0,0.0,0.0,0.0,0.0,0.0,0.0,0.0,0.0,0.0,0.0,0.0,0.0,0.0,0.0,0.0,0.0,0.0,0.0,0.0,0.0,2.5894,2.6687,2.6638,2.7172,2.6878,0.0,0.0,0.0,0.0,0.0,0.0,2.7768,2.7808,2.8511,3.0199,3.0369,3.0956,3.199,3.2146,3.2212,3.2186,3.1732,3.1543,3.1575,3.1206,3.1157,3.1449,3.2005,3.2049,3.1603,2.9896,2.9187,2.908,2.7891,2.7397,2.7468,2.7911,2.8266,2.8691,2.972,2.9648,2.9193,2.9209,2.867,2.7736,2.6532,0.0,0.0,0.0,0.0,2.6519,2.5786,2.6049,2.6453,2.6342,2.63,2.6118,2.543,2.4545,2.4029,2.4512,2.3966,2.362,2.4256,2.4381,0.0,2.5183,2.4313,2.369,2.3888,2.2916,2.2108,2.1926,2.184,2.1631,2.1261,2.1182,2.0975,2.0578,2.0249,2.0044,1.9977,1.9679,1.9476,1.9455,0.0,0.0,0.0,0.0,0.0,0.0,0.0,0.0,0.0,0.0,0.0,0.0,0.0,0.0,0.0,0.0,0.0,0.0,0.0,0.0,0.0,0.0,0.0,0.0,0.0,0.0,0.0,0.0,0.0,2.9345,3.1346,0.0,0.0,0.0,0.0,2.9499,2.9524,2.9791,3.0376,3.0401,3.0725,3.1373,3.1965,3.2639,3.3402,3.3902,3.4233,3.4349,3.4319,3.3646,3.2437,3.2393,3.2079,3.1497,3.1526,3.1884,3.2378,3.1662,3.0305,2.8652,2.7956,2.7668,2.7695,2.7723,2.8485,2.9537,2.9606,2.9522,2.9369,2.9304,2.8542,2.7498,2.6794,2.6398,0.0,0.0,2.6337,2.7079,2.6349,2.6699,2.714,2.6688,2.6,2.5529,2.572,2.4486,2.3476,2.3949,2.3592,2.3383,2.393,0.0,2.5462,2.4751,2.4535,2.4334,2.4029,2.2938,2.2192,2.2178,2.1955,2.1646,2.1324,2.1293,2.1119,2.0726,2.1257,2.1551,2.1499,2.1481,2.1463,2.1448,2.0771,0.0,0.0,0.0,0.0,0.0,0.0,0.0,0.0,0.0,0.0,0.0,0.0,0.0,0.0,0.0,0.0,0.0,0.0,0.0,0.0,0.0,0.0,0.0,0.0,0.0,0.0,0.0,0.0,3.183,3.3592,0.0,3.1787,3.2131,3.2169,3.1329,3.1997,3.2746,3.3413,3.3401,3.3674,3.4377,3.4614,3.4845,3.5117,3.531,3.5197,3.4817,3.4817,3.4121,3.2808,3.2808,3.2445,3.1811,3.1811,3.1962,3.2157,3.1726,3.1129,3.0477,3.0126,2.9735,2.9411,2.9719,3.012,3.0556,3.0961,3.0734,3.0282,3.0109,2.9176,2.8076,2.7833,2.7368,2.6783,2.618,2.6758,2.7407,2.6705,2.6438,2.6286,2.6131,2.5595,2.4987,2.4481,2.4022,2.3738,2.3913,2.3713,2.3721,2.4348,2.5008,2.5619,2.6015,2.5435,2.4908,2.4788,2.394,2.3175,2.2649,2.245,2.2243,2.1909,2.188,2.1643,2.1119,2.1311,2.1307,2.1037,2.102,2.097,2.0886,2.0635,2.051,0.0,0.0,0.0,0.0,0.0,0.0,0.0,0.0,0.0,0.0,0.0,0.0,0.0,0.0,0.0,0.0,0.0,0.0,0.0,0.0,0.0,0.0,0.0,0.0,0.0,3.2733,3.4018,3.3105,3.4903,3.5307,3.303,3.3937,3.4319,3.3483,3.4156,3.4815,3.5305,3.5287,3.5494,3.5973,3.6005,3.6005,3.6005,3.6005,3.575,3.5278,3.5278,3.4845,3.395,3.3689,3.3472,3.3268,3.3023,3.2915,3.2912,3.2728,3.2338,3.1799,3.1197,3.0845,3.0653,3.0761,3.0947,3.1227,3.1797,3.1531,3.0835,3.0381,2.945,2.8405,2.7906,2.7424,2.6963,2.6604,2.6944,2.7351,2.7009,2.6612,2.63,2.6394,2.5883,2.5181,2.4381,2.4112,2.4029,2.4029,2.389,2.4022,2.481,2.539,2.597,2.6692,2.6135,2.5638,2.5638,2.4694,2.3836,2.3289,2.2946,2.2598,2.2261,2.222,2.1996,2.151,2.1677,2.1681,2.1423,2.1292,2.1209,2.1109,2.0888,2.0811,2.0877,0.0,0.0,0.0,0.0,0.0,0.0,0.0,0.0,0.0,0.0,0.0,0.0,0.0,0.0,0.0,0.0,0.0,0.0,0.0,0.0,0.0,0.0,0.0,3.3598,3.4537,3.486,3.3382,3.5565,3.6353,3.4364,3.5369,3.6081,3.6035,3.6035,3.6035,3.6005,3.6005,3.6005,3.6005,3.6005,3.6005,3.6005,3.6037,3.5999,3.5937,3.5966,3.5922,3.5814,3.5102,3.515,3.5765,3.5038,3.4707,3.4707,3.4717,3.3899,3.2504,3.0991,3.0784,3.1269,3.0671,3.0855,3.1462,3.1974,3.1694,3.0926,3.0005,2.9247,2.8429,2.6971,2.6519,2.6572,2.684,2.6921,2.7001,2.7332,2.7319,2.7257,2.7532,2.6867,2.6045,2.5522,2.4835,2.4339,2.4361,2.4169,2.4298,2.5273,2.609,2.6634,2.6634,2.6576,0.0,2.6498,2.5111,2.4142,2.4108,2.3319,2.2664,2.2358,2.2261,2.211,2.184,2.2428,2.2778,2.2778,2.2459,2.228,2.228,2.1649,2.1417,2.1613,0.0,0.0,0.0,0.0,0.0,0.0,0.0,0.0,0.0,0.0,0.0,0.0,0.0,0.0,0.0,0.0,0.0,0.0,0.0,0.0,0.0,3.4984,3.6643,3.5765,3.7594,3.8903,3.8485,3.9566,3.9719,3.8144,3.8323,3.8146,3.7164,3.7088,3.6888,3.6398,3.6352,3.6352,3.6352,3.6352,3.6352,3.6352,3.68,3.7024,3.6999,3.7435,3.7391,3.6875,3.667,3.6438,3.6108,3.5386,3.5037,3.4972,3.4781,3.4481,3.3998,3.2892,3.2315,3.205,3.1699,3.1345,3.1047,3.1207,3.112,3.0825,2.9975,2.9247,2.8529,2.7522,2.7011,2.6841,2.7004,2.7305,2.7577,2.7725,2.742,2.7069,2.7138,2.6441,2.5711,2.5584,2.5306,2.5261,2.5858,2.5908,2.5946,2.623,2.6911,2.7403,2.7403,2.7388,2.7181,2.664,2.5635,2.4772,2.4226,2.3345,2.2773,2.2743,2.2664,2.2514,2.2248,2.235,2.2356,2.2169,2.2019,2.1943,2.1943,2.1761,2.1676,0.0,0.0,0.0,0.0,0.0,0.0,0.0,0.0,0.0,0.0,0.0,0.0,0.0,0.0,0.0,0.0,0.0,0.0,0.0,0.0,0.0,0.0,3.6674,3.809,3.8147,3.9287,4.0074,4.0074,3.997,3.9677,3.9139,3.8585,3.8046,3.7538,3.723,3.7017,3.6877,3.6877,3.6983,3.7252,3.7252,3.7252,3.7252,3.7592,3.7911,3.8169,3.849,3.8608,3.8464,3.815,3.7978,3.7855,3.7118,3.6761,3.6695,3.6238,3.5845,3.5461,0.0,0.0,0.0,0.0,3.1857,3.1436,3.1133,3.1032,3.0917,3.0279,2.9812,2.9373,2.8767,2.8422,2.8288,2.8462,2.8707,2.8905,2.8737,2.838,2.7995,2.7678,2.7125,2.6588,2.6268,2.6131,2.618,2.6605,2.6679,0.0,2.7031,2.742,2.7701,2.7701,2.7701,2.7438,2.6686,2.5869,2.5067,2.4327,2.3423,2.2906,2.2944,2.2881,0.0,0.0,0.0,2.2416,2.2124,2.2068,0.0,0.0,0.0,2.2084,2.2215,2.2186,0.0,0.0,2.2261,2.2397,0.0,0.0,0.0,0.0,0.0,0.0,0.0,0.0,0.0,0.0,0.0,0.0,0.0,0.0,0.0,0.0,3.8277,3.9534,4.0647,4.0318,3.9926,3.9754,3.8692,3.8171,3.8668,3.765,3.7157,3.7668,3.7142,3.703,3.7476,3.749,0.0,0.0,0.0,3.8468,3.8549,3.8606,3.8897,3.9322,3.9375,3.9659,4.0079,3.9436,3.9486,4.0062,3.9334,3.8988,3.8937,3.8108,3.733,3.6518,3.5037,3.4403,3.4189,3.2996,3.2446,3.2209,3.1565,0.0,0.0,3.0744,3.0628,3.0595,3.0214,3.0113,3.0174,3.0431,3.0534,3.046,3.0044,2.9782,2.9436,2.8725,2.8398,2.8036,2.7308,2.7152,2.7094,2.6978,2.6969,2.714,2.7666,2.773,2.7701,2.7701,2.7701,2.7438,2.6686,2.5897,2.5121,2.4392,2.3513,0.0,2.302,2.2957,2.2902,2.2932,2.2919,2.2769,2.248,2.2466,2.2466,2.2466,2.2399,2.251,2.2816,2.2751,2.2725,2.2729,2.2773,2.2941,0.0,0.0,0.0,0.0,0.0,0.0,0.0,0.0,0.0,0.0,0.0,0.0,0.0,0.0,0.0,3.9178,4.0514,4.1646,4.2393,4.2766,4.2538,4.1361,4.097,4.0591,4.0065,3.9864,3.9502,3.8987,3.8884,3.8621,3.8157,3.8124,3.844,3.9165,3.9181,3.9486,4.0083,4.0561,4.0563,4.0078,4.0584,0.0,4.0096,3.996,3.9977,4.0062,3.9334,3.8988,3.8886,3.755,3.6552,3.5785,3.5476,3.4986,3.4433,3.4167,3.3326,3.2276,3.2141,3.1864,3.1482,3.0817,3.082,3.0952,3.0312,3.0251,0.0,3.049,3.0697,3.0893,3.0785,3.0265,2.9727,2.9564,2.894,2.8317,2.8156,2.804,2.7955,2.7928,2.7932,2.7968,2.8069,2.7876,2.7701,2.7701,2.7701,2.7438,2.6686,2.5897,2.5121,2.4392,2.3513,2.3033,2.3082,2.3033,2.299,2.307,2.302,2.2927,2.2812,2.2794,2.2794,2.2794,2.2782,2.2825,2.2881,2.2881,2.2868,2.2855,2.2756,2.2784,0.0,0.0,0.0,0.0,0.0,0.0,0.0,0.0,0.0,0.0,0.0,3.746,3.8135,0.0,3.8887,4.0812,4.1435,4.196,4.2872,4.3172,4.3039,4.2295,4.1811,4.153,4.147,4.0877,4.0485,4.0402,4.0105,3.9939,3.9865,3.9849,4.0153,4.084,4.084,4.1022,4.1399,4.171,4.1496,4.0759,4.1057,4.0798,4.0096,4.0096,4.0096,4.0079,3.9723,3.9554,3.9469,3.8369,3.7335,3.6505,3.6505,3.5907,3.5013,3.4641,3.3943,3.3106,3.273,3.2331,3.1969,3.1775,3.1836,3.1962,3.1796,3.1858,3.1959,3.1959,3.208,3.2107,3.1723,3.1292,3.0908,3.0509,2.9718,2.9106,2.9106,2.8729,2.8393,2.8313,2.83,2.8286,2.8201,2.8063,2.7947,2.7947,2.7614,2.7183,2.676,2.6002,2.5196,2.4392,2.3551,2.3052,2.3107,2.3082,2.3052,2.3107,2.3082,2.3045,2.3008,2.3008,2.3008,2.3008,2.297,2.2957,2.2957,2.2919,2.2906,2.2906,2.2829,2.2829,0.0,0.0,0.0,0.0,0.0,0.0,0.0,3.8316,3.819,3.8459,3.8486,3.8815,3.9911,3.9766,4.0171,4.2371,4.2252,4.2285,4.3307,4.3347,4.3273,4.3273,4.2356,4.1902,4.2432,4.1645,4.1232,4.1615,4.1298,4.1206,4.1544,4.1572,4.186,4.2506,4.2506,4.2574,4.277,4.277,4.2286,4.1407,4.1407,4.095,4.0096,4.0096,4.0096,4.0096,4.0096,4.0061,3.9991,3.9397,3.8608,3.778,3.778,3.7162,3.6217,3.5296,3.4703,3.4261,3.3658,3.3104,3.2664,3.2946,3.2985,3.2972,3.3301,3.3393,3.3393,3.3393,3.3393,3.3248,3.2596,3.2325,3.1999,3.1197,3.0382,2.9766,2.9603,2.9065,2.8562,2.8458,2.8432,2.8406,2.83,2.8143,2.8076,2.8183,2.7656,2.7139,2.6872,2.6269,2.5485,2.4443,2.3766,2.3302,2.3125,2.3107,2.3107,2.3107,2.3107,2.3107,2.3107,2.3107,2.3107,2.3107,2.3057,2.3033,2.3033,2.297,2.2944,2.2944,2.299,2.2977,3.4303,3.4623,3.6159,3.8665,3.8886,3.9139,0.0,4.1146,4.0609,4.1841,4.2077,4.2071,4.2232,4.2615,4.323,4.4123,4.4192,4.4373,4.5052,4.5025,4.4944,4.4944,4.3413,4.2396,4.2413,4.2864,4.2883,4.2274,4.2755,4.2816,4.224,4.2206,4.2537,4.324,4.3274,4.3623,4.4344,4.4344,4.3616,4.2168,4.2168,4.1467,4.0096,4.0096,4.0096,4.0096,4.0096,3.9954,3.9749,3.9663,3.9406,3.9091,3.9091,3.9,3.8713,3.7201,3.6188,3.5579,3.551,3.4747,3.3815,3.3847,3.3627,3.3349,3.3396,3.3393,3.3393,3.3393,3.3393,3.3375,3.3284,3.2741,3.1999,3.1197,3.0382,2.9603,2.8889,2.8654,2.8587,2.8574,2.8574,2.8574,2.8562,2.7965,2.7655,2.8121,2.8116,2.7799,2.7072,2.6911,2.6249,2.466,2.4399,2.4019,2.3172,2.3107,2.3107,2.3107,2.3107,2.3107,2.3107,2.3107,2.3107,2.3107,2.3077,2.3095,2.3095,2.3082,2.3082,2.3077,2.3319,2.3271,3.7213,3.741,3.816,3.9756,3.9929,4.0135,4.1699,4.1549,4.142,4.243,4.2905,4.3139,4.3139,4.3333,4.3718,4.4373,4.4502,4.4714,4.5318,4.5274,4.5203,4.5203,4.484,4.4586,4.4547,4.5089,4.5303,4.5055,4.4863,4.4604,4.4299,4.3859,4.3775,4.4079,4.3656,4.3792,4.4598,4.3718,4.2956,4.2286,4.1863,4.1102,4.0096,4.0096,4.0254,4.0507,4.0507,4.0606,4.0737,4.0737,4.0569,4.0299,4.0299,4.0172,3.9793,3.8188,3.7269,3.6715,3.6254,3.5632,3.5053,3.5053,3.4609,3.419,3.4661,3.4464,3.4208,3.4645,3.4461,3.4099,3.4099,3.3502,3.2814,3.2488,3.1419,3.0418,3.0079,2.9251,2.86,2.86,2.86,2.86,2.86,2.8328,2.8164,2.8404,2.8018,2.7759,2.7807,2.7412,2.646,2.4795,2.4207,2.3726,2.3247,2.3289,2.3301,2.3217,2.3217,2.3217,2.3217,2.3144,2.3107,2.3107,2.318,2.3217,2.3217,2.3318,2.3399,2.3399,2.358,2.3591,3.8713,3.8807,3.8965,4.0277,4.0735,4.1116,4.1978,4.2093,4.2276,4.3013,4.3498,4.3794,4.3794,4.3893,4.4253,4.4958,4.5092,4.5299,4.5947,4.5937,4.591,4.591,4.6237,4.6565,4.6827,4.6885,4.6876,4.6714,4.6293,4.585,4.5415,4.5077,4.4818,4.4615,4.3826,4.369,4.4248,4.2946,4.2286,4.2286,4.1542,4.0916,4.04,4.0331,4.0483,4.0802,4.0926,4.1253,4.1678,4.1678,4.1614,4.152,4.152,4.1245,4.0691,3.9519,3.8625,3.79,3.7112,3.6529,3.6127,3.6127,3.5602,3.5025,3.5623,3.5388,3.5044,3.5641,3.5369,3.4917,3.4917,3.4516,3.39,3.323,3.218,3.1175,3.0557,2.9504,2.8687,2.8687,2.8687,2.8662,2.8612,2.865,2.8687,2.8687,2.8227,2.8009,2.8399,2.7533,2.6344,2.4915,2.4004,2.3471,2.336,2.343,2.3471,2.336,2.3348,2.3372,2.3412,2.3313,2.3289,2.3318,2.3429,2.3474,2.3474,2.3617,2.3685,2.3685,2.3868,2.3929,3.7194,3.7038,3.715,3.9914,4.1083,4.1928,4.3235,4.3525,4.3749,4.4408,4.4503,4.4474,4.4474,4.4934,4.5585,4.6414,4.6552,4.6793,4.7517,4.762,4.762,4.762,4.7544,4.7808,4.8626,4.786,4.6914,4.5994,4.6561,4.6282,4.4716,4.528,4.5331,4.4632,4.3826,4.3409,4.3426,4.2675,4.2286,4.2286,4.1542,4.1187,4.1179,4.0898,4.0778,4.0825,4.1276,4.176,4.2177,4.2177,4.244,4.2846,4.2846,4.2356,4.1669,4.1614,4.0637,3.9225,3.8427,3.7612,3.6959,3.6959,3.6417,3.5768,3.5786,3.5768,3.5768,3.5786,3.5768,3.575,3.575,3.575,3.5134,3.2795,3.2198,3.1583,2.9442,2.893,2.8893,2.8893,2.8893,2.8834,2.8637,2.8761,2.8893,2.8893,2.8982,2.8941,2.8619,2.7157,2.5823,2.4977,2.4061,2.3505,2.3494,2.3505,2.3505,2.3494,2.3494,2.3549,2.3682,2.3682,2.3738,2.3864,2.3875,2.3875,2.3875,2.3885,2.3885,2.3895,2.4154,2.4275,3.778,3.8318,3.9029,4.1399,4.2123,4.2494,4.338,4.4284,4.4849,4.4586,4.4811,4.4959,4.4445,4.493,4.5311,4.5096,4.6337,4.7052,4.6276,4.7034,4.7527,4.7044,4.7799,4.846,4.8775,4.834,4.8162,4.8396,4.8121,4.7471,4.6391,4.6017,4.5292,4.4177,4.378,4.3573,4.3539,4.2792,4.2392,4.2296,4.1375,4.0933,4.0957,4.1146,4.1432,4.1739,4.1906,4.2239,4.2673,4.2767,4.2843,4.2919,4.2994,4.2867,4.2559,4.2032,4.1542,4.0922,3.9493,3.8808,3.8517,3.7973,3.7249,3.6689,3.7232,3.7015,3.6707,3.7232,3.6997,3.6598,3.6598,3.62,3.5587,3.4772,3.3375,3.2018,3.1415,3.0442,2.9557,2.9122,2.9506,2.9685,2.9046,2.9,2.9034,2.9034,2.9071,2.8876,2.8216,2.7175,2.6193,2.5387,2.5019,2.4584,2.3953,2.4472,2.4555,2.3935,2.3888,2.3919,2.3961,2.3873,2.3844,2.3895,2.3983,2.404,2.404,2.4164,2.4229,2.4238,2.4418,2.4488,3.8128,3.9166,4.0306,4.2204,4.2799,4.3086,4.376,4.4599,4.5117,4.4854,4.4917,4.4872,4.4397,4.4682,4.4854,4.438,4.5751,4.6707,4.6276,4.7069,4.7751,4.782,4.8379,4.8896,4.9189,4.8793,4.8757,4.9279,4.9037,4.8384,4.7284,4.6942,4.6021,4.4356,4.3941,4.3615,4.3265,4.2542,4.2202,4.2304,4.1901,4.1503,4.1151,4.1565,4.1909,4.2198,4.2436,4.2691,4.2957,4.2796,4.2832,4.2995,4.2796,4.2705,4.2687,4.245,4.2213,4.1738,4.0034,3.9439,3.9294,3.8462,3.7846,3.7538,3.8046,3.7863,3.7571,3.8064,3.7845,3.7462,3.743,3.7051,3.6453,3.5616,3.4247,3.298,3.2362,3.1434,3.0614,3.0172,3.0305,3.0283,2.9662,2.9362,2.9241,2.9304,2.9314,2.8872,2.7627,2.6767,2.5965,2.5161,2.506,2.4838,2.4219,2.4709,2.482,2.4201,2.4164,2.4183,2.4248,2.4164,2.4136,2.4174,2.4275,2.4301,2.4301,2.4451,2.451,2.451,2.4604,2.4647,3.8308,3.9606,4.0956,4.2322,4.3108,4.3735,4.4395,4.4581,4.4748,4.5291,4.482,4.4276,4.4207,4.4259,4.4294,4.4259,4.4992,4.6052,4.7431,4.7717,4.8303,4.9769,4.924,4.9103,4.9924,4.9321,4.8787,4.8638,4.9296,4.9044,4.7472,4.8013,4.7364,4.5073,4.4373,4.3603,4.2732,4.2064,4.196,4.2398,4.3034,4.2754,4.1735,4.2113,4.2239,4.2279,4.2861,4.3104,4.305,4.2358,4.2522,4.3123,4.2358,4.2066,4.2156,4.2923,4.274,4.1846,4.0211,3.9613,3.9432,3.855,3.8209,3.8154,3.8191,3.8223,3.8236,3.8224,3.8257,3.829,3.8242,3.8225,3.7644,3.5381,3.4878,3.4348,3.2285,3.1909,3.196,3.1933,3.1251,3.0631,3.0469,2.9917,2.9538,2.9673,2.9654,2.8933,2.6977,2.6058,2.5263,2.4404,2.4358,2.4376,2.4312,2.4358,2.4376,2.4312,2.4312,2.4384,2.4503,2.4512,2.4569,2.47,2.47,2.47,2.47,2.47,2.47,2.47,2.47,2.47,3.9792,4.1047,4.2324,4.3072,4.3764,4.4422,4.5167,4.5704,4.5942,4.5491,4.482,4.3949,4.281,4.3534,4.4121,4.3569,4.5992,4.7672,4.6993,4.781,4.8654,4.9051,4.8913,4.9103,4.9924,4.9821,4.943,4.8787,4.9487,4.9476,4.8466,4.8506,4.7562,4.536,4.5537,4.4931,4.3385,4.3424,4.3511,4.3648,4.3628,4.3147,4.2304,4.2751,4.2957,4.2957,4.3123,4.3178,4.316,4.3086,4.3104,4.3178,4.3067,4.303,4.3084,4.3267,4.3247,4.2951,4.1877,4.1042,4.0319,3.9451,3.8363,3.7493,3.8092,3.7873,3.7542,3.8172,3.8368,3.8368,3.8352,3.8352,3.8107,3.711,3.5979,3.4892,3.4046,3.3408,3.2859,3.2306,3.2023,3.1685,3.1101,3.0809,3.0471,2.9858,2.9174,2.8333,2.7221,2.6894,2.6221,2.4754,2.5174,2.5294,2.4642,2.5192,2.5294,2.4642,2.4604,2.4602,2.4653,2.466,2.4676,2.47,2.47,2.47,2.47,2.47,2.47,2.47,2.47,2.47,4.0733,4.1877,4.3032,4.3337,4.4148,4.4923,4.5009,4.5331,4.5372,4.4596,4.382,4.3034,4.2171,4.3,4.3672,4.3276,4.5234,4.6769,4.6631,4.7,4.7551,4.8224,4.831,4.8603,4.9407,4.9465,4.9413,4.9327,4.9752,4.9528,4.8379,4.8563,4.752,4.501,4.5241,4.4888,4.3751,4.4074,4.4369,4.4586,4.4007,4.3451,4.2884,4.3123,4.3214,4.3196,4.3251,4.3305,4.3268,4.3009,4.3082,4.3285,4.3044,4.3135,4.3446,4.3446,4.3243,4.2947,4.2804,4.1727,4.0324,3.9717,3.8463,3.7244,3.7683,3.7278,3.6762,3.7234,3.7374,3.7463,3.7797,3.7945,3.7893,3.7275,3.6554,3.5775,3.4843,3.4336,3.3828,3.3072,3.2902,3.2655,3.1865,3.1682,3.1344,3.053,2.9887,2.9091,2.7959,2.7455,2.6697,2.5402,2.571,2.5654,2.4782,2.5139,2.5214,2.4718,2.47,2.47,2.47,2.47,2.47,2.47,2.47,2.47,2.47,2.47,2.47,2.47,2.47,2.47,4.1443,4.2499,4.3461,4.3434,4.4407,4.5225,4.4578,4.438,4.4087,4.3345,4.2568,4.1981,4.1878,4.2499,4.3103,4.331,4.3966,4.4975,4.6544,4.6138,4.6242,4.7672,4.7844,4.8137,4.8879,4.8947,4.9189,4.9804,4.9942,4.9424,4.8068,4.8413,4.74,4.4638,4.447,4.4349,4.4223,4.443,4.4728,4.5113,4.4308,4.3738,4.3394,4.3286,4.3232,4.3251,4.3358,4.3394,4.3356,4.2711,4.2873,4.3441,4.2727,4.2892,4.3515,4.3515,4.3057,4.2561,4.3259,4.1974,4.0013,3.9707,3.8453,3.7049,3.7049,3.6529,3.5952,3.6024,3.616,3.6439,3.7122,3.7537,3.7632,3.6939,3.6962,3.6756,3.5387,3.5087,3.4879,3.4206,3.3969,3.3608,3.2762,3.255,3.2211,3.1351,3.1053,3.0387,2.8957,2.7966,2.7033,2.6094,2.6008,2.567,2.4764,2.47,2.47,2.47,2.47,2.47,2.47,2.47,2.47,2.47,2.47,2.47,2.47,2.47,2.47,2.47,2.47,2.47,4.2814,4.3614,4.4276,4.4148,4.4776,4.5363,4.5225,4.4734,4.4087,4.3345,4.2568,4.1826,4.1205,4.1705,4.2637,4.3897,4.4734,4.5742,4.7276,4.7379,4.762,4.8499,4.8603,4.8913,4.9717,4.9804,4.9579,4.9034,4.9631,4.989,4.9631,4.8499,4.7278,4.5922,4.5334,4.5342,4.5969,4.5105,4.4711,4.4766,4.462,4.418,4.348,4.3463,4.3463,4.3463,4.348,4.348,4.3462,4.3332,4.3369,4.3496,4.3349,4.3386,4.3515,4.3515,4.3423,4.3296,4.346,4.2359,4.0767,4.001,3.8186,3.6285,3.6285,3.5747,3.5282,3.6025,3.6732,3.7338,3.7692,3.8308,3.8737,3.8342,3.774,3.7248,3.7185,3.6595,3.6063,3.602,3.5385,3.4617,3.3843,3.3623,3.3031,3.1518,3.1159,3.0722,2.9788,2.8906,2.7756,2.6177,2.6045,2.5702,2.4782,2.47,2.47,2.47,2.47,2.47,2.47,2.47,2.47,2.47,2.47,2.47,2.47,2.47,2.47,2.47,2.47,2.47,4.2538,4.3195,4.38,4.3749,4.4294,4.4734,4.4337,4.3647,4.2896,4.2154,4.1705,4.1326,4.0981,4.1516,4.2378,4.3534,4.4363,4.5234,4.6345,4.6845,4.7269,4.7603,4.7982,4.8517,4.9292,4.939,4.9407,4.9441,4.9378,4.9034,4.8286,4.6612,4.5358,4.4703,4.424,4.4384,4.52,4.4455,4.4287,4.4691,4.4287,4.3864,4.3515,4.3515,4.3515,4.3515,4.3515,4.3515,4.3515,4.3515,4.3515,4.3515,4.3515,4.3515,4.3515,4.3515,4.3239,4.2928,4.3349,4.2451,4.0967,4.0127,3.8496,3.6754,3.6318,3.5929,3.5618,3.5628,3.5899,3.6374,3.7098,3.7634,3.8115,3.8507,3.803,3.7442,3.7132,3.7047,3.68,3.5976,3.5836,3.5579,3.4762,3.4533,3.3919,3.2275,3.187,3.1348,3.0151,2.9641,2.8874,2.7538,2.704,2.6416,2.5559,2.5061,2.479,2.479,2.479,2.479,2.479,2.4764,2.4742,2.4742,2.4723,2.47,2.47,2.4746,2.4742,2.4742,2.4794,2.4825,4.1967,4.2706,4.3396,4.3241,4.3741,4.4104,4.3362,4.2585,4.1809,4.105,4.0912,4.0912,4.0912,4.1378,4.2085,4.3034,4.3534,4.4165,4.5242,4.6086,4.6665,4.6837,4.7648,4.8413,4.8999,4.9051,4.9269,4.9717,4.8844,4.7796,4.6567,4.5373,4.4478,4.3999,4.3873,4.4103,4.4739,4.4089,4.4066,4.4691,4.3883,4.3515,4.3515,4.3515,4.3515,4.3515,4.3515,4.3515,4.3515,4.3515,4.3515,4.3515,4.3515,4.3515,4.3515,4.3515,4.3094,4.2653,4.3277,4.2561,4.1203,4.0212,3.8814,3.7327,3.6321,3.5899,3.5624,3.4931,3.4876,3.5216,3.6247,3.6749,3.7182,3.7978,3.7918,3.7521,3.6882,3.7254,3.7311,3.5993,3.6156,3.6214,3.5354,3.517,3.463,3.3188,3.2667,3.1954,3.0586,3.0224,2.9813,2.9103,2.8226,2.73,2.6292,2.5743,2.5307,2.4921,2.5072,2.5091,2.4902,2.4858,2.4823,2.4823,2.4764,2.4836,2.5024,2.5065,2.52,2.5378,2.5423,2.5499,4.1852,4.3086,4.4035,4.3362,4.3741,4.4104,4.3362,4.2585,4.1809,4.105,4.0912,4.0912,4.0912,4.0963,4.1481,4.2965,4.2637,4.2957,4.5087,4.6086,4.6855,4.7527,4.8907,4.9821,4.989,4.989,4.9631,4.8947,4.7614,4.6637,4.6245,4.7103,4.7169,4.623,4.6535,4.6745,4.6818,4.5333,4.4635,4.4691,4.3883,4.3515,4.3515,4.3515,4.3515,4.3515,4.3515,4.3515,4.3515,4.3515,4.3515,4.3515,4.3515,4.3515,4.3515,4.3515,4.346,4.3387,4.3478,4.291,4.1937,4.0396,3.8814,3.7199,3.5591,3.4601,3.4009,3.3935,3.4435,3.5142,3.5741,3.6441,3.6949,3.6748,3.7217,3.7674,3.7617,3.7655,3.7655,3.7502,3.6948,3.6214,3.5354,3.5201,3.4896,3.4006,3.3133,3.23,3.1481,3.0635,3.0087,3.0068,2.9236,2.8004,2.6337,2.6842,2.6596,2.4996,2.5648,2.5724,2.4921,2.4895,2.4895,2.4895,2.4888,2.5267,2.6062,2.607,2.6475,2.7252,2.7259,2.7266,4.1822,4.3138,4.4225,4.3931,4.3741,4.3552,4.3276,4.224,4.1257,4.0963,4.0912,4.0912,4.0912,4.0912,4.1101,4.1723,4.193,4.2319,4.3233,4.482,4.6155,4.6958,4.8344,4.9275,4.9275,4.9275,4.8786,4.7551,4.6941,4.6604,4.6613,4.6634,4.6471,4.6153,4.581,4.5663,4.5663,4.4544,4.3975,4.3975,4.3662,4.3515,4.3515,4.3515,4.3515,4.3515,4.3515,4.3515,4.3515,4.3515,4.3515,4.3515,4.3515,4.3515,4.3515,4.3515,4.3515,4.3515,4.3515,4.3277,4.2837,4.1699,4.0579,3.9368,3.7719,3.6986,3.6652,3.6156,3.5639,3.5328,3.5705,3.6604,3.7519,3.7906,3.7846,3.7559,3.7082,3.7368,3.7406,3.6394,3.6347,3.6214,3.5354,3.5209,3.4751,3.3433,3.2905,3.2191,3.0892,3.0393,3.0176,3.0204,2.9393,2.8583,2.7889,2.7698,2.7317,2.6631,2.6917,2.6955,2.6593,2.6033,2.5994,2.6514,2.5979,2.6103,2.6975,2.7025,2.7224,2.7566,2.7601,2.765,4.1829,4.3138,4.4311,4.4311,4.3741,4.3189,4.3189,4.2016,4.0912,4.0912,4.0912,4.0912,4.0912,4.0912,4.0912,0.0,0.0,4.1757,4.1981,4.3595,4.5044,4.5837,4.7017,4.7879,4.812,4.8137,4.7707,4.6682,4.6389,4.6446,4.6875,4.635,4.6125,4.625,4.5718,4.5296,4.5057,4.4268,4.3846,4.3846,4.3608,4.3515,4.3515,4.3515,4.3515,4.3515,4.3515,4.3515,4.3478,4.3239,4.3277,4.3478,4.3239,4.3277,4.3515,4.3515,4.3515,4.3515,4.3515,4.3515,4.3369,4.2561,4.2084,4.1515,3.99,3.9093,3.8524,3.7731,3.6712,3.5831,3.5595,3.6435,3.7426,3.7789,3.7406,3.6871,3.6576,3.6948,3.7005,3.5812,3.608,3.6214,3.5354,3.5209,3.48,3.3616,3.3234,3.2669,3.1491,3.0892,3.0586,3.0586,2.9803,2.9185,2.8911,2.8612,2.8236,2.774,2.7924,2.7943,2.772,2.7077,2.7,2.7616,2.6979,2.7058,2.7913,2.7951,2.8112,2.8367,2.844,2.8543,4.1852,4.3138,4.4311,4.4311,4.3741,4.3189,4.3189,4.2016,4.0912,4.0912,4.0912,4.0912,4.0912,4.0912,4.0912,4.0912,4.0912,4.117,4.1912,4.2706,4.35,4.4242,4.4992,4.5742,4.6562,4.6631,4.6631,4.6613,4.5845,4.5854,4.684,4.689,4.6953,4.7094,4.7076,4.6691,4.5902,4.5094,4.469,4.4673,4.3883,4.3515,4.3515,4.3515,4.3515,4.3515,4.3515,4.3515,4.3441,4.2635,4.2782,4.3423,4.2616,4.28,4.3515,4.3515,4.3515,4.3515,4.3515,4.3515,4.3369,4.2561,4.2818,4.3167,4.157,3.9958,3.8524,3.7731,3.7249,3.6656,3.5266,3.572,3.629,3.543,3.5229,3.545,3.6328,3.6519,3.6519,3.6481,3.6481,3.6214,3.5354,3.5209,3.519,3.519,3.4503,3.3975,3.3956,3.2516,3.1484,3.1484,3.0701,2.9841,2.8968,2.9688,2.9459,2.7797,2.8459,2.8535,2.774,2.7701,2.7695,2.7695,2.7695,2.8077,2.8891,2.8891,2.9338,3.0173,3.0241,3.0389,4.1714,4.2758,4.3552,4.3552,4.2965,4.2378,4.2378,4.1619,4.0912,4.0912,4.0912,4.0912,4.0912,4.0912,4.0912,4.0912,4.0912,4.0981,4.1222,4.2378,4.3465,4.4207,4.5441,4.6337,4.6596,4.6086,4.5776,4.5776,4.5535,4.5837,4.684,4.6908,4.7205,4.7901,4.6856,4.6159,4.5902,4.4562,4.3883,4.3883,4.3608,4.3515,4.3515,4.3515,4.3515,4.3515,4.3515,4.3515,4.3441,4.2635,4.2763,4.3423,4.2598,4.2782,4.3515,4.3515,4.3515,4.3515,4.3515,4.3515,4.346,4.3185,4.3277,4.3387,4.2892,4.1222,3.9185,3.7599,3.6779,3.645,3.6738,3.6218,3.5832,3.67,3.6489,3.6309,3.7139,3.6882,3.65,3.65,3.6023,3.5526,3.5248,3.5209,3.5018,3.4464,3.4167,3.3777,3.3196,3.2642,3.2088,3.1496,3.1236,3.0739,2.986,3.0032,2.9975,2.944,2.965,2.9669,2.9421,2.8841,2.8803,2.9402,2.8822,2.8936,2.9784,2.9838,3.0023,3.0344,3.0451,3.0535,4.1597,4.2378,4.2827,4.312,4.2603,4.2016,4.2016,4.1429,4.0912,4.0912,4.0912,4.0912,4.0912,4.0912,4.0912,4.0912,4.0912,4.0998,4.1291,4.2137,4.3034,4.3793,4.4975,4.5734,4.5734,4.5544,4.5397,4.5397,4.5397,4.5715,4.6412,4.6462,4.6737,4.7369,4.6416,4.5608,4.5002,4.3993,4.3515,4.3515,4.3515,4.3515,4.3515,4.3515,4.3515,4.3515,4.3515,4.3515,0.0,4.2635,4.2763,4.3423,4.2598,4.2782,4.3515,4.3515,4.3515,4.3515,4.3515,4.3515,4.3515,4.3515,4.3075,4.2598,4.2598,4.1615,4.0141,3.8396,3.7739,3.7479,3.7296,3.67,3.6337,3.7063,3.6615,3.6233,3.7063,3.6844,3.65,3.65,3.6309,3.605,3.5736,3.5679,3.542,3.4579,3.4445,3.4254,3.3711,3.3387,3.2974,3.2439,3.2114,3.1732,3.1197,3.0854,3.0815,3.1121,3.0854,3.0682,3.0682,2.986,2.965,3.0192,2.9669,2.967,3.0234,3.0316,3.0543,3.0955,3.0713,3.0613,0.0,4.1905,4.2102,4.2844,4.2465,4.1905,4.1905,4.1395,0.0,4.0912,4.0912,4.0912,4.0912,4.0912,4.0912,4.0912,4.0912,4.1153,4.1912,4.2127,4.2472,4.3189,4.3931,4.4363,4.4311,4.4975,4.5397,4.5397,4.5397,4.548,4.5699,4.5691,4.5747,4.581,4.581,4.5094,4.3606,4.3533,4.3515,4.3515,4.3515,4.3515,4.3515,4.3515,4.3515,4.3515,4.3515,4.3515,4.3441,4.2635,4.2763,4.3423,4.2598,4.2782,4.3515,4.3515,4.3515,4.3515,4.3515,4.3515,4.3496,4.3441,4.2359,4.1095,4.1022,4.1185,4.1091,3.9782,3.9606,3.934,3.7239,3.7196,3.7521,3.6844,3.6061,3.5698,3.6576,3.6729,3.6672,3.6672,3.7234,3.7464,3.671,3.6538,3.6233,3.5496,3.5286,3.5229,3.5278,3.4598,3.4071,3.4014,3.328,3.2795,3.2795,3.205,3.1897,3.2661,3.1992,3.156,3.1503,3.072,3.0261,3.0211,3.0199,3.0241,3.0328,3.0375,3.0941,3.1882,3.1011,3.0676,4.0796,0.0,4.1205,4.1395,4.1309,4.117,0.0,4.1032,4.0912,4.0912,4.0912,4.0912,4.0912,4.0912,4.0912,4.0912,4.0912,4.1177,4.2016,4.3263,4.4054,4.4043,4.4785,4.5027,4.4345,4.4975,4.5397,4.5397,4.5397,4.548,4.5699,4.5691,4.5474,4.5003,4.4984,4.48,4.4415,4.3809,4.3515,4.3515,4.3515,4.3515,4.3515,4.3515,4.3515,4.3515,4.3515,4.3515,4.3441,4.2635,4.2763,4.3423,4.2598,4.2782,4.3515,4.3515,4.3515,4.3515,4.3515,4.3515,4.3387,4.2782,4.1919,4.0985,4.0377,4.0073,3.9901,3.9571,3.9364,3.908,3.8554,3.8056,3.7827,3.8304,3.8266,3.8362,3.9212,3.8868,3.8419,3.8419,3.8037,3.7636,3.7445,3.6901,3.6634,3.7043,3.6031,3.543,3.6118,3.5458,3.4674,3.4071,3.3815,3.3681,3.3681,3.2909,3.2508,3.2699,3.2527,3.2145,3.1522,3.1293,3.0873,3.0211,3.0254,3.0358,3.0525,3.0544,3.1035,3.1969,3.108,3.1048,4.017,4.0686,4.0912,4.0912,4.0912,4.0912,4.0912,4.0912,4.0912,4.0912,4.0912,4.0935,4.0982,4.0982,4.1006,4.1018,4.1041,4.1319,4.2081,4.328,4.4148,4.4361,4.4733,4.4975,4.4906,4.5208,4.5397,4.5397,4.5096,4.4883,4.4827,4.4667,4.4384,4.3889,4.4051,4.4158,4.4158,4.3718,4.3515,4.3515,4.3515,4.3515,4.3515,4.3515,4.3515,4.3515,4.3515,4.3515,4.3478,4.302,4.3112,4.346,4.302,4.3112,4.3515,4.3515,4.3515,4.3515,4.3515,4.3515,4.3441,4.2983,4.2066,4.1077,4.102,4.0558,3.9965,3.9608,3.9559,3.9508,3.9107,3.8648,3.8419,3.8897,3.8686,3.8648,3.9527,3.9336,3.9011,3.9011,3.8935,3.8763,3.8362,3.7941,3.7655,3.7693,3.6604,3.5965,3.6443,3.5736,3.5037,3.4598,3.4541,3.4568,3.4592,3.4147,3.3845,3.3845,3.3501,3.3108,3.2669,3.1904,3.1104,3.026,3.0303,3.0634,3.1196,3.0823,3.1119,3.1978,3.1109,3.0953,3.9825,4.0524,4.0912,4.0912,4.0912,4.0912,4.0912,4.0912,4.0912,4.0912,4.0912,4.0935,4.1087,4.1093,4.1123,4.1186,4.1423,4.1812,4.2493,4.3256,4.394,4.4453,4.455,4.4793,4.539,4.5338,4.5329,4.5406,4.4742,4.4202,4.3968,4.366,4.3363,4.308,4.3341,4.3515,4.3515,4.3515,4.3515,4.3515,4.3515,4.3515,4.3515,4.3515,4.3515,4.3515,4.3515,4.3515,4.3515,4.3515,4.3515,4.3515,4.3515,4.3515,4.3515,4.3515,4.3515,4.3515,4.3515,4.3423,4.3313,4.3167,4.2139,4.104,4.1735,4.1356,4.0566,4.0021,4.0165,4.031,3.9565,3.9298,3.9202,3.9202,3.8629,3.8304,3.9049,3.9202,3.9202,3.9202,3.9794,4.0071,3.9326,3.9106,3.88,3.8197,3.7309,3.6755,3.6889,3.6028,3.5417,3.5417,3.5283,3.5242,3.5293,3.525,3.5226,3.5226,3.4568,3.4136,3.4041,3.2407,3.1206,3.0562,3.0479,3.084,3.1726,3.1025,3.1145,3.1993,3.1109,3.084,4.0451,4.0823,4.0912,4.0912,4.0912,4.0912,4.0912,4.0912,4.0912,4.0912,4.0912,4.0935,4.1087,4.1093,4.1123,4.1186,4.2399,4.3557,4.422,4.5159,4.5488,4.4766,4.5297,4.5513,4.4898,4.4721,4.4897,4.5529,4.4794,4.4428,4.4721,4.4471,4.4166,4.3857,4.3615,4.3515,4.3515,4.3515,4.3515,4.3515,4.3515,4.3515,4.3515,4.3515,4.3515,4.3515,4.3515,4.3515,4.3515,4.3515,4.3515,4.3515,4.3515,4.3515,4.3515,4.3515,4.3515,4.3515,4.3515,4.3039,4.2378,4.1682,4.0836,4.0102,4.023,4.048,4.081,4.136,4.1435,4.1285,4.1151,4.0616,4.0091,4.0091,3.9995,3.9938,4.0072,4.0091,4.0091,4.0091,4.0204,4.026,4.0126,3.954,3.9278,3.9891,3.8673,3.7926,3.8616,3.7351,3.6393,3.6393,3.5714,3.5293,3.53,3.5293,3.5274,3.5274,3.5116,3.4753,3.4186,3.2506,3.1612,3.1642,3.0948,3.0665,3.0876,3.0769,3.1179,3.206,3.1181,3.1534,4.0187,4.041,4.0483,4.0823,4.0912,4.0912,4.0912,4.0912,4.0912,4.0912,4.0959,4.1168,4.1684,4.1864,4.2219,4.3156,4.3962,4.4697,4.5344,4.5121,4.5005,4.5414,4.5371,4.5329,4.5399,4.4933,4.4746,4.5093,4.3967,4.3315,4.3426,4.3163,4.2999,4.3035,4.3121,4.3286,4.3497,4.3515,4.3515,4.3515,4.3515,4.3515,4.3515,4.3515,4.3515,4.3515,4.3515,4.3515,4.3515,4.3515,4.3515,4.3515,4.3515,4.3515,4.3515,4.3515,4.3515,4.3515,4.3515,4.3259,4.2892,4.2525,4.1552,4.074,4.1796,4.1781,4.16,4.2549,4.218,4.1495,4.1495,4.0903,4.0291,4.03,4.031,4.0291,4.03,4.0301,4.0291,4.03,4.0308,4.0316,4.0353,4.0053,3.9928,4.0349,3.9342,3.8679,3.9054,3.7635,3.66,3.66,3.5814,3.5315,3.5357,3.5323,3.5308,3.5308,3.534,3.5007,3.4236,3.3476,3.2696,3.1925,3.1513,3.1129,3.0745,3.0745,3.1225,3.2088,3.1217,3.1471,4.007,4.022,4.0336,4.0782,4.0912,4.0912,4.0912,4.0935,4.1011,4.1183,4.133,4.1638,4.2311,4.2573,4.3127,4.4565,4.4975,4.5354,4.6027,4.5058,4.4791,4.6147,4.5488,4.5201,4.5888,4.5141,4.4582,4.4478,4.3356,4.2599,4.2479,4.2236,4.2214,4.2445,4.284,4.3196,4.3497,4.3515,4.3515,4.3515,4.3515,4.3515,4.3515,4.3515,4.3515,4.3515,4.3515,4.3515,4.3515,4.3515,4.3515,4.3515,4.3515,4.3515,4.3515,4.3515,4.3515,4.3515,4.3515,4.3515,4.3478,4.3277,4.2268,4.1381,4.2931,4.2753,4.2184,4.3073,4.2601,4.1762,4.1562,4.0903,4.0301,4.0298,4.0299,4.03,4.0307,4.0327,4.0309,4.0316,4.0334,4.037,4.0415,4.0413,4.0422,4.0422,3.9854,3.9432,3.9432,3.8147,3.7226,3.7226,3.6458,3.5871,3.5727,3.5684,3.5595,3.5376,3.5445,3.5204,3.4588,3.4424,3.379,3.2583,3.2152,3.1679,3.1103,3.0908,3.1135,3.1778,3.1315,3.1568,4.0662,4.0847,4.0847,4.0888,4.0912,4.0912,4.0912,4.1,4.1284,4.196,4.2211,4.2346,4.2556,4.2706,4.3038,4.3851,4.4606,4.5378,4.6091,4.6084,4.6227,4.6794,4.6117,4.5672,4.5793,4.4911,4.4158,4.3809,4.3537,4.3364,4.3217,4.3324,4.331,4.3226,4.3377,4.3462,4.3515,4.3515,4.3515,4.3515,4.3515,4.3515,4.3515,4.3515,4.3515,4.3515,4.3515,4.3515,4.3515,4.3515,4.3515,4.3515,4.3515,4.3515,4.3515,4.3515,4.3515,4.3515,4.3515,4.3515,4.3386,4.2635,4.1809,4.116,4.1563,4.1824,4.2065,4.2401,4.2597,4.2518,4.1705,4.0903,4.0301,4.0298,4.0307,4.0316,4.037,4.0398,4.0398,4.0379,4.0441,4.0493,4.0493,4.0495,4.0489,4.0489,4.045,4.0392,4.0392,3.9642,3.9104,3.9104,3.8327,3.7481,3.6673,3.6716,3.6439,3.5629,3.5525,3.5521,3.5587,3.4878,3.4495,3.4503,3.29,3.206,3.2003,3.1186,3.0824,3.0916,3.1658,3.2478,4.0847,4.0959,4.1006,4.0935,4.0995,4.1065,4.1029,4.107,4.1186,4.1522,4.2091,4.2713,4.3285,4.4635,4.5589,4.5354,4.6259,4.721,4.7955,4.7059,4.6556,4.7198,4.6608,4.6161,4.6182,4.5834,4.5551,4.538,4.4929,4.4343,4.3711,4.3706,4.3574,4.3187,4.3215,4.3355,4.3548,4.3565,4.3531,4.3515,4.3515,4.3515,4.3515,4.3515,4.3515,4.3515,4.3515,4.3515,4.3515,4.3515,4.3515,4.3515,4.3515,4.3515,4.3515,4.3515,4.3515,4.3515,4.3515,4.3167,4.269,4.2396,4.1423,4.0528,4.1478,4.1903,4.2134,4.2544,4.2757,4.2669,4.1847,4.0995,4.0372,4.0405,4.0388,4.0379,4.0441,4.0432,4.0415,4.0449,4.0474,4.0491,4.0503,4.05,4.0496,4.0496,4.0496,4.0496,4.0496,3.9804,3.9304,3.9304,3.8046,3.7292,3.754,3.7162,3.7015,3.7254,3.6785,3.6293,3.584,3.5571,3.5192,3.4718,3.4054,3.3448,3.29,3.2589,3.2709,3.3222,3.3007,3.3378,4.0532,4.0596,4.0643,4.0596,4.0868,4.1175,4.1192,4.1192,4.1354,4.1882,4.2521,4.3267,4.4109,4.5505,4.6429,4.6129,4.7114,4.8025,4.8271,4.7428,4.6905,4.7318,4.6902,4.6595,4.6615,4.6597,4.6448,4.6074,4.5802,4.5254,4.4321,4.4403,4.4158,4.3506,4.3614,4.3682,4.3599,4.3599,4.3565,4.3515,4.3515,4.3515,4.3515,4.3515,4.3515,4.3515,4.3515,4.3515,4.3515,4.3515,4.3515,4.3515,4.3515,4.3515,4.3515,4.3515,4.3515,4.3496,4.3513,4.2999,4.2338,4.232,4.1252,4.0127,4.1196,4.1588,4.1742,4.2001,4.2294,4.234,4.1532,4.0854,4.0424,4.0474,4.0458,4.0449,4.0499,4.0463,4.0447,4.0499,4.0507,4.0495,4.0508,4.0496,4.0496,4.0496,4.0496,4.0496,4.0496,4.0015,3.9688,3.9688,3.8373,3.7782,3.8444,3.8037,3.7914,3.8319,3.7857,3.7177,3.6317,3.6091,3.5719,3.5115,3.4842,3.4413,3.3806,3.3533,3.3709,3.4276,3.3964,3.4139,3.9715,3.9698,3.9738,3.987,4.0522,4.1163,4.1358,4.1403,4.184,4.3383,4.3793,4.4132,4.494,4.4812,4.486,4.5668,4.6791,4.7319,4.652,4.7102,4.7448,4.7038,4.7021,4.704,4.7095,4.704,4.6522,4.5428,4.6001,4.6051,4.5174,4.5511,4.5297,4.4364,4.4759,4.4548,4.3617,4.3599,4.3565,4.3515,4.3515,4.3515,4.3515,4.3515,4.3515,4.3515,4.3515,4.3515,4.3515,4.3515,4.3515,4.3515,4.3515,4.3515,4.3515,4.3515,4.3515,4.3515,4.3565,4.3065,4.2402,4.2382,4.1296,4.0077,4.0557,4.0747,4.0752,4.0565,4.1089,4.1519,4.0712,4.0463,4.0424,4.0474,4.0502,4.0499,4.0508,4.0496,4.0496,4.0496,4.0496,4.0496,4.0496,4.0496,4.0496,4.0496,4.0496,4.0496,4.0496,4.0496,4.0496,4.0496,3.9785,3.9331,3.9411,3.9534,3.9264,3.8483,3.8534,3.8145,3.7139,3.6384,3.5992,3.5992,3.5154,3.4705,3.4705,3.3845,3.3416,3.3455,3.4315,3.4705,4.0549,4.0199,3.9991,4.0585,4.0636,4.069,4.1258,4.1403,4.1723,4.2829,4.3109,4.3293,4.3824,4.4248,4.4711,4.5299,4.6394,4.7325,4.7673,4.7702,4.7627,4.7512,4.7492,4.7492,4.751,4.7492,4.7587,4.7812,4.7517,4.7204,4.6946,4.7052,4.6718,4.5868,4.5416,4.5043,4.4667,4.4093,4.3734,4.3565,4.3565,4.3566,4.3515,4.3515,4.3515,4.3515,4.3515,4.3515,4.3515,4.3515,4.3515,4.3515,4.3515,4.3515,4.3515,4.3515,4.3515,4.3423,4.2921,4.2237,4.1461,4.0953,4.0211,3.9578,3.9901,4.0537,4.1184,4.1316,4.1544,4.1715,4.1481,4.0934,4.0476,4.0492,4.0492,4.05,4.0496,4.0496,4.0496,4.0496,4.0496,4.0496,4.0496,4.0496,4.0496,4.0496,4.0496,4.0496,4.0496,4.0496,4.0496,4.0496,3.9822,3.9649,4.0329,3.9949,3.9856,4.026,3.9234,3.8196,3.7287,3.6437,3.5992,3.5992,3.5758,3.5602,3.5602,3.5348,3.5231,3.5231,3.5485,3.5606,3.9635,3.9271,3.9188,4.0053,4.0279,4.0499,4.1296,4.1738,4.2106,4.2687,4.2934,4.3209,4.3736,4.4237,4.4778,4.5341,4.6214,4.6872,4.7075,4.7175,4.7107,4.6773,4.7033,4.7218,4.7218,4.7218,4.7553,4.837,4.7683,4.7497,4.8147,4.7571,4.6995,4.6513,4.5714,4.5087,4.4638,4.4138,4.38,4.3599,4.3651,4.3634,4.3531,4.3496,4.3515,4.3515,4.3515,4.3331,4.3039,4.3369,4.3112,4.2598,4.324,4.3313,4.302,4.302,4.302,4.2909,4.2216,4.1454,4.0695,4.0273,3.9784,3.9389,3.964,4.023,4.0883,4.1149,4.1242,4.1277,4.1277,4.0893,4.0496,4.0496,4.0496,4.0496,4.0496,4.0496,4.0496,4.0496,4.0496,4.0496,4.0496,4.0496,4.0496,4.0496,4.0496,4.0496,4.0496,4.0496,4.0519,4.0566,4.0185,4.0176,4.0828,4.0477,4.0474,4.1061,3.9851,3.8871,3.8341,3.7166,3.6521,3.6523,3.6521,3.6346,3.5998,3.5994,3.5994,3.5998,3.5998,3.6001,3.7892,3.7698,3.7927,3.8877,3.9774,4.0679,4.1473,4.2255,4.2806,4.2761,4.3058,4.3518,4.4264,4.4501,4.4837,4.5626,4.611,4.616,4.5491,4.603,4.6234,4.5491,4.6048,4.6494,4.6494,4.642,4.6717,4.7534,4.6847,4.7051,4.8612,4.7293,4.6494,4.6494,4.5714,4.4883,4.4043,4.3934,4.3816,4.3632,4.3753,4.3736,4.3634,4.3531,4.3515,4.3515,4.3423,4.2983,4.2359,4.3002,4.2415,4.1242,4.2708,4.2818,4.2194,4.2194,4.2194,4.2083,4.1414,4.0702,4.0107,4.0108,3.9806,3.9471,3.9641,3.9912,4.0186,4.0422,4.0496,4.0516,4.0593,4.0554,4.0516,4.0593,4.0554,4.0496,4.0496,4.0496,4.0496,4.0496,4.0496,4.0496,4.0496,4.0496,4.0496,4.0496,4.0496,4.0496,4.0496,4.0496,4.0557,4.0681,4.0712,4.0786,4.0986,4.1003,4.1031,4.1106,4.0345,3.9934,4.0009,3.8343,3.7385,3.7291,3.7307,3.6877,3.6005,3.5999,3.5999,3.6005,3.6005,3.6008,3.9267,3.8891,3.8742,3.9638,4.0852,4.1855,4.2035,4.2463,4.2711,4.2383,4.24,4.2705,4.3487,4.365,4.406,4.5216,4.5498,4.5714,4.6178,4.6382,4.6438,4.6252,4.6382,4.6494,4.6494,4.5918,4.5881,4.6698,4.6011,4.5974,4.6958,4.668,4.6494,4.6494,4.5714,4.5212,4.501,4.4308,4.3926,4.3832,4.3849,4.3835,4.3753,4.3634,4.3548,4.346,4.2818,4.2451,4.2268,4.1809,4.1407,4.1132,4.148,4.1499,4.1352,4.1352,4.1352,4.1256,4.0585,4.024,4.003,3.9495,3.9514,3.9709,3.9765,4.0082,4.0433,4.0481,4.0496,4.0669,4.1335,4.1008,4.0669,4.1354,4.0989,4.0496,4.0496,4.0496,4.0496,4.0496,4.0496,4.0496,4.0496,4.0496,4.0496,4.0496,4.0496,4.0496,4.0496,4.0496,4.0557,4.0681,4.0745,4.0839,4.0992,4.1042,4.1084,4.1091,4.0347,4.017,4.0817,3.9213,3.7999,3.7311,3.7295,3.6868,3.6009,3.6009,3.6009,3.6009,3.6009,3.5992,3.8836,3.8718,3.9073,4.0196,4.1357,4.2259,4.2442,4.2657,4.281,4.2791,4.2773,4.2885,4.3318,4.356,4.3909,4.4568,4.4674,4.4822,4.5231,4.5305,4.5305,4.5305,4.5305,4.5305,4.5305,4.4915,4.5026,4.5862,4.5138,4.5212,4.642,4.5732,4.5491,4.59,4.5101,4.4674,4.4674,4.4228,4.3958,4.3897,4.3929,4.3709,4.328,4.35,4.3379,4.2941,4.2486,4.1864,4.1148,4.1095,4.0636,4.0031,4.0802,4.0857,4.0524,4.0524,4.054,4.0459,3.977,3.9553,3.9519,3.9189,3.9408,3.9808,3.9808,4.0129,4.0496,4.0496,4.0496,4.0593,4.1066,4.0835,4.0612,4.1066,4.0843,4.0496,4.0496,4.0496,4.0496,4.0496,4.0496,4.0496,4.0496,4.0496,4.0504,4.0539,4.0539,4.0539,4.0539,4.0581,4.0629,4.074,4.0843,4.0931,4.1044,4.1084,4.1111,4.1152,4.0741,4.0701,4.1072,4.0291,3.9431,3.8567,3.8549,3.812,3.7243,3.6832,3.6617,3.6618,3.6188,3.5994,3.8198,3.8407,3.9295,4.0571,4.1586,4.238,4.2791,4.2959,4.3105,4.344,4.3457,4.3423,4.3491,4.3777,4.4005,4.4005,4.4005,4.4005,4.4005,4.4005,4.4005,4.4005,4.4005,4.4005,4.4005,4.4005,4.4302,4.5008,4.4413,4.4599,4.5992,4.4748,4.4321,4.5045,4.4376,4.4005,4.4005,4.4005,4.3974,4.3913,4.3825,4.3417,4.2727,4.3035,4.2824,4.2179,4.1971,4.113,3.9937,4.0469,3.9884,3.8836,4.0175,4.0302,3.9711,3.9711,3.9758,3.9709,3.9102,3.8935,3.9007,3.9073,3.9521,3.9998,3.9846,4.0225,4.0689,4.0535,4.0496,4.0535,4.0689,4.0727,4.0766,4.092,4.0823,4.0689,4.0535,4.0496,4.0496,4.0496,4.0504,4.0504,4.0496,4.0504,4.0531,4.058,4.0607,4.0603,4.0612,4.0667,4.0732,4.0828,4.0928,4.1023,4.1091,4.1112,4.1132,4.1191,4.1191,4.1172,4.1112,4.1172,4.0859,4.0135,3.9977,3.947,3.8593,3.7888,3.7459,3.7284,3.6562,3.6132,3.9434,3.9582,3.9934,4.0647,4.1689,4.2678,4.3142,4.3562,4.3841,4.3908,4.3644,4.3508,4.386,4.3955,4.4005,4.4005,4.4005,4.4005,4.4005,4.4005,4.4005,4.4005,4.4005,4.4005,4.4005,4.4005,4.4042,4.4153,4.4079,4.4098,4.4321,4.4116,4.4061,4.4172,4.4061,4.4005,4.4005,4.4005,4.4005,4.3989,4.3299,4.2909,4.2764,4.1964,4.1507,4.1333,4.0554,4.01,3.9845,3.9258,3.8891,3.8726,3.9001,3.9034,3.8958,3.8958,3.9002,3.9025,3.8929,3.8935,3.9007,3.9073,3.9927,4.0794,4.0035,4.0664,4.147,4.0708,4.0496,4.0669,4.1431,4.1643,4.1816,4.2566,4.2181,4.1412,4.0669,4.0496,4.0496,4.0496,4.0558,4.0573,4.0504,4.0539,4.058,4.0607,4.0607,4.0626,4.0684,4.0699,4.0767,4.0956,4.0983,4.103,4.1091,4.1152,4.1191,4.1191,4.1191,4.1191,4.1191,4.1191,4.1152,4.1035,4.0273,3.9472,3.8594,3.8476,3.8047,3.7305,3.7187,3.6719,4.0347,4.0323,4.0498,4.1413,4.2309,4.3105,4.3546,4.3812,4.4005,4.4005,4.386,4.3793,4.3974,4.4005,4.4005,4.4005,4.4005,4.4005,4.4005,4.4005,4.4005,4.4005,4.4005,4.4005,4.4005,4.4005,4.4005,4.4005,4.4005,4.4005,4.4005,4.4005,4.4005,4.4005,4.4005,4.4005,4.4005,4.4005,4.4005,4.3986,4.3188,4.2556,4.2092,4.1092,4.0612,4.0566,4.0139,3.969,3.9203,3.8882,3.8735,3.8707,3.8777,3.8807,3.8807,3.8833,3.9187,3.956,3.9116,3.9322,3.9811,3.9994,4.0214,4.0417,4.0639,4.0862,4.0989,4.0612,4.0854,4.1316,4.1692,4.2162,4.2508,4.2412,4.2085,4.1566,4.0689,4.0496,4.0504,4.0539,4.0573,4.0588,4.0564,4.0571,4.0612,4.0646,4.0653,4.0688,4.0754,4.0815,4.0898,4.0983,4.1074,4.1128,4.1152,4.1172,4.1191,4.1191,4.1191,4.1191,4.1191,4.1191,4.1191,4.1191,4.082,4.0449,4.0059,3.9082,3.8398,3.8008,3.7031,3.6621,4.0747,4.0792,4.1039,4.193,4.2684,4.3338,4.3783,4.3929,4.3974,4.4005,4.4005,4.4005,4.4005,4.4005,4.4005,4.4005,4.4005,4.4005,4.4005,4.4005,4.4005,4.4005,4.4005,4.4005,4.4005,4.4005,4.4005,4.4005,4.4005,4.4005,4.4005,4.4005,4.4005,4.4005,4.4005,4.4005,4.4005,4.4005,4.4005,4.3986,4.2983,4.2296,4.1869,4.0648,4.0107,4.0107,3.9832,3.9317,3.8707,3.8762,3.8765,3.8726,3.9013,3.9131,3.9168,3.9446,3.9982,4.043,3.96,3.9791,4.0388,4.0373,4.04,4.0523,4.09,4.1061,4.1112,4.09,4.1296,4.1846,4.2058,4.2758,4.3181,4.2335,4.2143,4.1835,4.0746,4.0504,4.0539,4.058,4.0603,4.0624,4.0607,4.0621,4.0635,4.0694,4.0707,4.0761,4.084,4.0948,4.1035,4.1049,4.1149,4.1191,4.1191,4.1191,4.1191,4.1191,4.1191,4.1191,4.1191,4.1191,4.1191,4.1191,4.1191,4.1191,4.1191,3.9883,3.9141,3.8906,3.7598,3.7226,4.0477,4.0933,4.1505,4.1681,4.2377,4.3142,4.3667,4.3851,4.3929,4.3989,4.4005,4.4005,4.4005,4.4005,4.4005,4.4005,4.4005,4.4005,4.4005,4.4005,4.4005,4.4005,4.4005,4.4005,4.4005,4.4005,4.4005,4.4005,4.4005,4.4005,4.4005,4.4005,4.4005,4.4005,4.4005,4.4005,4.4005,4.4005,4.4005,4.3986,4.2407,4.2036,4.2686,4.0907,4.0122,4.0145,3.9254,3.8802,3.8707,3.8762,3.8765,3.8796,3.9681,4.0037,4.0129,4.1051,4.1442,4.139,4.0448,4.0255,4.0267,3.9463,4.0585,4.1973,4.0369,4.1323,4.2797,4.197,4.1769,4.1981,4.2816,4.3624,4.4028,4.322,4.3028,4.2566,4.0881,4.0539,4.0607,4.0607,4.0646,4.0661,4.0614,4.0654,4.0694,4.07,4.0742,4.0844,4.0974,4.1059,4.1117,4.1171,4.1191,4.1191,4.1191,4.1191,4.1191,4.1191,4.1191,4.1191,4.1191,4.1191,4.1191,4.1191,4.1191,4.1191,4.1191,4.1113,4.0644,3.9824,3.9746,3.9277,4.1112,4.1735,4.2406,4.2445,4.2941,4.3461,4.3754,4.3851,4.3913,4.3989,4.4005,4.4005,4.4005,4.4005,4.4005,4.4005,4.4005,4.4005,4.4005,4.4005,4.4005,4.4005,4.4005,4.4005,4.4005,4.4005,4.4005,4.4005,4.4005,4.4005,4.4005,4.4005,4.4005,4.4005,4.4005,4.4005,4.4005,4.4005,4.4005,4.3986,4.289,4.2519,4.2742,4.0925,4.0384,4.0858,4.0003,3.9596,3.9537,3.9656,3.9936,4.0344,4.0828,4.0999,4.1051,4.1423,4.191,4.2259,4.1393,4.1468,4.1932,4.1777,4.2015,4.2257,4.181,4.1934,4.22,4.1885,4.22,4.2835,4.3662,4.4489,4.4778,4.3412,4.2662,4.2112,4.1528,4.0985,4.0595,4.0605,4.0647,4.07,4.0739,4.0746,4.0752,4.0752,4.0821,4.0891,4.0981,4.1064,4.1139,4.1191,4.1191,4.1191,4.1191,4.1191,4.1191,4.1191,4.1191,4.1191,4.1191,4.1191,4.1191,4.1191,4.1191,4.1191,4.1191,4.0644,4.0215,3.9883,3.9336,3.9199,4.0998,4.1858,4.2692,4.2863,4.325,4.36,4.3719,4.3769,4.3832,4.3942,4.3958,4.3974,4.4005,4.4005,4.4005,4.4005,4.4005,4.4005,4.4005,4.4005,4.4005,4.4005,4.4005,4.4005,4.4005,4.4005,4.4005,4.4005,4.4005,4.4005,4.4005,4.4005,4.4005,4.4005,4.4005,4.4005,4.4005,4.3726,4.3726,4.3986,4.2909,4.2686,4.315,4.161,4.1231,4.1773,4.1176,4.0711,4.0412,4.0514,4.0846,4.1322,4.1709,4.1881,4.193,4.2284,4.2742,4.3095,4.2277,4.2352,4.2802,4.2795,4.2756,4.2674,4.2351,4.2449,4.2585,4.2316,4.2854,4.3682,4.4509,4.496,4.4883,4.3778,4.2624,4.1881,4.2237,4.1636,4.1118,4.1412,4.1061,4.0823,4.1158,4.099,4.0797,4.0797,4.0873,4.0957,4.0984,4.1076,4.1147,4.1191,4.1191,4.1191,4.1191,4.1191,4.1191,4.1191,4.1191,4.1191,4.1191,4.1191,4.1191,4.1191,4.1172,4.1172,4.1191,4.0625,4.0332,4.0312,3.9746,3.9765,0.0,0.0,0.0,4.2769,4.3178,4.3496,4.3582,4.3599,4.3667,4.3849,4.3915,4.3913,4.3989,4.4005,4.4005,4.4005,4.4005,4.4005,4.4005,4.4005,4.4005,4.4005,4.4005,4.4005,4.4005,4.4005,4.4005,4.4005,4.4005,4.4005,4.4005,4.4005,4.4005,4.4005,4.4005,4.4005,4.4005,4.3225,4.3225,4.3986,4.2407,4.2482,4.3931,4.2926,4.2572,4.2745,4.2556,4.1986,4.124,4.1298,4.14,4.1548,4.2324,4.2683,4.2835,4.3677,4.4005,4.3893,4.3113,4.2835,4.2746,4.2232,4.2781,4.3361,4.1903,4.2812,4.4143,4.3355,4.3701,4.4489,4.5364,4.4951,4.4297,4.4297,4.3047,4.2074,4.2911,4.2468,4.2158,4.2999,4.1912,4.1106,4.1835,4.1332,4.0835,4.0797,4.0906,4.099,4.099,4.1115,4.1191,4.1191,4.1191,4.1191,4.1191,4.1191,4.1191,4.1191,4.1191,4.1191,4.1191,4.1191,4.1191,4.1191,4.1132,4.1132,4.1191,4.1191,4.1191,4.1191,4.1191,4.1127,3.9962,0.0,0.0,0.0,0.0,0.0,4.3513,4.3599,4.3632,4.3786,4.3837,4.3851,4.3913,4.3929,4.3945,4.3989,4.4005,4.4005,4.4005,4.4005,4.4005,4.4005,4.4005,4.4005,4.4005,4.4005,4.4005,4.4005,4.4005,4.4005,4.4005,4.4005,4.4005,4.4005,4.4005,4.4005,4.4005,4.3782,4.3782,4.3986,4.3559,4.3262,4.3095,4.219,4.1807,4.1853,4.1807,4.1915,4.2166,4.2323,4.2677,4.3174,4.3487,4.3624,4.3658,4.3912,4.4005,4.3968,4.3745,4.367,4.3676,4.3718,4.4076,4.4317,4.3457,4.3723,4.4239,4.4028,4.4124,4.4489,4.5364,4.4951,4.4297,4.4297,4.3508,4.2821,4.3104,4.2509,4.1984,4.2277,4.2485,4.2299,4.1293,4.1429,4.1467,4.0893,4.0906,4.099,4.099,4.1115,4.1191,4.1191,4.1191,4.1191,4.1191,4.1191,4.1191,4.1191,4.1191,4.1191,4.1191,4.1191,4.1172,4.1132,4.1112,4.1111,4.113,4.1131,4.1132,4.1132,4.1078,4.1035,3.8718,3.9489,4.0415,4.1502,0.0,0.0,4.3141,4.3303,4.3392,4.3651,4.3719,4.3753,4.3835,4.3851,4.3867,4.3913,4.3913,4.3945,4.3989,4.4005,4.4005,4.4005,4.4005,4.4005,4.4005,4.4005,4.4005,4.4005,4.4005,4.4005,4.4005,4.4005,4.4005,4.4005,4.4005,4.3838,4.3503,4.3169,4.3002,4.2983,4.2649,4.2426,4.2277,4.1742,4.1523,4.1534,4.1455,4.1872,4.2596,4.2706,4.319,4.3851,4.3929,4.3974,4.4005,4.4005,4.4005,4.4005,4.4005,4.4005,4.4064,4.4425,4.4676,4.4709,4.4219,4.442,4.4759,4.4393,4.4566,4.496,4.5479,4.5229,4.4836,4.4836,4.3948,4.3211,4.3601,4.2775,4.2063,4.2452,4.2653,4.257,4.1951,4.1932,4.1835,4.1371,4.112,4.099,4.099,4.1115,4.1191,4.1191,4.1191,4.1191,4.1191,4.1191,4.1191,4.1191,4.1191,4.1191,4.1152,4.1152,4.1132,4.109,4.1108,4.1106,4.1104,4.1108,4.109,4.111,4.1039,4.0975,3.6939,3.7912,3.9072,3.9953,4.0538,0.0,4.2513,4.2791,4.2904,4.3426,4.3565,4.3634,4.3753,4.3788,4.3788,4.3804,4.3804,4.3835,4.3958,4.3989,4.3989,4.4005,4.4005,4.4005,4.4005,4.4005,4.4005,4.4005,4.4005,4.4005,4.4005,4.4005,4.4005,4.4005,4.3912,4.3522,4.2816,4.1999,4.159,4.159,4.0866,4.0861,4.146,4.1404,4.1364,4.133,4.1237,4.1724,4.2563,4.2576,4.3098,4.3897,4.3897,4.3961,4.4005,4.4005,4.4005,4.4005,4.4005,4.4005,4.4094,4.4643,4.4788,4.4751,4.4527,4.4998,4.5441,4.4662,4.4998,4.5594,4.5594,4.5594,4.5575,4.5479,4.4254,4.3293,4.3968,4.2925,4.2098,4.2873,4.2628,4.2473,4.3053,4.2589,4.2112,4.2028,4.1436,4.0994,4.1003,4.1117,4.1191,4.1191,4.1191,4.1191,4.1191,4.1191,4.1191,4.1191,4.1191,4.1172,4.1092,4.1092,4.1091,4.1106,4.1101,4.1098,4.1098,4.1104,4.1106,4.1106,4.102,4.0915,3.6633,3.7189,3.783,3.9599,3.9756,0.0,4.1759,4.2055,4.2123,4.2868,4.3286,4.3531,4.3615,4.3651,4.3667,4.3788,4.3804,4.3837,4.3897,4.3913,4.3945,4.3989,4.4005,4.4005,4.4005,4.4005,4.4005,4.4005,4.4005,4.4005,4.4005,4.4005,4.4005,4.4005,4.3373,4.2965,4.2797,4.1999,4.159,4.159,4.1441,4.1107,4.0624,4.061,4.0238,3.9621,4.028,4.1015,4.173,4.1787,4.2644,4.3915,4.3958,4.3989,4.4005,4.4005,4.4005,4.4005,4.4005,4.4005,4.4094,4.4643,4.4788,4.4877,4.5237,4.5479,4.5556,4.5402,4.5479,4.5594,4.5594,4.5594,4.5421,4.472,4.3811,4.2965,4.2483,4.1631,4.1016,4.1229,4.2802,4.3711,4.2473,4.2686,4.2834,4.2177,4.1455,4.1011,4.1074,4.1146,4.1191,4.1191,4.1191,4.1191,4.1191,4.1191,4.1191,4.1191,4.1191,4.1172,4.1092,4.1092,4.1109,4.11,4.1095,4.1091,4.1091,4.1098,4.11,4.1099,4.0922,4.0833,3.596,3.635,3.6757,3.815,3.8582,0.0,0.0,4.1268,4.168,4.2331,4.2846,4.3214,4.3232,4.341,4.3583,4.3652,4.3652,4.3667,4.3751,4.3818,4.3867,4.3915,4.3929,4.3961,4.3961,4.3974,4.4005,4.4005,4.4005,4.4005,4.4005,4.4005,4.3819,4.341,4.3002,4.2407,4.1609,4.12,4.0773,4.0346,4.0346,4.0141,3.9751,3.9751,3.951,3.912,3.9523,4.0177,4.0956,4.0919,4.1642,4.2755,4.2782,4.2797,4.2853,4.3243,4.3392,4.3466,4.3856,4.4005,4.4064,4.4484,4.4688,4.4891,4.5292,4.5495,4.5594,4.5594,4.5594,4.5594,4.5594,4.5287,4.496,4.496,4.3692,4.2506,4.2541,4.1923,4.1235,4.0868,4.2512,4.3537,4.2222,4.2357,4.2512,4.2114,4.1457,4.1162,4.1581,4.1748,4.1797,4.1797,4.1797,4.1641,4.123,4.1191,4.1191,4.1191,4.1191,4.1171,4.109,4.111,4.1106,4.1094,4.1091,4.1109,4.1109,4.1093,4.1085,4.1044,4.0879,4.0781,3.5341,3.5667,3.596,3.6763,3.7467,3.8282,0.0,0.0,0.0,4.1711,4.2302,4.2731,4.2731,4.3014,4.325,4.325,4.325,4.3303,4.3426,4.3479,4.3566,4.3771,4.3767,4.3749,4.3749,4.3812,4.3892,4.3974,4.3989,4.4005,4.4005,4.4005,4.3708,4.3039,4.2723,4.1943,4.0639,4.0323,3.9788,3.9101,3.9101,3.9101,3.9101,3.9101,3.9101,3.9101,3.905,3.9546,4.0383,4.0107,4.0529,4.1367,4.1534,4.159,4.1702,4.25,4.2797,4.2927,4.3726,4.4005,4.4048,4.4374,4.4701,4.4977,4.5211,4.5429,4.5575,4.5402,4.5344,4.5306,4.5171,4.4605,4.4201,4.4739,4.3362,4.2047,4.2587,4.2323,4.1816,4.1164,4.226,4.3015,4.2144,4.2009,4.2009,4.2038,4.1453,4.1237,4.1925,4.2098,4.2168,4.2168,4.2168,4.1894,4.123,4.1191,4.1191,4.1172,4.1172,4.1151,4.1108,4.1105,4.11,4.1109,4.1109,4.1109,4.1109,4.1081,4.1059,4.101,4.0855,4.0751,3.5121,3.5622,3.5808,3.6609,3.6938,3.7438,3.8955,0.0,4.0344,4.1051,0.0,4.2101,4.2101,0.0,0.0,4.234,4.234,4.2498,4.292,4.2635,4.2733,4.3686,4.3442,4.3195,4.3195,4.3247,4.3456,4.3881,4.3958,4.4005,4.4005,4.4005,4.3968,4.3875,4.2482,4.1646,4.146,3.9993,3.9194,3.9101,3.9101,3.9101,3.9101,3.9101,3.9101,3.9101,3.9087,3.9602,4.0341,3.9551,3.9751,4.062,4.1311,4.159,4.1702,4.25,4.2797,4.2927,4.3726,4.4005,4.4079,4.4585,4.5096,4.5513,4.555,4.5577,4.5441,4.4662,4.4451,4.4278,4.3566,4.3316,4.3066,4.2393,4.2063,4.1719,4.1031,4.148,4.197,4.1874,4.2647,4.3015,4.2144,4.2009,4.205,4.2152,4.1507,4.1089,4.1285,4.1328,4.1348,4.1348,4.1348,4.1289,4.1112,4.1172,4.1172,4.1112,4.1112,4.1111,4.1108,4.1098,4.1091,4.1109,4.1109,4.1109,4.1109,4.105,4.1019,4.101,4.0855,4.0751,3.4785,3.5059,3.5148,3.591,3.6118,3.6435,3.756,3.8361,3.8986,3.9295,0.0,0.0,0.0,0.0,0.0,0.0,4.2018,4.216,4.2342,4.2279,4.2539,4.3515,4.3051,4.2659,4.2736,4.3014,4.3282,4.3474,4.3809,4.4005,4.4005,4.4005,4.3782,4.3318,4.2649,4.185,4.0903,4.0211,3.9602,3.9101,3.9101,3.9101,3.9101,3.9101,3.9101,3.9101,3.9101,3.9305,3.9621,3.925,3.9602,4.0383,4.0197,4.0141,4.0253,4.1089,4.1702,4.2222,4.302,4.3615,4.4094,4.4643,4.5063,4.5304,4.4944,4.521,4.5421,4.4547,4.4662,4.4979,4.4643,4.3835,4.3267,4.3907,4.2961,4.1945,4.2082,4.2459,4.2473,4.1487,4.197,4.2434,4.2067,4.2415,4.2613,4.2203,4.1898,4.1727,4.1824,4.1874,4.1894,4.1894,4.1894,4.1699,4.1191,4.1152,4.1152,4.1152,4.1111,4.1108,4.1102,4.1095,4.1109,4.1109,4.1109,4.1109,4.1109,4.1022,4.0951,4.0882,4.0786,4.0687,3.4199,3.443,3.4521,3.5374,3.5752,3.6079,3.6677,3.7458,3.8031,3.8031,3.8826,0.0,0.0,0.0,4.0915,0.0,0.0,4.1388,4.1711,4.1782,4.2136,4.305,4.2503,4.2183,4.2402,4.2736,4.3051,4.33,4.3695,4.3942,4.3974,4.3974,4.3714,4.312,4.2912,4.2129,4.0725,4.0494,3.9955,3.9101,3.9101,3.9101,3.9101,3.9101,3.9101,3.9101,3.9101,3.9101,3.9101,3.9101,3.9472,3.9974,3.9342,3.9101,3.9212,4.0067,4.0903,4.172,4.2519,4.342,4.4279,4.4663,4.503,4.5227,4.4801,4.5094,4.5421,4.4547,4.4759,4.5152,4.4682,4.3662,4.3074,4.4355,4.3246,4.2088,4.2734,4.3104,4.2879,4.1409,4.1796,4.2434,4.2667,4.2841,4.2762,4.2204,4.2163,4.215,4.2014,4.2049,4.207,4.207,4.2051,4.1816,4.121,4.1132,4.1112,4.1171,4.113,4.1104,4.1097,4.1093,4.1109,4.1109,4.1109,4.1109,4.1109,4.1006,4.0894,4.0806,4.0734,4.0622,3.3192,3.3842,3.4106,3.5307,3.618,3.6778,3.6795,3.7364,3.7905,3.7905,3.8024,3.8159,3.8159,3.831,0.0,0.0,0.0,0.0,0.0,4.0913,4.1117,4.2115,4.1821,4.1713,4.2157,4.2284,4.2678,4.3512,4.3736,4.3818,4.3897,4.3897,4.3897,4.386,4.316,4.2377,4.1471,4.0762,3.9955,3.9101,3.9101,3.9101,3.9101,3.9101,3.9101,3.9101,3.9101,3.9101,3.9101,3.9101,3.912,3.9138,3.9101,3.9101,3.9212,4.0067,4.0903,4.172,4.2519,4.3657,4.4776,4.4788,4.5169,4.5586,4.5556,4.5575,4.5421,4.4547,4.4316,4.397,4.2335,4.1885,4.1862,4.1986,4.1955,4.1933,4.2026,4.2698,4.3034,4.2144,4.2667,4.3537,4.4362,4.315,4.2075,4.2174,4.2195,4.1969,4.1327,4.123,4.123,4.123,4.1171,4.113,4.1108,4.1091,4.1091,4.1108,4.1108,4.1103,4.109,4.1109,4.1109,4.1109,4.1109,4.1109,4.1109,4.0901,4.0791,4.0806,4.0734,4.0622,3.1742,3.1898,3.2288,3.4006,3.4252,3.4426,3.5706,3.6191,3.6377,3.6377,3.6852,3.7384,3.7875,0.0,0.0,0.0,0.0,0.0,0.0,4.0566,4.0734,4.1163,4.1378,4.1468,4.1351,4.1216,4.1449,4.2286,4.2505,4.2839,4.3334,4.3666,4.3851,4.3915,4.3669,4.2903,4.1583,4.1315,4.0494,3.9101,3.9064,3.9064,3.9101,3.9045,3.9064,3.9101,3.9101,3.9101,3.9101,3.9101,3.9435,3.99,3.9324,3.9454,3.9993,4.029,4.0903,4.182,4.3328,4.4267,4.4825,4.5007,4.5312,4.5498,4.4913,4.5152,4.5421,4.4547,4.472,4.4902,4.3758,4.3451,4.3487,4.3586,4.3616,4.3484,4.2962,4.3543,4.373,4.228,4.2705,4.3576,4.4439,4.3659,4.3146,4.3817,4.395,4.3507,4.2167,4.25,4.2637,4.2051,4.1972,4.1952,4.1951,4.1423,4.1109,4.1102,4.1105,4.1103,4.1109,4.1109,4.1109,4.1109,4.1109,4.1109,4.1109,4.0898,4.081,4.0806,4.0649,4.0549,3.0595,3.0672,3.1052,3.2748,3.2813,3.2848,3.4349,3.4816,3.4953,3.493,3.5712,3.6349,3.6315,3.6958,0.0,0.0,0.0,0.0,0.0,4.0362,4.0485,4.0607,4.0977,4.1192,4.1117,4.0968,4.1022,4.1439,4.2006,4.2413,4.2631,4.333,4.3753,4.38,4.3865,4.3249,4.1927,4.1709,4.0903,3.9547,3.9194,3.9064,3.9101,3.9064,3.9045,3.9101,3.9101,3.9101,3.9101,3.9101,3.9435,3.9881,3.9324,3.9435,3.9974,4.0304,4.1089,4.2233,4.3743,4.4511,4.4825,4.5007,4.5312,4.5498,4.494,4.5152,4.5364,4.4201,4.4701,4.5267,4.3797,4.3855,4.4322,4.4469,4.4261,4.3897,4.3407,4.375,4.3711,4.228,4.2705,4.3479,4.4033,4.4007,4.4105,4.4704,4.4336,4.3597,4.2539,4.2891,4.3027,4.2461,4.2675,4.2733,4.2438,4.189,4.1439,4.1122,4.1103,4.11,4.1109,4.1109,4.1109,4.1109,4.1109,4.1109,4.1109,4.0898,4.081,4.0806,4.0596,4.0496]}]]